<?xml version="1.0" encoding="UTF-8" standalone="no" ?><gpx xmlns="http://www.topografix.com/GPX/1/1" xmlns:gpxx="http://www.garmin.com/xmlschemas/GpxExtensions/v3" xmlns:gpxtrkx="http://www.garmin.com/xmlschemas/TrackStatsExtension/v1" xmlns:wptx1="http://www.garmin.com/xmlschemas/WaypointExtension/v1" xmlns:gpxtpx="http://www.garmin.com/xmlschemas/TrackPointExtension/v1" creator="GPSMAP 65s" version="1.1" xmlns:xsi="http://www.w3.org/2001/XMLSchema-instance" xsi:schemaLocation="http://www.topografix.com/GPX/1/1 http://www.topografix.com/GPX/1/1/gpx.xsd http://www.garmin.com/xmlschemas/GpxExtensions/v3 http://www8.garmin.com/xmlschemas/GpxExtensionsv3.xsd http://www.garmin.com/xmlschemas/TrackStatsExtension/v1 http://www8.garmin.com/xmlschemas/TrackStatsExtension.xsd http://www.garmin.com/xmlschemas/WaypointExtension/v1 http://www8.garmin.com/xmlschemas/WaypointExtensionv1.xsd http://www.garmin.com/xmlschemas/TrackPointExtension/v1 http://www.garmin.com/xmlschemas/TrackPointExtensionv1.xsd"><metadata><link href="http://www.garmin.com"><text>Garmin International</text></link><time>2026-09-01T06:43:28Z</time></metadata><trk><name>20260831LISA7</name><extensions><gpxx:TrackExtension><gpxx:DisplayColor>Magenta</gpxx:DisplayColor></gpxx:TrackExtension><gpxtrkx:TrackStatsExtension><gpxtrkx:Distance>18273.000</gpxtrkx:Distance><gpxtrkx:TotalElapsedTime>36818</gpxtrkx:TotalElapsedTime><gpxtrkx:MovingTime>16105</gpxtrkx:MovingTime><gpxtrkx:StoppedTime>20601</gpxtrkx:StoppedTime><gpxtrkx:MovingSpeed>1.135</gpxtrkx:MovingSpeed><gpxtrkx:MaxSpeed>3.372</gpxtrkx:MaxSpeed><gpxtrkx:MaxElevation>86.400</gpxtrkx:MaxElevation><gpxtrkx:MinElevation>37.786</gpxtrkx:MinElevation><gpxtrkx:Ascent>128.000</gpxtrkx:Ascent><gpxtrkx:Descent>171.727</gpxtrkx:Descent><gpxtrkx:AvgAscentRate>0.013</gpxtrkx:AvgAscentRate><gpxtrkx:MaxAscentRate>0.686</gpxtrkx:MaxAscentRate><gpxtrkx:AvgDescentRate>0.011</gpxtrkx:AvgDescentRate><gpxtrkx:MaxDescentRate>-0.774</gpxtrkx:MaxDescentRate></gpxtrkx:TrackStatsExtension></extensions><trkseg><trkpt lat="59.5318581630" lon="31.2290568743"><ele>8.73</ele><time>2026-08-31T20:29:50Z</time></trkpt><trkpt lat="59.5318565704" lon="31.2290558685"><ele>85.57</ele><time>2026-08-31T20:29:51Z</time></trkpt><trkpt lat="59.5318546426" lon="31.2290569581"><ele>85.57</ele><time>2026-08-31T20:29:52Z</time></trkpt><trkpt lat="59.5318834763" lon="31.2289884780"><ele>85.45</ele><time>2026-08-31T20:30:11Z</time></trkpt><trkpt lat="59.5318838954" lon="31.2289646734"><ele>85.22</ele><time>2026-08-31T20:30:12Z</time></trkpt><trkpt lat="59.5318824705" lon="31.2289432995"><ele>85.18</ele><time>2026-08-31T20:30:13Z</time></trkpt><trkpt lat="59.5318805426" lon="31.2289187405"><ele>85.01</ele><time>2026-08-31T20:30:14Z</time></trkpt><trkpt lat="59.5318806265" lon="31.2288940977"><ele>85.16</ele><time>2026-08-31T20:30:15Z</time></trkpt><trkpt lat="59.5318820514" lon="31.2288722210"><ele>85.03</ele><time>2026-08-31T20:30:16Z</time></trkpt><trkpt lat="59.5318638626" lon="31.2286077719"><ele>85.16</ele><time>2026-08-31T20:30:29Z</time></trkpt><trkpt lat="59.5318760164" lon="31.2284728233"><ele>84.88</ele><time>2026-08-31T20:30:35Z</time></trkpt><trkpt lat="59.5317681413" lon="31.2283313368"><ele>84.36</ele><time>2026-08-31T20:30:46Z</time></trkpt><trkpt lat="59.5317564905" lon="31.2283269782"><ele>84.27</ele><time>2026-08-31T20:30:47Z</time></trkpt><trkpt lat="59.5317164250" lon="31.2282274850"><ele>84.19</ele><time>2026-08-31T20:30:53Z</time></trkpt><trkpt lat="59.5317129884" lon="31.2282106373"><ele>84.07</ele><time>2026-08-31T20:30:54Z</time></trkpt><trkpt lat="59.5316408202" lon="31.2280901894"><ele>83.79</ele><time>2026-08-31T20:31:02Z</time></trkpt><trkpt lat="59.5316023473" lon="31.2279412430"><ele>83.90</ele><time>2026-08-31T20:31:10Z</time></trkpt><trkpt lat="59.5315879304" lon="31.2279252335"><ele>83.78</ele><time>2026-08-31T20:31:11Z</time></trkpt><trkpt lat="59.5315702446" lon="31.2278781272"><ele>83.70</ele><time>2026-08-31T20:31:14Z</time></trkpt><trkpt lat="59.5314765349" lon="31.2276051287"><ele>83.34</ele><time>2026-08-31T20:31:27Z</time></trkpt><trkpt lat="59.5313873515" lon="31.2273424398"><ele>82.27</ele><time>2026-08-31T20:31:43Z</time></trkpt><trkpt lat="59.5313635468" lon="31.2272871193"><ele>82.35</ele><time>2026-08-31T20:31:48Z</time></trkpt><trkpt lat="59.5312986709" lon="31.2272090837"><ele>81.72</ele><time>2026-08-31T20:32:00Z</time></trkpt><trkpt lat="59.5312238205" lon="31.2270823494"><ele>81.63</ele><time>2026-08-31T20:32:09Z</time></trkpt><trkpt lat="59.5312129240" lon="31.2270719558"><ele>81.72</ele><time>2026-08-31T20:32:10Z</time></trkpt><trkpt lat="59.5311983395" lon="31.2270607240"><ele>81.74</ele><time>2026-08-31T20:32:11Z</time></trkpt><trkpt lat="59.5311613753" lon="31.2270199880"><ele>81.60</ele><time>2026-08-31T20:32:14Z</time></trkpt><trkpt lat="59.5310769696" lon="31.2268382683"><ele>81.27</ele><time>2026-08-31T20:32:28Z</time></trkpt><trkpt lat="59.5310142729" lon="31.2266970333"><ele>81.05</ele><time>2026-08-31T20:32:39Z</time></trkpt><trkpt lat="59.5309527498" lon="31.2266025692"><ele>80.30</ele><time>2026-08-31T20:33:00Z</time></trkpt><trkpt lat="59.5308678411" lon="31.2264451571"><ele>80.27</ele><time>2026-08-31T20:33:13Z</time></trkpt><trkpt lat="59.5308601297" lon="31.2264273874"><ele>80.15</ele><time>2026-08-31T20:33:14Z</time></trkpt><trkpt lat="59.5307935774" lon="31.2263315823"><ele>80.44</ele><time>2026-08-31T20:33:20Z</time></trkpt><trkpt lat="59.5306734648" lon="31.2262008246"><ele>80.25</ele><time>2026-08-31T20:33:36Z</time></trkpt><trkpt lat="59.5306403562" lon="31.2261307519"><ele>79.79</ele><time>2026-08-31T20:33:46Z</time></trkpt><trkpt lat="59.5306270290" lon="31.2261096295"><ele>79.43</ele><time>2026-08-31T20:33:47Z</time></trkpt><trkpt lat="59.5306163840" lon="31.2260984816"><ele>79.43</ele><time>2026-08-31T20:33:48Z</time></trkpt><trkpt lat="59.5305072516" lon="31.2258862518"><ele>79.20</ele><time>2026-08-31T20:34:00Z</time></trkpt><trkpt lat="59.5304653421" lon="31.2257788796"><ele>79.26</ele><time>2026-08-31T20:34:06Z</time></trkpt><trkpt lat="59.5304507576" lon="31.2257690728"><ele>78.97</ele><time>2026-08-31T20:34:07Z</time></trkpt><trkpt lat="59.5304399449" lon="31.2257499620"><ele>79.06</ele><time>2026-08-31T20:34:08Z</time></trkpt><trkpt lat="59.5303982869" lon="31.2256839965"><ele>78.79</ele><time>2026-08-31T20:34:13Z</time></trkpt><trkpt lat="59.5303808525" lon="31.2256445177"><ele>79.27</ele><time>2026-08-31T20:34:15Z</time></trkpt><trkpt lat="59.5303256996" lon="31.2255965732"><ele>78.65</ele><time>2026-08-31T20:34:27Z</time></trkpt><trkpt lat="59.5302163996" lon="31.2253633887"><ele>78.90</ele><time>2026-08-31T20:34:41Z</time></trkpt><trkpt lat="59.5301893260" lon="31.2252917234"><ele>78.60</ele><time>2026-08-31T20:34:45Z</time></trkpt><trkpt lat="59.5301758312" lon="31.2252692599"><ele>78.61</ele><time>2026-08-31T20:34:46Z</time></trkpt><trkpt lat="59.5301633421" lon="31.2252510712"><ele>78.36</ele><time>2026-08-31T20:34:47Z</time></trkpt><trkpt lat="59.5301523618" lon="31.2252431922"><ele>78.51</ele><time>2026-08-31T20:34:48Z</time></trkpt><trkpt lat="59.5300186705" lon="31.2251517456"><ele>78.04</ele><time>2026-08-31T20:35:00Z</time></trkpt><trkpt lat="59.5299553871" lon="31.2250328902"><ele>77.60</ele><time>2026-08-31T20:35:08Z</time></trkpt><trkpt lat="59.5299059339" lon="31.2249479815"><ele>77.71</ele><time>2026-08-31T20:35:14Z</time></trkpt><trkpt lat="59.5298937801" lon="31.2249344867"><ele>77.57</ele><time>2026-08-31T20:35:15Z</time></trkpt><trkpt lat="59.5297571551" lon="31.2247936707"><ele>77.17</ele><time>2026-08-31T20:35:27Z</time></trkpt><trkpt lat="59.5297424868" lon="31.2247837801"><ele>77.48</ele><time>2026-08-31T20:35:28Z</time></trkpt><trkpt lat="59.5297246333" lon="31.2247746438"><ele>77.19</ele><time>2026-08-31T20:35:29Z</time></trkpt><trkpt lat="59.5297025889" lon="31.2247654237"><ele>77.34</ele><time>2026-08-31T20:35:30Z</time></trkpt><trkpt lat="59.5296731684" lon="31.2247371767"><ele>76.93</ele><time>2026-08-31T20:35:33Z</time></trkpt><trkpt lat="59.5295671374" lon="31.2246334925"><ele>77.13</ele><time>2026-08-31T20:35:46Z</time></trkpt><trkpt lat="59.5296259783" lon="31.2247357517"><ele>76.78</ele><time>2026-08-31T20:35:57Z</time></trkpt><trkpt lat="59.5296559855" lon="31.2247564550"><ele>77.10</ele><time>2026-08-31T20:35:59Z</time></trkpt><trkpt lat="59.5296857413" lon="31.2247876357"><ele>76.59</ele><time>2026-08-31T20:36:01Z</time></trkpt><trkpt lat="59.5297036786" lon="31.2247982807"><ele>76.41</ele><time>2026-08-31T20:36:02Z</time></trkpt><trkpt lat="59.5296970569" lon="31.2248744722"><ele>76.13</ele><time>2026-08-31T20:36:16Z</time></trkpt><trkpt lat="59.5296749286" lon="31.2248051539"><ele>75.87</ele><time>2026-08-31T20:36:38Z</time></trkpt><trkpt lat="59.5295730885" lon="31.2247335725"><ele>75.44</ele><time>2026-08-31T20:36:50Z</time></trkpt><trkpt lat="59.5294259861" lon="31.2246052455"><ele>75.66</ele><time>2026-08-31T20:37:09Z</time></trkpt><trkpt lat="59.5292822365" lon="31.2245433871"><ele>75.12</ele><time>2026-08-31T20:37:24Z</time></trkpt><trkpt lat="59.5292565878" lon="31.2245448958"><ele>75.27</ele><time>2026-08-31T20:37:25Z</time></trkpt><trkpt lat="59.5291682426" lon="31.2244929280"><ele>75.48</ele><time>2026-08-31T20:37:28Z</time></trkpt><trkpt lat="59.5291409176" lon="31.2244832888"><ele>75.26</ele><time>2026-08-31T20:37:29Z</time></trkpt><trkpt lat="59.5291169453" lon="31.2244757451"><ele>75.22</ele><time>2026-08-31T20:37:30Z</time></trkpt><trkpt lat="59.5290133450" lon="31.2244436424"><ele>75.39</ele><time>2026-08-31T20:37:38Z</time></trkpt><trkpt lat="59.5289994311" lon="31.2244500965"><ele>75.17</ele><time>2026-08-31T20:37:39Z</time></trkpt><trkpt lat="59.5289480500" lon="31.2244674470"><ele>75.26</ele><time>2026-08-31T20:37:45Z</time></trkpt><trkpt lat="59.5289089903" lon="31.2244711351"><ele>75.27</ele><time>2026-08-31T20:37:48Z</time></trkpt><trkpt lat="59.5288962498" lon="31.2244835403"><ele>75.39</ele><time>2026-08-31T20:37:49Z</time></trkpt><trkpt lat="59.5288602915" lon="31.2244754937"><ele>74.90</ele><time>2026-08-31T20:37:52Z</time></trkpt><trkpt lat="59.5287741255" lon="31.2245364301"><ele>74.75</ele><time>2026-08-31T20:38:01Z</time></trkpt><trkpt lat="59.5286715310" lon="31.2245368492"><ele>74.43</ele><time>2026-08-31T20:38:12Z</time></trkpt><trkpt lat="59.5286113489" lon="31.2245360948"><ele>74.35</ele><time>2026-08-31T20:38:15Z</time></trkpt><trkpt lat="59.5285891369" lon="31.2245331611"><ele>74.25</ele><time>2026-08-31T20:38:16Z</time></trkpt><trkpt lat="59.5285683498" lon="31.2245476618"><ele>74.27</ele><time>2026-08-31T20:38:17Z</time></trkpt><trkpt lat="59.5284445491" lon="31.2246849574"><ele>74.10</ele><time>2026-08-31T20:38:30Z</time></trkpt><trkpt lat="59.5283718780" lon="31.2246158067"><ele>74.10</ele><time>2026-08-31T20:38:42Z</time></trkpt><trkpt lat="59.5283325668" lon="31.2245843746"><ele>73.82</ele><time>2026-08-31T20:38:46Z</time></trkpt><trkpt lat="59.5282145496" lon="31.2245342508"><ele>73.56</ele><time>2026-08-31T20:38:54Z</time></trkpt><trkpt lat="59.5281783398" lon="31.2245199177"><ele>69.55</ele><time>2026-08-31T20:38:56Z</time></trkpt><trkpt lat="59.5281681977" lon="31.2245047465"><ele>69.54</ele><time>2026-08-31T20:38:57Z</time></trkpt><trkpt lat="59.5281315688" lon="31.2245018966"><ele>69.47</ele><time>2026-08-31T20:39:02Z</time></trkpt><trkpt lat="59.5281200856" lon="31.2244935986"><ele>73.68</ele><time>2026-08-31T20:39:03Z</time></trkpt><trkpt lat="59.5281093568" lon="31.2244967837"><ele>73.63</ele><time>2026-08-31T20:39:04Z</time></trkpt><trkpt lat="59.5280461572" lon="31.2244630884"><ele>72.61</ele><time>2026-08-31T20:39:15Z</time></trkpt><trkpt lat="59.5280033257" lon="31.2244021520"><ele>72.28</ele><time>2026-08-31T20:39:26Z</time></trkpt><trkpt lat="59.5279369410" lon="31.2243468314"><ele>72.13</ele><time>2026-08-31T20:39:38Z</time></trkpt><trkpt lat="59.5278621744" lon="31.2242492661"><ele>71.70</ele><time>2026-08-31T20:39:51Z</time></trkpt><trkpt lat="59.5277914312" lon="31.2241723202"><ele>71.97</ele><time>2026-08-31T20:40:03Z</time></trkpt><trkpt lat="59.5277936943" lon="31.2240160815"><ele>71.53</ele><time>2026-08-31T20:40:15Z</time></trkpt><trkpt lat="59.5277931914" lon="31.2240088731"><ele>71.53</ele><time>2026-08-31T20:40:16Z</time></trkpt><trkpt lat="59.5277732424" lon="31.2238769419"><ele>71.14</ele><time>2026-08-31T20:40:28Z</time></trkpt><trkpt lat="59.5277829655" lon="31.2237908598"><ele>71.18</ele><time>2026-08-31T20:40:33Z</time></trkpt><trkpt lat="59.5277958736" lon="31.2235758640"><ele>71.20</ele><time>2026-08-31T20:40:46Z</time></trkpt><trkpt lat="59.5277987234" lon="31.2235367205"><ele>71.07</ele><time>2026-08-31T20:40:47Z</time></trkpt><trkpt lat="59.5278002322" lon="31.2235154305"><ele>71.02</ele><time>2026-08-31T20:40:48Z</time></trkpt><trkpt lat="59.5277921855" lon="31.2234839983"><ele>71.11</ele><time>2026-08-31T20:40:53Z</time></trkpt><trkpt lat="59.5277740806" lon="31.2234612834"><ele>71.07</ele><time>2026-08-31T20:40:54Z</time></trkpt><trkpt lat="59.5277674589" lon="31.2234308571"><ele>70.95</ele><time>2026-08-31T20:40:55Z</time></trkpt><trkpt lat="59.5277491864" lon="31.2233287655"><ele>70.91</ele><time>2026-08-31T20:41:06Z</time></trkpt><trkpt lat="59.5277533773" lon="31.2233365607"><ele>70.39</ele><time>2026-08-31T20:41:24Z</time></trkpt><trkpt lat="59.5277352724" lon="31.2231271807"><ele>70.60</ele><time>2026-08-31T20:41:41Z</time></trkpt><trkpt lat="59.5277214423" lon="31.2229032163"><ele>70.48</ele><time>2026-08-31T20:41:54Z</time></trkpt><trkpt lat="59.5276982244" lon="31.2229400966"><ele>70.61</ele><time>2026-08-31T20:42:06Z</time></trkpt><trkpt lat="59.5276672952" lon="31.2227879651"><ele>70.17</ele><time>2026-08-31T20:42:20Z</time></trkpt><trkpt lat="59.5276456699" lon="31.2225673534"><ele>70.66</ele><time>2026-08-31T20:42:37Z</time></trkpt><trkpt lat="59.5276186801" lon="31.2223047484"><ele>71.29</ele><time>2026-08-31T20:42:51Z</time></trkpt><trkpt lat="59.5275969710" lon="31.2221448217"><ele>71.32</ele><time>2026-08-31T20:42:59Z</time></trkpt><trkpt lat="59.5275547262" lon="31.2220136449"><ele>70.94</ele><time>2026-08-31T20:43:11Z</time></trkpt><trkpt lat="59.5275189355" lon="31.2217834778"><ele>72.02</ele><time>2026-08-31T20:43:24Z</time></trkpt><trkpt lat="59.5275287423" lon="31.2217376288"><ele>71.82</ele><time>2026-08-31T20:43:26Z</time></trkpt><trkpt lat="59.5275302511" lon="31.2215502933"><ele>71.55</ele><time>2026-08-31T20:43:34Z</time></trkpt><trkpt lat="59.5275176782" lon="31.2214058731"><ele>71.18</ele><time>2026-08-31T20:43:40Z</time></trkpt><trkpt lat="59.5275057759" lon="31.2211756222"><ele>70.94</ele><time>2026-08-31T20:43:54Z</time></trkpt><trkpt lat="59.5274710748" lon="31.2209653202"><ele>70.81</ele><time>2026-08-31T20:44:08Z</time></trkpt><trkpt lat="59.5274612680" lon="31.2208085787"><ele>70.62</ele><time>2026-08-31T20:44:24Z</time></trkpt><trkpt lat="59.5274843182" lon="31.2206307985"><ele>70.50</ele><time>2026-08-31T20:44:40Z</time></trkpt><trkpt lat="59.5274733379" lon="31.2205140386"><ele>70.33</ele><time>2026-08-31T20:44:48Z</time></trkpt><trkpt lat="59.5274426602" lon="31.2204173952"><ele>70.54</ele><time>2026-08-31T20:44:54Z</time></trkpt><trkpt lat="59.5274015889" lon="31.2202911638"><ele>71.01</ele><time>2026-08-31T20:45:02Z</time></trkpt><trkpt lat="59.5273724198" lon="31.2200643495"><ele>71.37</ele><time>2026-08-31T20:45:19Z</time></trkpt><trkpt lat="59.5273560751" lon="31.2200007308"><ele>71.56</ele><time>2026-08-31T20:45:25Z</time></trkpt><trkpt lat="59.5273282472" lon="31.2198374514"><ele>71.21</ele><time>2026-08-31T20:45:37Z</time></trkpt><trkpt lat="59.5273188595" lon="31.2197861541"><ele>71.25</ele><time>2026-08-31T20:45:40Z</time></trkpt><trkpt lat="59.5273177698" lon="31.2197337672"><ele>71.14</ele><time>2026-08-31T20:45:43Z</time></trkpt><trkpt lat="59.5273147523" lon="31.2196710706"><ele>71.17</ele><time>2026-08-31T20:45:46Z</time></trkpt><trkpt lat="59.5273119863" lon="31.2195738405"><ele>71.14</ele><time>2026-08-31T20:45:51Z</time></trkpt><trkpt lat="59.5273282472" lon="31.2194416579"><ele>70.14</ele><time>2026-08-31T20:45:59Z</time></trkpt><trkpt lat="59.5272776205" lon="31.2191339582"><ele>70.26</ele><time>2026-08-31T20:46:13Z</time></trkpt><trkpt lat="59.5272670593" lon="31.2190628797"><ele>70.18</ele><time>2026-08-31T20:46:17Z</time></trkpt><trkpt lat="59.5272019319" lon="31.2188618816"><ele>69.85</ele><time>2026-08-31T20:46:27Z</time></trkpt><trkpt lat="59.5271219686" lon="31.2186418567"><ele>68.52</ele><time>2026-08-31T20:46:39Z</time></trkpt><trkpt lat="59.5271209627" lon="31.2186314631"><ele>68.35</ele><time>2026-08-31T20:46:40Z</time></trkpt><trkpt lat="59.5271055400" lon="31.2185834348"><ele>68.18</ele><time>2026-08-31T20:46:42Z</time></trkpt><trkpt lat="59.5270276722" lon="31.2184283696"><ele>68.03</ele><time>2026-08-31T20:46:52Z</time></trkpt><trkpt lat="59.5270038676" lon="31.2183788326"><ele>67.84</ele><time>2026-08-31T20:46:54Z</time></trkpt><trkpt lat="59.5268692542" lon="31.2182035670"><ele>67.50</ele><time>2026-08-31T20:47:09Z</time></trkpt><trkpt lat="59.5268497244" lon="31.2181583885"><ele>66.33</ele><time>2026-08-31T20:48:00Z</time></trkpt><trkpt lat="59.5268050488" lon="31.2180652656"><ele>66.34</ele><time>2026-08-31T20:48:08Z</time></trkpt><trkpt lat="59.5267466269" lon="31.2179720588"><ele>66.15</ele><time>2026-08-31T20:48:16Z</time></trkpt><trkpt lat="59.5267446991" lon="31.2179459911"><ele>65.73</ele><time>2026-08-31T20:48:18Z</time></trkpt><trkpt lat="59.5266940724" lon="31.2177889980"><ele>66.73</ele><time>2026-08-31T20:48:30Z</time></trkpt><trkpt lat="59.5266877860" lon="31.2177605834"><ele>66.55</ele><time>2026-08-31T20:48:32Z</time></trkpt><trkpt lat="59.5266596228" lon="31.2176654488"><ele>66.86</ele><time>2026-08-31T20:48:37Z</time></trkpt><trkpt lat="59.5266303699" lon="31.2175371218"><ele>67.05</ele><time>2026-08-31T20:48:43Z</time></trkpt><trkpt lat="59.5266088285" lon="31.2174816336"><ele>67.04</ele><time>2026-08-31T20:48:47Z</time></trkpt><trkpt lat="59.5265122689" lon="31.2172117364"><ele>66.85</ele><time>2026-08-31T20:49:02Z</time></trkpt><trkpt lat="59.5264525898" lon="31.2171611935"><ele>66.85</ele><time>2026-08-31T20:49:06Z</time></trkpt><trkpt lat="59.5264277793" lon="31.2171642948"><ele>66.72</ele><time>2026-08-31T20:49:07Z</time></trkpt><trkpt lat="59.5264174696" lon="31.2171284202"><ele>66.80</ele><time>2026-08-31T20:49:10Z</time></trkpt><trkpt lat="59.5264194813" lon="31.2170547433"><ele>66.70</ele><time>2026-08-31T20:49:13Z</time></trkpt><trkpt lat="59.5264148712" lon="31.2170395721"><ele>66.78</ele><time>2026-08-31T20:49:14Z</time></trkpt><trkpt lat="59.5264068246" lon="31.2170009315"><ele>66.74</ele><time>2026-08-31T20:49:16Z</time></trkpt><trkpt lat="59.5263736323" lon="31.2167202216"><ele>66.90</ele><time>2026-08-31T20:49:29Z</time></trkpt><trkpt lat="59.5263718721" lon="31.2164814211"><ele>67.00</ele><time>2026-08-31T20:49:40Z</time></trkpt><trkpt lat="59.5263801701" lon="31.2163028866"><ele>66.82</ele><time>2026-08-31T20:49:49Z</time></trkpt><trkpt lat="59.5263943356" lon="31.2161748949"><ele>67.01</ele><time>2026-08-31T20:49:54Z</time></trkpt><trkpt lat="59.5264136977" lon="31.2160345819"><ele>66.43</ele><time>2026-08-31T20:50:02Z</time></trkpt><trkpt lat="59.5264172181" lon="31.2160111964"><ele>66.55</ele><time>2026-08-31T20:50:03Z</time></trkpt><trkpt lat="59.5264205709" lon="31.2159699574"><ele>66.46</ele><time>2026-08-31T20:50:05Z</time></trkpt><trkpt lat="59.5264250971" lon="31.2159508467"><ele>66.37</ele><time>2026-08-31T20:50:06Z</time></trkpt><trkpt lat="59.5263924915" lon="31.2158322427"><ele>66.38</ele><time>2026-08-31T20:50:13Z</time></trkpt><trkpt lat="59.5263807569" lon="31.2157881539"><ele>65.95</ele><time>2026-08-31T20:50:16Z</time></trkpt><trkpt lat="59.5263757277" lon="31.2157499325"><ele>65.99</ele><time>2026-08-31T20:50:18Z</time></trkpt><trkpt lat="59.5263716206" lon="31.2157209311"><ele>65.70</ele><time>2026-08-31T20:50:19Z</time></trkpt><trkpt lat="59.5263384283" lon="31.2155449949"><ele>65.73</ele><time>2026-08-31T20:50:30Z</time></trkpt><trkpt lat="59.5263156295" lon="31.2154547218"><ele>65.67</ele><time>2026-08-31T20:50:36Z</time></trkpt><trkpt lat="59.5263043977" lon="31.2153915223"><ele>65.93</ele><time>2026-08-31T20:50:39Z</time></trkpt><trkpt lat="59.5262996200" lon="31.2153720763"><ele>66.03</ele><time>2026-08-31T20:50:40Z</time></trkpt><trkpt lat="59.5262786653" lon="31.2153143249"><ele>66.19</ele><time>2026-08-31T20:50:44Z</time></trkpt><trkpt lat="59.5262693614" lon="31.2152698170"><ele>65.77</ele><time>2026-08-31T20:50:46Z</time></trkpt><trkpt lat="59.5262641646" lon="31.2152486946"><ele>65.77</ele><time>2026-08-31T20:50:47Z</time></trkpt><trkpt lat="59.5262513403" lon="31.2151882611"><ele>65.98</ele><time>2026-08-31T20:51:00Z</time></trkpt><trkpt lat="59.5262363367" lon="31.2153018359"><ele>65.15</ele><time>2026-08-31T20:51:17Z</time></trkpt><trkpt lat="59.5262049884" lon="31.2152939569"><ele>64.70</ele><time>2026-08-31T20:51:42Z</time></trkpt><trkpt lat="59.5261943433" lon="31.2152924482"><ele>64.43</ele><time>2026-08-31T20:52:08Z</time></trkpt><trkpt lat="59.5261912420" lon="31.2152954657"><ele>64.13</ele><time>2026-08-31T20:52:50Z</time></trkpt><trkpt lat="59.5261929184" lon="31.2153037637"><ele>63.54</ele><time>2026-08-31T20:53:21Z</time></trkpt><trkpt lat="59.5261961874" lon="31.2152948789"><ele>63.19</ele><time>2026-08-31T20:53:52Z</time></trkpt><trkpt lat="59.5262050722" lon="31.2152916938"><ele>62.67</ele><time>2026-08-31T20:54:45Z</time></trkpt><trkpt lat="59.5261971932" lon="31.2152337749"><ele>62.27</ele><time>2026-08-31T20:55:21Z</time></trkpt><trkpt lat="59.5261272881" lon="31.2152237166"><ele>61.85</ele><time>2026-08-31T20:55:35Z</time></trkpt><trkpt lat="59.5261068363" lon="31.2152215373"><ele>60.49</ele><time>2026-08-31T20:56:18Z</time></trkpt><trkpt lat="59.5260961913" lon="31.2152514607"><ele>60.99</ele><time>2026-08-31T20:56:56Z</time></trkpt><trkpt lat="59.5261096861" lon="31.2152117305"><ele>56.49</ele><time>2026-08-31T20:57:06Z</time></trkpt><trkpt lat="59.5261115301" lon="31.2152112275"><ele>62.32</ele><time>2026-08-31T20:57:07Z</time></trkpt><trkpt lat="59.5261098538" lon="31.2152104732"><ele>60.71</ele><time>2026-08-31T20:57:15Z</time></trkpt><trkpt lat="59.5260953531" lon="31.2150982395"><ele>61.36</ele><time>2026-08-31T20:57:38Z</time></trkpt><trkpt lat="59.5260636695" lon="31.2149265781"><ele>61.36</ele><time>2026-08-31T20:57:50Z</time></trkpt><trkpt lat="59.5260750689" lon="31.2149225548"><ele>61.79</ele><time>2026-08-31T20:57:55Z</time></trkpt><trkpt lat="59.5261019748" lon="31.2148880213"><ele>62.14</ele><time>2026-08-31T20:58:08Z</time></trkpt><trkpt lat="59.5261240192" lon="31.2149101496"><ele>61.14</ele><time>2026-08-31T20:58:31Z</time></trkpt><trkpt lat="59.5261604805" lon="31.2149813119"><ele>60.80</ele><time>2026-08-31T20:58:36Z</time></trkpt><trkpt lat="59.5262122806" lon="31.2151163444"><ele>61.63</ele><time>2026-08-31T20:58:47Z</time></trkpt><trkpt lat="59.5262404438" lon="31.2152332719"><ele>60.91</ele><time>2026-08-31T20:58:59Z</time></trkpt><trkpt lat="59.5262640808" lon="31.2153535523"><ele>60.71</ele><time>2026-08-31T20:59:07Z</time></trkpt><trkpt lat="59.5262796711" lon="31.2153986469"><ele>57.89</ele><time>2026-08-31T20:59:16Z</time></trkpt><trkpt lat="59.5262771565" lon="31.2153995689"><ele>59.70</ele><time>2026-08-31T20:59:18Z</time></trkpt><trkpt lat="59.5262794197" lon="31.2153961323"><ele>63.31</ele><time>2026-08-31T20:59:20Z</time></trkpt><trkpt lat="59.5262770727" lon="31.2153596710"><ele>60.22</ele><time>2026-08-31T20:59:23Z</time></trkpt><trkpt lat="59.5262715407" lon="31.2153399736"><ele>60.60</ele><time>2026-08-31T20:59:24Z</time></trkpt><trkpt lat="59.5262341574" lon="31.2152289972"><ele>59.81</ele><time>2026-08-31T20:59:29Z</time></trkpt><trkpt lat="59.5261900686" lon="31.2150704954"><ele>60.19</ele><time>2026-08-31T20:59:39Z</time></trkpt><trkpt lat="59.5261424594" lon="31.2149361335"><ele>60.12</ele><time>2026-08-31T20:59:51Z</time></trkpt><trkpt lat="59.5261158887" lon="31.2148705870"><ele>60.22</ele><time>2026-08-31T20:59:55Z</time></trkpt><trkpt lat="59.5261025615" lon="31.2148254924"><ele>60.80</ele><time>2026-08-31T20:59:57Z</time></trkpt><trkpt lat="59.5260869712" lon="31.2146992609"><ele>61.23</ele><time>2026-08-31T21:00:03Z</time></trkpt><trkpt lat="59.5261139609" lon="31.2147034518"><ele>55.11</ele><time>2026-08-31T21:00:20Z</time></trkpt><trkpt lat="59.5261121169" lon="31.2147066370"><ele>61.71</ele><time>2026-08-31T21:00:21Z</time></trkpt><trkpt lat="59.5261078421" lon="31.2147088163"><ele>60.17</ele><time>2026-08-31T21:00:27Z</time></trkpt><trkpt lat="59.5261120331" lon="31.2147160247"><ele>61.10</ele><time>2026-08-31T21:00:42Z</time></trkpt><trkpt lat="59.5260823611" lon="31.2145961635"><ele>60.28</ele><time>2026-08-31T21:01:01Z</time></trkpt><trkpt lat="59.5260722190" lon="31.2145606242"><ele>60.17</ele><time>2026-08-31T21:01:03Z</time></trkpt><trkpt lat="59.5260662679" lon="31.2145386636"><ele>59.95</ele><time>2026-08-31T21:01:04Z</time></trkpt><trkpt lat="59.5260185748" lon="31.2144349795"><ele>59.92</ele><time>2026-08-31T21:01:17Z</time></trkpt><trkpt lat="59.5260138810" lon="31.2143382523"><ele>60.23</ele><time>2026-08-31T21:01:26Z</time></trkpt><trkpt lat="59.5259797666" lon="31.2142500747"><ele>60.33</ele><time>2026-08-31T21:01:31Z</time></trkpt><trkpt lat="59.5258842967" lon="31.2140709534"><ele>59.97</ele><time>2026-08-31T21:01:43Z</time></trkpt><trkpt lat="59.5258671977" lon="31.2140293792"><ele>60.40</ele><time>2026-08-31T21:01:46Z</time></trkpt><trkpt lat="59.5258382801" lon="31.2139676884"><ele>60.32</ele><time>2026-08-31T21:01:50Z</time></trkpt><trkpt lat="59.5258304849" lon="31.2139517628"><ele>60.31</ele><time>2026-08-31T21:01:51Z</time></trkpt><trkpt lat="59.5258213487" lon="31.2139237672"><ele>60.18</ele><time>2026-08-31T21:01:52Z</time></trkpt><trkpt lat="59.5257736556" lon="31.2137711328"><ele>59.97</ele><time>2026-08-31T21:02:01Z</time></trkpt><trkpt lat="59.5257045887" lon="31.2135708891"><ele>60.07</ele><time>2026-08-31T21:02:13Z</time></trkpt><trkpt lat="59.5256758388" lon="31.2134954520"><ele>59.72</ele><time>2026-08-31T21:02:18Z</time></trkpt><trkpt lat="59.5256600808" lon="31.2134355213"><ele>59.33</ele><time>2026-08-31T21:02:21Z</time></trkpt><trkpt lat="59.5256479271" lon="31.2134060171"><ele>59.39</ele><time>2026-08-31T21:02:23Z</time></trkpt><trkpt lat="59.5256398804" lon="31.2133817933"><ele>59.40</ele><time>2026-08-31T21:02:24Z</time></trkpt><trkpt lat="59.5256264694" lon="31.2133386265"><ele>59.34</ele><time>2026-08-31T21:02:26Z</time></trkpt><trkpt lat="59.5255953725" lon="31.2132600881"><ele>59.47</ele><time>2026-08-31T21:02:32Z</time></trkpt><trkpt lat="59.5255880803" lon="31.2132445816"><ele>59.11</ele><time>2026-08-31T21:02:33Z</time></trkpt><trkpt lat="59.5255732443" lon="31.2132103834"><ele>59.10</ele><time>2026-08-31T21:02:35Z</time></trkpt><trkpt lat="59.5254962984" lon="31.2130003329"><ele>58.85</ele><time>2026-08-31T21:02:48Z</time></trkpt><trkpt lat="59.5254338533" lon="31.2128835730"><ele>58.73</ele><time>2026-08-31T21:02:56Z</time></trkpt><trkpt lat="59.5254254714" lon="31.2128599361"><ele>58.88</ele><time>2026-08-31T21:02:57Z</time></trkpt><trkpt lat="59.5253952965" lon="31.2127994187"><ele>59.07</ele><time>2026-08-31T21:03:01Z</time></trkpt><trkpt lat="59.5253469329" lon="31.2127150968"><ele>59.42</ele><time>2026-08-31T21:03:08Z</time></trkpt><trkpt lat="59.5253356174" lon="31.2127020210"><ele>58.99</ele><time>2026-08-31T21:03:09Z</time></trkpt><trkpt lat="59.5252907742" lon="31.2126240693"><ele>58.63</ele><time>2026-08-31T21:03:16Z</time></trkpt><trkpt lat="59.5252819732" lon="31.2126083951"><ele>58.39</ele><time>2026-08-31T21:03:17Z</time></trkpt><trkpt lat="59.5252721664" lon="31.2125925533"><ele>58.76</ele><time>2026-08-31T21:03:18Z</time></trkpt><trkpt lat="59.5252175163" lon="31.2124902941"><ele>58.16</ele><time>2026-08-31T21:03:27Z</time></trkpt><trkpt lat="59.5250944700" lon="31.2123050541"><ele>58.07</ele><time>2026-08-31T21:03:41Z</time></trkpt><trkpt lat="59.5250165183" lon="31.2122211512"><ele>57.29</ele><time>2026-08-31T21:03:52Z</time></trkpt><trkpt lat="59.5249732677" lon="31.2121691834"><ele>58.83</ele><time>2026-08-31T21:03:57Z</time></trkpt><trkpt lat="59.5249618683" lon="31.2121481448"><ele>58.39</ele><time>2026-08-31T21:03:58Z</time></trkpt><trkpt lat="59.5249487925" lon="31.2121418584"><ele>58.03</ele><time>2026-08-31T21:03:59Z</time></trkpt><trkpt lat="59.5248362236" lon="31.2121152878"><ele>58.44</ele><time>2026-08-31T21:04:12Z</time></trkpt><trkpt lat="59.5247568469" lon="31.2121758889"><ele>58.16</ele><time>2026-08-31T21:04:20Z</time></trkpt><trkpt lat="59.5246807393" lon="31.2122179661"><ele>57.89</ele><time>2026-08-31T21:04:24Z</time></trkpt><trkpt lat="59.5246395841" lon="31.2122420222"><ele>57.98</ele><time>2026-08-31T21:04:26Z</time></trkpt><trkpt lat="59.5246162824" lon="31.2122753821"><ele>57.85</ele><time>2026-08-31T21:04:28Z</time></trkpt><trkpt lat="59.5245808270" lon="31.2123261765"><ele>57.76</ele><time>2026-08-31T21:04:32Z</time></trkpt><trkpt lat="59.5244738739" lon="31.2124899589"><ele>57.83</ele><time>2026-08-31T21:04:43Z</time></trkpt><trkpt lat="59.5245151967" lon="31.2126066349"><ele>57.54</ele><time>2026-08-31T21:04:55Z</time></trkpt><trkpt lat="59.5244695991" lon="31.2126868498"><ele>57.53</ele><time>2026-08-31T21:05:02Z</time></trkpt><trkpt lat="59.5244626421" lon="31.2127025239"><ele>57.45</ele><time>2026-08-31T21:05:03Z</time></trkpt><trkpt lat="59.5244510751" lon="31.2127131689"><ele>56.68</ele><time>2026-08-31T21:05:04Z</time></trkpt><trkpt lat="59.5243590418" lon="31.2128166854"><ele>57.17</ele><time>2026-08-31T21:05:17Z</time></trkpt><trkpt lat="59.5243109297" lon="31.2128324434"><ele>57.25</ele><time>2026-08-31T21:05:22Z</time></trkpt><trkpt lat="59.5242684335" lon="31.2128079683"><ele>57.14</ele><time>2026-08-31T21:05:34Z</time></trkpt><trkpt lat="59.5241733827" lon="31.2128148414"><ele>56.70</ele><time>2026-08-31T21:05:47Z</time></trkpt><trkpt lat="59.5240568742" lon="31.2128232233"><ele>56.32</ele><time>2026-08-31T21:06:00Z</time></trkpt><trkpt lat="59.5239493344" lon="31.2127309386"><ele>56.31</ele><time>2026-08-31T21:06:13Z</time></trkpt><trkpt lat="59.5238677785" lon="31.2125933915"><ele>56.86</ele><time>2026-08-31T21:06:26Z</time></trkpt><trkpt lat="59.5238587260" lon="31.2125784718"><ele>56.86</ele><time>2026-08-31T21:06:27Z</time></trkpt><trkpt lat="59.5238230191" lon="31.2124838401"><ele>57.26</ele><time>2026-08-31T21:06:33Z</time></trkpt><trkpt lat="59.5238141343" lon="31.2124153599"><ele>57.07</ele><time>2026-08-31T21:06:37Z</time></trkpt><trkpt lat="59.5238020644" lon="31.2123458739"><ele>56.99</ele><time>2026-08-31T21:06:41Z</time></trkpt><trkpt lat="59.5238026511" lon="31.2123235781"><ele>57.15</ele><time>2026-08-31T21:06:42Z</time></trkpt><trkpt lat="59.5237954427" lon="31.2122506555"><ele>57.32</ele><time>2026-08-31T21:06:46Z</time></trkpt><trkpt lat="59.5238172356" lon="31.2121961731"><ele>57.37</ele><time>2026-08-31T21:06:58Z</time></trkpt><trkpt lat="59.5239126217" lon="31.2122166250"><ele>57.34</ele><time>2026-08-31T21:07:10Z</time></trkpt><trkpt lat="59.5239368454" lon="31.2122378312"><ele>57.08</ele><time>2026-08-31T21:07:13Z</time></trkpt><trkpt lat="59.5240134560" lon="31.2122658268"><ele>55.69</ele><time>2026-08-31T21:07:24Z</time></trkpt><trkpt lat="59.5240865462" lon="31.2122287787"><ele>53.61</ele><time>2026-08-31T21:07:54Z</time></trkpt><trkpt lat="59.5240863785" lon="31.2122333888"><ele>55.58</ele><time>2026-08-31T21:07:57Z</time></trkpt><trkpt lat="59.5241106860" lon="31.2121851929"><ele>55.22</ele><time>2026-08-31T21:08:26Z</time></trkpt><trkpt lat="59.5241143741" lon="31.2122200616"><ele>56.36</ele><time>2026-08-31T21:08:55Z</time></trkpt><trkpt lat="59.5240959339" lon="31.2120561954"><ele>54.73</ele><time>2026-08-31T21:09:23Z</time></trkpt><trkpt lat="59.5241054893" lon="31.2121529225"><ele>54.73</ele><time>2026-08-31T21:09:57Z</time></trkpt><trkpt lat="59.5241203252" lon="31.2121558562"><ele>52.47</ele><time>2026-08-31T21:10:01Z</time></trkpt><trkpt lat="59.5241488237" lon="31.2121582869"><ele>54.80</ele><time>2026-08-31T21:10:10Z</time></trkpt><trkpt lat="59.5241818484" lon="31.2121580355"><ele>54.89</ele><time>2026-08-31T21:10:34Z</time></trkpt><trkpt lat="59.5241703652" lon="31.2121483963"><ele>54.49</ele><time>2026-08-31T21:11:12Z</time></trkpt><trkpt lat="59.5241638273" lon="31.2121442892"><ele>54.20</ele><time>2026-08-31T21:11:46Z</time></trkpt><trkpt lat="59.5241458900" lon="31.2121448759"><ele>53.40</ele><time>2026-08-31T21:12:34Z</time></trkpt><trkpt lat="59.5241534337" lon="31.2121491507"><ele>53.94</ele><time>2026-08-31T21:12:52Z</time></trkpt><trkpt lat="59.5241649169" lon="31.2120306306"><ele>53.41</ele><time>2026-08-31T21:13:05Z</time></trkpt><trkpt lat="59.5241993666" lon="31.2118251901"><ele>53.68</ele><time>2026-08-31T21:13:21Z</time></trkpt><trkpt lat="59.5242114365" lon="31.2116456497"><ele>53.75</ele><time>2026-08-31T21:13:39Z</time></trkpt><trkpt lat="59.5242799167" lon="31.2114204280"><ele>53.63</ele><time>2026-08-31T21:14:01Z</time></trkpt><trkpt lat="59.5243248437" lon="31.2113212701"><ele>48.03</ele><time>2026-08-31T21:14:11Z</time></trkpt><trkpt lat="59.5243256819" lon="31.2113188393"><ele>48.03</ele><time>2026-08-31T21:14:12Z</time></trkpt><trkpt lat="59.5243357401" lon="31.2112961244"><ele>53.97</ele><time>2026-08-31T21:14:19Z</time></trkpt><trkpt lat="59.5243370812" lon="31.2112905923"><ele>53.46</ele><time>2026-08-31T21:14:20Z</time></trkpt><trkpt lat="59.5244143624" lon="31.2112055998"><ele>53.13</ele><time>2026-08-31T21:14:41Z</time></trkpt><trkpt lat="59.5245308708" lon="31.2108874228"><ele>53.81</ele><time>2026-08-31T21:15:10Z</time></trkpt><trkpt lat="59.5245287754" lon="31.2108410709"><ele>53.62</ele><time>2026-08-31T21:15:41Z</time></trkpt><trkpt lat="59.5245359838" lon="31.2106956448"><ele>53.50</ele><time>2026-08-31T21:15:55Z</time></trkpt><trkpt lat="59.5245489758" lon="31.2105443515"><ele>53.74</ele><time>2026-08-31T21:16:07Z</time></trkpt><trkpt lat="59.5245996863" lon="31.2104007695"><ele>53.51</ele><time>2026-08-31T21:16:21Z</time></trkpt><trkpt lat="59.5245145261" lon="31.2102665752"><ele>53.55</ele><time>2026-08-31T21:16:34Z</time></trkpt><trkpt lat="59.5245092455" lon="31.2100756355"><ele>53.48</ele><time>2026-08-31T21:16:50Z</time></trkpt><trkpt lat="59.5245743729" lon="31.2099610548"><ele>53.82</ele><time>2026-08-31T21:17:09Z</time></trkpt><trkpt lat="59.5245705172" lon="31.2097035628"><ele>53.66</ele><time>2026-08-31T21:17:27Z</time></trkpt><trkpt lat="59.5245438628" lon="31.2094410416"><ele>53.45</ele><time>2026-08-31T21:17:48Z</time></trkpt><trkpt lat="59.5244909730" lon="31.2092301529"><ele>53.52</ele><time>2026-08-31T21:18:06Z</time></trkpt><trkpt lat="59.5244402625" lon="31.2091619242"><ele>53.69</ele><time>2026-08-31T21:18:21Z</time></trkpt><trkpt lat="59.5244711917" lon="31.2091550510"><ele>52.81</ele><time>2026-08-31T21:18:35Z</time></trkpt><trkpt lat="59.5244474709" lon="31.2090931926"><ele>53.76</ele><time>2026-08-31T21:19:04Z</time></trkpt><trkpt lat="59.5244326349" lon="31.2090801168"><ele>53.57</ele><time>2026-08-31T21:19:23Z</time></trkpt><trkpt lat="59.5244358201" lon="31.2091111299"><ele>53.56</ele><time>2026-08-31T21:19:46Z</time></trkpt><trkpt lat="59.5244148653" lon="31.2091548834"><ele>53.58</ele><time>2026-08-31T21:20:12Z</time></trkpt><trkpt lat="59.5243962575" lon="31.2090815417"><ele>53.43</ele><time>2026-08-31T21:20:29Z</time></trkpt><trkpt lat="59.5244253427" lon="31.2090380397"><ele>53.30</ele><time>2026-08-31T21:21:05Z</time></trkpt><trkpt lat="59.5244202297" lon="31.2091044243"><ele>53.26</ele><time>2026-08-31T21:21:41Z</time></trkpt><trkpt lat="59.5243888814" lon="31.2090561446"><ele>51.47</ele><time>2026-08-31T21:22:13Z</time></trkpt><trkpt lat="59.5243941620" lon="31.2090433203"><ele>53.22</ele><time>2026-08-31T21:22:30Z</time></trkpt><trkpt lat="59.5243682619" lon="31.2090068590"><ele>52.82</ele><time>2026-08-31T21:22:59Z</time></trkpt><trkpt lat="59.5243275259" lon="31.2089029234"><ele>52.75</ele><time>2026-08-31T21:23:11Z</time></trkpt><trkpt lat="59.5243359078" lon="31.2086509634"><ele>52.78</ele><time>2026-08-31T21:23:27Z</time></trkpt><trkpt lat="59.5243043918" lon="31.2084902823"><ele>53.06</ele><time>2026-08-31T21:23:42Z</time></trkpt><trkpt lat="59.5243063197" lon="31.2084865943"><ele>51.87</ele><time>2026-08-31T21:24:06Z</time></trkpt><trkpt lat="59.5242733788" lon="31.2084646337"><ele>52.80</ele><time>2026-08-31T21:24:36Z</time></trkpt><trkpt lat="59.5242394321" lon="31.2083343789"><ele>52.63</ele><time>2026-08-31T21:25:00Z</time></trkpt><trkpt lat="59.5242155436" lon="31.2082148530"><ele>52.79</ele><time>2026-08-31T21:25:09Z</time></trkpt><trkpt lat="59.5241796691" lon="31.2079955824"><ele>52.57</ele><time>2026-08-31T21:25:22Z</time></trkpt><trkpt lat="59.5241460577" lon="31.2078695185"><ele>52.67</ele><time>2026-08-31T21:25:34Z</time></trkpt><trkpt lat="59.5241704490" lon="31.2077043951"><ele>52.69</ele><time>2026-08-31T21:25:45Z</time></trkpt><trkpt lat="59.5241210796" lon="31.2075460609"><ele>52.78</ele><time>2026-08-31T21:26:00Z</time></trkpt><trkpt lat="59.5240655076" lon="31.2074280437"><ele>52.29</ele><time>2026-08-31T21:26:13Z</time></trkpt><trkpt lat="59.5240405295" lon="31.2072412949"><ele>52.43</ele><time>2026-08-31T21:26:25Z</time></trkpt><trkpt lat="59.5241121948" lon="31.2071953621"><ele>52.44</ele><time>2026-08-31T21:26:40Z</time></trkpt><trkpt lat="59.5241190679" lon="31.2071318273"><ele>52.57</ele><time>2026-08-31T21:26:53Z</time></trkpt><trkpt lat="59.5241019689" lon="31.2070623413"><ele>52.30</ele><time>2026-08-31T21:27:09Z</time></trkpt><trkpt lat="59.5240988676" lon="31.2070223596"><ele>48.16</ele><time>2026-08-31T21:27:20Z</time></trkpt><trkpt lat="59.5240983646" lon="31.2070187554"><ele>48.16</ele><time>2026-08-31T21:27:21Z</time></trkpt><trkpt lat="59.5240906533" lon="31.2070023268"><ele>53.29</ele><time>2026-08-31T21:27:31Z</time></trkpt><trkpt lat="59.5240926649" lon="31.2069781870"><ele>52.72</ele><time>2026-08-31T21:27:32Z</time></trkpt><trkpt lat="59.5241552778" lon="31.2068854831"><ele>52.35</ele><time>2026-08-31T21:27:41Z</time></trkpt><trkpt lat="59.5241804235" lon="31.2069237884"><ele>51.81</ele><time>2026-08-31T21:27:44Z</time></trkpt><trkpt lat="59.5242411923" lon="31.2069781031"><ele>51.98</ele><time>2026-08-31T21:27:59Z</time></trkpt><trkpt lat="59.5243164618" lon="31.2068424840"><ele>52.12</ele><time>2026-08-31T21:28:16Z</time></trkpt><trkpt lat="59.5243569463" lon="31.2065866683"><ele>46.94</ele><time>2026-08-31T21:28:34Z</time></trkpt><trkpt lat="59.5243609697" lon="31.2065616902"><ele>54.02</ele><time>2026-08-31T21:28:35Z</time></trkpt><trkpt lat="59.5243658312" lon="31.2065489497"><ele>54.02</ele><time>2026-08-31T21:28:36Z</time></trkpt><trkpt lat="59.5243858639" lon="31.2064489536"><ele>51.76</ele><time>2026-08-31T21:28:44Z</time></trkpt><trkpt lat="59.5243693516" lon="31.2063410785"><ele>53.44</ele><time>2026-08-31T21:29:00Z</time></trkpt><trkpt lat="59.5243660826" lon="31.2063532323"><ele>52.30</ele><time>2026-08-31T21:29:01Z</time></trkpt><trkpt lat="59.5243631490" lon="31.2063498795"><ele>48.47</ele><time>2026-08-31T21:29:02Z</time></trkpt><trkpt lat="59.5243625622" lon="31.2063505501"><ele>48.47</ele><time>2026-08-31T21:29:03Z</time></trkpt><trkpt lat="59.5243417751" lon="31.2063325290"><ele>52.03</ele><time>2026-08-31T21:29:08Z</time></trkpt><trkpt lat="59.5242367499" lon="31.2062736880"><ele>51.92</ele><time>2026-08-31T21:29:21Z</time></trkpt><trkpt lat="59.5241947565" lon="31.2062195409"><ele>51.88</ele><time>2026-08-31T21:29:48Z</time></trkpt><trkpt lat="59.5241996180" lon="31.2062015198"><ele>51.82</ele><time>2026-08-31T21:30:20Z</time></trkpt><trkpt lat="59.5242234226" lon="31.2061881926"><ele>51.59</ele><time>2026-08-31T21:30:51Z</time></trkpt><trkpt lat="59.5242205728" lon="31.2061913777"><ele>51.48</ele><time>2026-08-31T21:31:27Z</time></trkpt><trkpt lat="59.5242228359" lon="31.2062101532"><ele>51.00</ele><time>2026-08-31T21:32:00Z</time></trkpt><trkpt lat="59.5242304634" lon="31.2062210497"><ele>45.83</ele><time>2026-08-31T21:32:18Z</time></trkpt><trkpt lat="59.5242298767" lon="31.2062220555"><ele>45.82</ele><time>2026-08-31T21:32:19Z</time></trkpt><trkpt lat="59.5242203213" lon="31.2062413339"><ele>51.62</ele><time>2026-08-31T21:32:38Z</time></trkpt><trkpt lat="59.5242201537" lon="31.2062428426"><ele>51.41</ele><time>2026-08-31T21:32:39Z</time></trkpt><trkpt lat="59.5241874643" lon="31.2062800582"><ele>51.04</ele><time>2026-08-31T21:32:52Z</time></trkpt><trkpt lat="59.5241256896" lon="31.2062913738"><ele>51.19</ele><time>2026-08-31T21:33:07Z</time></trkpt><trkpt lat="59.5241029747" lon="31.2063009292"><ele>51.28</ele><time>2026-08-31T21:33:10Z</time></trkpt><trkpt lat="59.5240343269" lon="31.2063107360"><ele>51.54</ele><time>2026-08-31T21:33:20Z</time></trkpt><trkpt lat="59.5239512622" lon="31.2063426711"><ele>51.69</ele><time>2026-08-31T21:33:32Z</time></trkpt><trkpt lat="59.5238502603" lon="31.2064139172"><ele>51.43</ele><time>2026-08-31T21:33:50Z</time></trkpt><trkpt lat="59.5237570535" lon="31.2064813916"><ele>51.28</ele><time>2026-08-31T21:34:02Z</time></trkpt><trkpt lat="59.5237494260" lon="31.2065322697"><ele>50.95</ele><time>2026-08-31T21:34:20Z</time></trkpt><trkpt lat="59.5237515215" lon="31.2065369636"><ele>51.07</ele><time>2026-08-31T21:34:51Z</time></trkpt><trkpt lat="59.5237904973" lon="31.2063161843"><ele>50.89</ele><time>2026-08-31T21:35:05Z</time></trkpt><trkpt lat="59.5237505157" lon="31.2061359733"><ele>51.25</ele><time>2026-08-31T21:35:18Z</time></trkpt><trkpt lat="59.5237074327" lon="31.2059316225"><ele>51.27</ele><time>2026-08-31T21:35:32Z</time></trkpt><trkpt lat="59.5237178262" lon="31.2058029603"><ele>51.01</ele><time>2026-08-31T21:35:42Z</time></trkpt><trkpt lat="59.5236933511" lon="31.2057596259"><ele>51.25</ele><time>2026-08-31T21:35:46Z</time></trkpt><trkpt lat="59.5237359311" lon="31.2056823447"><ele>51.26</ele><time>2026-08-31T21:35:55Z</time></trkpt><trkpt lat="59.5237480849" lon="31.2055192329"><ele>51.25</ele><time>2026-08-31T21:36:08Z</time></trkpt><trkpt lat="59.5237560477" lon="31.2053440511"><ele>50.91</ele><time>2026-08-31T21:36:20Z</time></trkpt><trkpt lat="59.5238066744" lon="31.2052194960"><ele>51.03</ele><time>2026-08-31T21:36:35Z</time></trkpt><trkpt lat="59.5238224324" lon="31.2050383631"><ele>50.83</ele><time>2026-08-31T21:36:50Z</time></trkpt><trkpt lat="59.5238360949" lon="31.2049834616"><ele>50.92</ele><time>2026-08-31T21:36:55Z</time></trkpt><trkpt lat="59.5238851290" lon="31.2049392890"><ele>51.14</ele><time>2026-08-31T21:37:10Z</time></trkpt><trkpt lat="59.5238486677" lon="31.2047702260"><ele>51.21</ele><time>2026-08-31T21:37:25Z</time></trkpt><trkpt lat="59.5238411240" lon="31.2047361955"><ele>51.54</ele><time>2026-08-31T21:37:37Z</time></trkpt><trkpt lat="59.5238979533" lon="31.2046254706"><ele>50.56</ele><time>2026-08-31T21:37:51Z</time></trkpt><trkpt lat="59.5239501726" lon="31.2044115644"><ele>50.84</ele><time>2026-08-31T21:38:05Z</time></trkpt><trkpt lat="59.5239083469" lon="31.2041963171"><ele>50.81</ele><time>2026-08-31T21:38:22Z</time></trkpt><trkpt lat="59.5238276292" lon="31.2039984204"><ele>50.99</ele><time>2026-08-31T21:38:36Z</time></trkpt><trkpt lat="59.5238020644" lon="31.2038693391"><ele>50.77</ele><time>2026-08-31T21:38:47Z</time></trkpt><trkpt lat="59.5237745717" lon="31.2038182095"><ele>49.25</ele><time>2026-08-31T21:38:54Z</time></trkpt><trkpt lat="59.5237706322" lon="31.2037575245"><ele>51.50</ele><time>2026-08-31T21:38:59Z</time></trkpt><trkpt lat="59.5237037446" lon="31.2036978453"><ele>50.96</ele><time>2026-08-31T21:39:13Z</time></trkpt><trkpt lat="59.5236719772" lon="31.2036328856"><ele>50.95</ele><time>2026-08-31T21:39:31Z</time></trkpt><trkpt lat="59.5236972906" lon="31.2036351487"><ele>51.16</ele><time>2026-08-31T21:40:02Z</time></trkpt><trkpt lat="59.5236946922" lon="31.2036287785"><ele>50.79</ele><time>2026-08-31T21:40:38Z</time></trkpt><trkpt lat="59.5237010624" lon="31.2036197260"><ele>50.76</ele><time>2026-08-31T21:41:15Z</time></trkpt><trkpt lat="59.5237026550" lon="31.2036159541"><ele>51.53</ele><time>2026-08-31T21:41:27Z</time></trkpt><trkpt lat="59.5237030741" lon="31.2036178820"><ele>49.59</ele><time>2026-08-31T21:41:30Z</time></trkpt><trkpt lat="59.5237025712" lon="31.2036187202"><ele>51.50</ele><time>2026-08-31T21:41:32Z</time></trkpt><trkpt lat="59.5236955304" lon="31.2036144454"><ele>46.04</ele><time>2026-08-31T21:42:12Z</time></trkpt><trkpt lat="59.5236958656" lon="31.2036124337"><ele>46.04</ele><time>2026-08-31T21:42:13Z</time></trkpt><trkpt lat="59.5237136353" lon="31.2036153674"><ele>50.82</ele><time>2026-08-31T21:42:28Z</time></trkpt><trkpt lat="59.5237133838" lon="31.2036144454"><ele>50.62</ele><time>2026-08-31T21:42:29Z</time></trkpt><trkpt lat="59.5237009786" lon="31.2035450432"><ele>50.65</ele><time>2026-08-31T21:43:06Z</time></trkpt><trkpt lat="59.5237236936" lon="31.2034002878"><ele>51.01</ele><time>2026-08-31T21:43:17Z</time></trkpt><trkpt lat="59.5237540361" lon="31.2032159697"><ele>50.61</ele><time>2026-08-31T21:43:31Z</time></trkpt><trkpt lat="59.5237729792" lon="31.2029989623"><ele>50.48</ele><time>2026-08-31T21:43:45Z</time></trkpt><trkpt lat="59.5237900782" lon="31.2028343417"><ele>50.79</ele><time>2026-08-31T21:43:56Z</time></trkpt><trkpt lat="59.5238010585" lon="31.2026383728"><ele>50.66</ele><time>2026-08-31T21:44:10Z</time></trkpt><trkpt lat="59.5237867255" lon="31.2024129834"><ele>50.66</ele><time>2026-08-31T21:44:22Z</time></trkpt><trkpt lat="59.5237944368" lon="31.2023199443"><ele>50.70</ele><time>2026-08-31T21:44:29Z</time></trkpt><trkpt lat="59.5237330813" lon="31.2021440919"><ele>49.53</ele><time>2026-08-31T21:44:44Z</time></trkpt><trkpt lat="59.5236911718" lon="31.2019383162"><ele>51.03</ele><time>2026-08-31T21:44:59Z</time></trkpt><trkpt lat="59.5236972906" lon="31.2018453609"><ele>50.76</ele><time>2026-08-31T21:45:06Z</time></trkpt><trkpt lat="59.5237141382" lon="31.2017021980"><ele>50.69</ele><time>2026-08-31T21:45:19Z</time></trkpt><trkpt lat="59.5237498451" lon="31.2015738711"><ele>50.27</ele><time>2026-08-31T21:45:31Z</time></trkpt><trkpt lat="59.5237543713" lon="31.2014283612"><ele>50.76</ele><time>2026-08-31T21:45:43Z</time></trkpt><trkpt lat="59.5237277169" lon="31.2012547720"><ele>50.78</ele><time>2026-08-31T21:45:56Z</time></trkpt><trkpt lat="59.5236866456" lon="31.2011235952"><ele>50.55</ele><time>2026-08-31T21:46:08Z</time></trkpt><trkpt lat="59.5236797724" lon="31.2010641675"><ele>50.50</ele><time>2026-08-31T21:46:11Z</time></trkpt><trkpt lat="59.5236638468" lon="31.2008855492"><ele>50.65</ele><time>2026-08-31T21:46:26Z</time></trkpt><trkpt lat="59.5236120466" lon="31.2007106189"><ele>50.61</ele><time>2026-08-31T21:46:41Z</time></trkpt><trkpt lat="59.5236435626" lon="31.2005963735"><ele>50.55</ele><time>2026-08-31T21:46:56Z</time></trkpt><trkpt lat="59.5236314926" lon="31.2004615925"><ele>50.44</ele><time>2026-08-31T21:47:09Z</time></trkpt><trkpt lat="59.5236263797" lon="31.2002947927"><ele>50.27</ele><time>2026-08-31T21:47:21Z</time></trkpt><trkpt lat="59.5236264635" lon="31.2001761887"><ele>50.88</ele><time>2026-08-31T21:47:30Z</time></trkpt><trkpt lat="59.5236202609" lon="31.2001223769"><ele>49.58</ele><time>2026-08-31T21:47:34Z</time></trkpt><trkpt lat="59.5236189198" lon="31.2001044396"><ele>53.16</ele><time>2026-08-31T21:47:39Z</time></trkpt><trkpt lat="59.5236180816" lon="31.2001024280"><ele>51.56</ele><time>2026-08-31T21:47:40Z</time></trkpt><trkpt lat="59.5236144774" lon="31.2001776975"><ele>50.03</ele><time>2026-08-31T21:47:43Z</time></trkpt><trkpt lat="59.5236418862" lon="31.2003120594"><ele>50.31</ele><time>2026-08-31T21:47:56Z</time></trkpt><trkpt lat="59.5236330852" lon="31.2002976425"><ele>50.25</ele><time>2026-08-31T21:48:33Z</time></trkpt><trkpt lat="59.5236174949" lon="31.2002866622"><ele>50.44</ele><time>2026-08-31T21:49:08Z</time></trkpt><trkpt lat="59.5236316603" lon="31.2002963852"><ele>51.25</ele><time>2026-08-31T21:49:22Z</time></trkpt><trkpt lat="59.5236230269" lon="31.2002926972"><ele>50.51</ele><time>2026-08-31T21:50:05Z</time></trkpt><trkpt lat="59.5236313250" lon="31.2002953794"><ele>50.18</ele><time>2026-08-31T21:50:47Z</time></trkpt><trkpt lat="59.5236180816" lon="31.2002613489"><ele>51.00</ele><time>2026-08-31T21:51:28Z</time></trkpt><trkpt lat="59.5236079395" lon="31.2002724968"><ele>50.34</ele><time>2026-08-31T21:52:15Z</time></trkpt><trkpt lat="59.5235914271" lon="31.2002784479"><ele>50.29</ele><time>2026-08-31T21:53:08Z</time></trkpt><trkpt lat="59.5236195903" lon="31.2003044318"><ele>50.09</ele><time>2026-08-31T21:53:30Z</time></trkpt><trkpt lat="59.5236281399" lon="31.2003008276"><ele>50.18</ele><time>2026-08-31T21:54:04Z</time></trkpt><trkpt lat="59.5236500166" lon="31.2003016658"><ele>50.02</ele><time>2026-08-31T21:55:06Z</time></trkpt><trkpt lat="59.5236286428" lon="31.2002827227"><ele>50.13</ele><time>2026-08-31T21:56:00Z</time></trkpt><trkpt lat="59.5236259606" lon="31.2002714910"><ele>46.68</ele><time>2026-08-31T21:56:05Z</time></trkpt><trkpt lat="59.5236266311" lon="31.2002715748"><ele>50.85</ele><time>2026-08-31T21:56:06Z</time></trkpt><trkpt lat="59.5236339234" lon="31.2002528831"><ele>50.25</ele><time>2026-08-31T21:56:19Z</time></trkpt><trkpt lat="59.5236052573" lon="31.2000876758"><ele>49.91</ele><time>2026-08-31T21:56:31Z</time></trkpt><trkpt lat="59.5236287266" lon="31.1998574249"><ele>50.43</ele><time>2026-08-31T21:56:45Z</time></trkpt><trkpt lat="59.5236281399" lon="31.1996642221"><ele>50.15</ele><time>2026-08-31T21:56:59Z</time></trkpt><trkpt lat="59.5236445684" lon="31.1994797364"><ele>50.23</ele><time>2026-08-31T21:57:14Z</time></trkpt><trkpt lat="59.5236496814" lon="31.1992577836"><ele>50.40</ele><time>2026-08-31T21:57:29Z</time></trkpt><trkpt lat="59.5235874876" lon="31.1991297081"><ele>50.50</ele><time>2026-08-31T21:57:44Z</time></trkpt><trkpt lat="59.5235759206" lon="31.1989780795"><ele>50.29</ele><time>2026-08-31T21:57:55Z</time></trkpt><trkpt lat="59.5235633478" lon="31.1988017242"><ele>50.28</ele><time>2026-08-31T21:58:08Z</time></trkpt><trkpt lat="59.5235589892" lon="31.1986831203"><ele>50.33</ele><time>2026-08-31T21:58:21Z</time></trkpt><trkpt lat="59.5235861465" lon="31.1984942760"><ele>50.05</ele><time>2026-08-31T21:58:40Z</time></trkpt><trkpt lat="59.5236406289" lon="31.1983964592"><ele>50.00</ele><time>2026-08-31T21:58:50Z</time></trkpt><trkpt lat="59.5236752462" lon="31.1982196849"><ele>50.09</ele><time>2026-08-31T21:59:01Z</time></trkpt><trkpt lat="59.5236600749" lon="31.1981532164"><ele>50.00</ele><time>2026-08-31T21:59:05Z</time></trkpt><trkpt lat="59.5236904174" lon="31.1979638692"><ele>49.92</ele><time>2026-08-31T21:59:17Z</time></trkpt><trkpt lat="59.5237378590" lon="31.1977905314"><ele>50.04</ele><time>2026-08-31T21:59:30Z</time></trkpt><trkpt lat="59.5237299800" lon="31.1976067163"><ele>50.32</ele><time>2026-08-31T21:59:44Z</time></trkpt><trkpt lat="59.5237061754" lon="31.1974518187"><ele>50.05</ele><time>2026-08-31T21:59:56Z</time></trkpt><trkpt lat="59.5237204246" lon="31.1973945703"><ele>48.16</ele><time>2026-08-31T22:00:07Z</time></trkpt><trkpt lat="59.5237228554" lon="31.1973834224"><ele>50.46</ele><time>2026-08-31T22:00:14Z</time></trkpt><trkpt lat="59.5237047505" lon="31.1973930616"><ele>50.10</ele><time>2026-08-31T22:00:43Z</time></trkpt><trkpt lat="59.5237006433" lon="31.1973971687"><ele>50.28</ele><time>2026-08-31T22:01:22Z</time></trkpt><trkpt lat="59.5236928482" lon="31.1973628867"><ele>49.71</ele><time>2026-08-31T22:02:06Z</time></trkpt><trkpt lat="59.5237025712" lon="31.1973700952"><ele>49.79</ele><time>2026-08-31T22:02:46Z</time></trkpt><trkpt lat="59.5236991346" lon="31.1973635573"><ele>49.49</ele><time>2026-08-31T22:03:14Z</time></trkpt><trkpt lat="59.5236853883" lon="31.1973611265"><ele>49.48</ele><time>2026-08-31T22:03:53Z</time></trkpt><trkpt lat="59.5236722287" lon="31.1973119248"><ele>49.03</ele><time>2026-08-31T22:04:17Z</time></trkpt><trkpt lat="59.5236302353" lon="31.1971285287"><ele>49.29</ele><time>2026-08-31T22:04:32Z</time></trkpt><trkpt lat="59.5236190874" lon="31.1971314624"><ele>48.84</ele><time>2026-08-31T22:04:59Z</time></trkpt><trkpt lat="59.5236137230" lon="31.1970413569"><ele>48.90</ele><time>2026-08-31T22:05:13Z</time></trkpt><trkpt lat="59.5236088615" lon="31.1969374213"><ele>49.11</ele><time>2026-08-31T22:05:30Z</time></trkpt><trkpt lat="59.5236153994" lon="31.1967398599"><ele>49.01</ele><time>2026-08-31T22:05:49Z</time></trkpt><trkpt lat="59.5235498529" lon="31.1965729762"><ele>49.11</ele><time>2026-08-31T22:06:05Z</time></trkpt><trkpt lat="59.5235382859" lon="31.1963050906"><ele>49.07</ele><time>2026-08-31T22:06:24Z</time></trkpt><trkpt lat="59.5235800277" lon="31.1961377878"><ele>48.96</ele><time>2026-08-31T22:06:37Z</time></trkpt><trkpt lat="59.5236064307" lon="31.1959778611"><ele>49.19</ele><time>2026-08-31T22:06:49Z</time></trkpt><trkpt lat="59.5236512739" lon="31.1957426649"><ele>49.05</ele><time>2026-08-31T22:07:07Z</time></trkpt><trkpt lat="59.5236628409" lon="31.1954915430"><ele>49.17</ele><time>2026-08-31T22:07:20Z</time></trkpt><trkpt lat="59.5237114560" lon="31.1953626294"><ele>49.49</ele><time>2026-08-31T22:07:32Z</time></trkpt><trkpt lat="59.5237602387" lon="31.1953129247"><ele>49.33</ele><time>2026-08-31T22:07:41Z</time></trkpt><trkpt lat="59.5237635914" lon="31.1951894592"><ele>46.68</ele><time>2026-08-31T22:07:50Z</time></trkpt><trkpt lat="59.5237615798" lon="31.1951359827"><ele>49.86</ele><time>2026-08-31T22:07:55Z</time></trkpt><trkpt lat="59.5237628371" lon="31.1951238289"><ele>49.30</ele><time>2026-08-31T22:07:56Z</time></trkpt><trkpt lat="59.5237733983" lon="31.1949106771"><ele>49.18</ele><time>2026-08-31T22:08:10Z</time></trkpt><trkpt lat="59.5238023996" lon="31.1949110962"><ele>46.67</ele><time>2026-08-31T22:08:17Z</time></trkpt><trkpt lat="59.5237947721" lon="31.1949072406"><ele>49.57</ele><time>2026-08-31T22:08:25Z</time></trkpt><trkpt lat="59.5238108654" lon="31.1948967632"><ele>48.86</ele><time>2026-08-31T22:09:00Z</time></trkpt><trkpt lat="59.5238122065" lon="31.1948773172"><ele>48.63</ele><time>2026-08-31T22:09:56Z</time></trkpt><trkpt lat="59.5238372684" lon="31.1948837712"><ele>48.48</ele><time>2026-08-31T22:10:13Z</time></trkpt><trkpt lat="59.5238200855" lon="31.1948990263"><ele>48.41</ele><time>2026-08-31T22:10:44Z</time></trkpt><trkpt lat="59.5238253661" lon="31.1949050613"><ele>48.27</ele><time>2026-08-31T22:11:17Z</time></trkpt><trkpt lat="59.5238207560" lon="31.1948739644"><ele>48.82</ele><time>2026-08-31T22:11:48Z</time></trkpt><trkpt lat="59.5238223486" lon="31.1948666722"><ele>47.36</ele><time>2026-08-31T22:11:51Z</time></trkpt><trkpt lat="59.5238245279" lon="31.1948621459"><ele>49.19</ele><time>2026-08-31T22:11:53Z</time></trkpt><trkpt lat="59.5238217618" lon="31.1948638223"><ele>49.22</ele><time>2026-08-31T22:11:58Z</time></trkpt><trkpt lat="59.5238216780" lon="31.1948651634"><ele>48.34</ele><time>2026-08-31T22:12:00Z</time></trkpt><trkpt lat="59.5238341670" lon="31.1948868725"><ele>47.96</ele><time>2026-08-31T22:12:54Z</time></trkpt><trkpt lat="59.5238723885" lon="31.1947886366"><ele>48.18</ele><time>2026-08-31T22:13:20Z</time></trkpt><trkpt lat="59.5238910802" lon="31.1945837829"><ele>48.12</ele><time>2026-08-31T22:13:36Z</time></trkpt><trkpt lat="59.5239330735" lon="31.1943871435"><ele>48.05</ele><time>2026-08-31T22:13:48Z</time></trkpt><trkpt lat="59.5239965245" lon="31.1941459961"><ele>48.00</ele><time>2026-08-31T22:14:03Z</time></trkpt><trkpt lat="59.5240249392" lon="31.1939614266"><ele>48.22</ele><time>2026-08-31T22:14:14Z</time></trkpt><trkpt lat="59.5240529347" lon="31.1937906872"><ele>48.08</ele><time>2026-08-31T22:14:25Z</time></trkpt><trkpt lat="59.5240808465" lon="31.1936661322"><ele>48.25</ele><time>2026-08-31T22:14:35Z</time></trkpt><trkpt lat="59.5241237618" lon="31.1935398169"><ele>47.99</ele><time>2026-08-31T22:14:42Z</time></trkpt><trkpt lat="59.5241563674" lon="31.1934451852"><ele>48.10</ele><time>2026-08-31T22:14:50Z</time></trkpt><trkpt lat="59.5242168009" lon="31.1932563409"><ele>48.10</ele><time>2026-08-31T22:15:05Z</time></trkpt><trkpt lat="59.5242402703" lon="31.1929896288"><ele>48.19</ele><time>2026-08-31T22:15:27Z</time></trkpt><trkpt lat="59.5242433716" lon="31.1928065680"><ele>47.96</ele><time>2026-08-31T22:16:07Z</time></trkpt><trkpt lat="59.5243153721" lon="31.1926136166"><ele>48.18</ele><time>2026-08-31T22:16:23Z</time></trkpt><trkpt lat="59.5243921503" lon="31.1924590543"><ele>48.12</ele><time>2026-08-31T22:16:35Z</time></trkpt><trkpt lat="59.5243963413" lon="31.1924431287"><ele>48.05</ele><time>2026-08-31T22:16:36Z</time></trkpt><trkpt lat="59.5244391728" lon="31.1922341678"><ele>48.24</ele><time>2026-08-31T22:16:51Z</time></trkpt><trkpt lat="59.5244748797" lon="31.1920775939"><ele>48.14</ele><time>2026-08-31T22:17:07Z</time></trkpt><trkpt lat="59.5244694315" lon="31.1920065992"><ele>43.06</ele><time>2026-08-31T22:17:13Z</time></trkpt><trkpt lat="59.5244671684" lon="31.1919979658"><ele>43.08</ele><time>2026-08-31T22:17:14Z</time></trkpt><trkpt lat="59.5244433638" lon="31.1919636838"><ele>48.33</ele><time>2026-08-31T22:17:23Z</time></trkpt><trkpt lat="59.5244354010" lon="31.1919585709"><ele>47.83</ele><time>2026-08-31T22:17:24Z</time></trkpt><trkpt lat="59.5243176352" lon="31.1919308268"><ele>48.00</ele><time>2026-08-31T22:17:36Z</time></trkpt><trkpt lat="59.5242953394" lon="31.1919600796"><ele>48.14</ele><time>2026-08-31T22:17:39Z</time></trkpt><trkpt lat="59.5242777374" lon="31.1919456627"><ele>48.01</ele><time>2026-08-31T22:17:53Z</time></trkpt><trkpt lat="59.5242882986" lon="31.1918952875"><ele>48.95</ele><time>2026-08-31T22:18:24Z</time></trkpt><trkpt lat="59.5242988598" lon="31.1918987241"><ele>45.19</ele><time>2026-08-31T22:18:39Z</time></trkpt><trkpt lat="59.5242984407" lon="31.1918990593"><ele>46.19</ele><time>2026-08-31T22:18:40Z</time></trkpt><trkpt lat="59.5242950879" lon="31.1919144820"><ele>47.54</ele><time>2026-08-31T22:18:43Z</time></trkpt><trkpt lat="59.5242951717" lon="31.1919185892"><ele>50.57</ele><time>2026-08-31T22:18:47Z</time></trkpt><trkpt lat="59.5242946688" lon="31.1919172481"><ele>49.28</ele><time>2026-08-31T22:18:48Z</time></trkpt><trkpt lat="59.5242939983" lon="31.1919103749"><ele>48.45</ele><time>2026-08-31T22:18:57Z</time></trkpt><trkpt lat="59.5242781565" lon="31.1919028312"><ele>47.47</ele><time>2026-08-31T22:19:40Z</time></trkpt><trkpt lat="59.5242819283" lon="31.1918962933"><ele>48.84</ele><time>2026-08-31T22:19:48Z</time></trkpt><trkpt lat="59.5242711995" lon="31.1919487640"><ele>47.30</ele><time>2026-08-31T22:20:11Z</time></trkpt><trkpt lat="59.5242659189" lon="31.1919670366"><ele>48.19</ele><time>2026-08-31T22:20:19Z</time></trkpt><trkpt lat="59.5243012905" lon="31.1919241212"><ele>48.58</ele><time>2026-08-31T22:20:38Z</time></trkpt><trkpt lat="59.5242826827" lon="31.1919266358"><ele>47.93</ele><time>2026-08-31T22:21:00Z</time></trkpt><trkpt lat="59.5242949203" lon="31.1918100435"><ele>48.17</ele><time>2026-08-31T22:21:21Z</time></trkpt><trkpt lat="59.5243470557" lon="31.1916313414"><ele>47.95</ele><time>2026-08-31T22:21:36Z</time></trkpt><trkpt lat="59.5243867021" lon="31.1915462650"><ele>48.25</ele><time>2026-08-31T22:21:49Z</time></trkpt><trkpt lat="59.5244393405" lon="31.1914857477"><ele>48.17</ele><time>2026-08-31T22:21:58Z</time></trkpt><trkpt lat="59.5244906377" lon="31.1914111488"><ele>48.05</ele><time>2026-08-31T22:22:10Z</time></trkpt><trkpt lat="59.5244912244" lon="31.1913958937"><ele>48.02</ele><time>2026-08-31T22:22:11Z</time></trkpt><trkpt lat="59.5245227404" lon="31.1911840830"><ele>48.09</ele><time>2026-08-31T22:22:27Z</time></trkpt><trkpt lat="59.5245262608" lon="31.1911567580"><ele>43.82</ele><time>2026-08-31T22:22:29Z</time></trkpt><trkpt lat="59.5245280210" lon="31.1911430117"><ele>47.72</ele><time>2026-08-31T22:22:30Z</time></trkpt><trkpt lat="59.5245160349" lon="31.1911234818"><ele>49.98</ele><time>2026-08-31T22:22:31Z</time></trkpt><trkpt lat="59.5245012827" lon="31.1910239886"><ele>48.09</ele><time>2026-08-31T22:22:38Z</time></trkpt><trkpt lat="59.5245363191" lon="31.1909111682"><ele>46.83</ele><time>2026-08-31T22:22:53Z</time></trkpt><trkpt lat="59.5245402586" lon="31.1908531655"><ele>50.09</ele><time>2026-08-31T22:22:56Z</time></trkpt><trkpt lat="59.5245278534" lon="31.1907219887"><ele>46.37</ele><time>2026-08-31T22:23:04Z</time></trkpt><trkpt lat="59.5245579444" lon="31.1906073242"><ele>48.70</ele><time>2026-08-31T22:23:12Z</time></trkpt><trkpt lat="59.5246227365" lon="31.1904263590"><ele>47.42</ele><time>2026-08-31T22:23:29Z</time></trkpt><trkpt lat="59.5247289352" lon="31.1902947631"><ele>47.67</ele><time>2026-08-31T22:23:43Z</time></trkpt><trkpt lat="59.5247327909" lon="31.1902771611"><ele>46.76</ele><time>2026-08-31T22:23:45Z</time></trkpt><trkpt lat="59.5247716829" lon="31.1902533565"><ele>48.49</ele><time>2026-08-31T22:23:50Z</time></trkpt><trkpt lat="59.5248248242" lon="31.1900957767"><ele>47.84</ele><time>2026-08-31T22:24:00Z</time></trkpt><trkpt lat="59.5248714276" lon="31.1899432261"><ele>47.80</ele><time>2026-08-31T22:24:11Z</time></trkpt><trkpt lat="59.5248733554" lon="31.1899170745"><ele>48.69</ele><time>2026-08-31T22:24:13Z</time></trkpt><trkpt lat="59.5248845872" lon="31.1897656973"><ele>47.56</ele><time>2026-08-31T22:24:24Z</time></trkpt><trkpt lat="59.5249277540" lon="31.1896380410"><ele>46.81</ele><time>2026-08-31T22:24:36Z</time></trkpt><trkpt lat="59.5249282569" lon="31.1896512844"><ele>48.28</ele><time>2026-08-31T22:24:39Z</time></trkpt><trkpt lat="59.5248967409" lon="31.1895947903"><ele>47.66</ele><time>2026-08-31T22:24:55Z</time></trkpt><trkpt lat="59.5248999260" lon="31.1895503663"><ele>47.93</ele><time>2026-08-31T22:25:18Z</time></trkpt><trkpt lat="59.5249038655" lon="31.1895257235"><ele>48.51</ele><time>2026-08-31T22:25:41Z</time></trkpt><trkpt lat="59.5249096490" lon="31.1895456724"><ele>47.48</ele><time>2026-08-31T22:26:09Z</time></trkpt><trkpt lat="59.5249040332" lon="31.1895349436"><ele>47.68</ele><time>2026-08-31T22:26:52Z</time></trkpt><trkpt lat="59.5249081403" lon="31.1895409785"><ele>47.92</ele><time>2026-08-31T22:27:16Z</time></trkpt><trkpt lat="59.5249235630" lon="31.1895361170"><ele>43.10</ele><time>2026-08-31T22:27:55Z</time></trkpt><trkpt lat="59.5249233954" lon="31.1895351950"><ele>43.10</ele><time>2026-08-31T22:27:56Z</time></trkpt><trkpt lat="59.5249173604" lon="31.1895377934"><ele>47.63</ele><time>2026-08-31T22:28:06Z</time></trkpt><trkpt lat="59.5249179471" lon="31.1895379610"><ele>47.92</ele><time>2026-08-31T22:28:07Z</time></trkpt><trkpt lat="59.5249213837" lon="31.1895401403"><ele>46.66</ele><time>2026-08-31T22:28:11Z</time></trkpt><trkpt lat="59.5249371417" lon="31.1896057706"><ele>47.44</ele><time>2026-08-31T22:28:34Z</time></trkpt><trkpt lat="59.5249691606" lon="31.1895558983"><ele>47.82</ele><time>2026-08-31T22:28:48Z</time></trkpt><trkpt lat="59.5250139199" lon="31.1893922836"><ele>47.47</ele><time>2026-08-31T22:28:57Z</time></trkpt><trkpt lat="59.5250111539" lon="31.1892517190"><ele>48.00</ele><time>2026-08-31T22:29:10Z</time></trkpt><trkpt lat="59.5250190329" lon="31.1891046166"><ele>47.76</ele><time>2026-08-31T22:29:21Z</time></trkpt><trkpt lat="59.5250680670" lon="31.1889316142"><ele>47.65</ele><time>2026-08-31T22:29:38Z</time></trkpt><trkpt lat="59.5250872616" lon="31.1888133455"><ele>48.04</ele><time>2026-08-31T22:29:52Z</time></trkpt><trkpt lat="59.5251167659" lon="31.1886840966"><ele>47.72</ele><time>2026-08-31T22:30:15Z</time></trkpt><trkpt lat="59.5251840726" lon="31.1885628942"><ele>47.71</ele><time>2026-08-31T22:30:34Z</time></trkpt><trkpt lat="59.5252324361" lon="31.1884314660"><ele>48.00</ele><time>2026-08-31T22:30:45Z</time></trkpt><trkpt lat="59.5252264850" lon="31.1883554421"><ele>47.81</ele><time>2026-08-31T22:30:53Z</time></trkpt><trkpt lat="59.5252291672" lon="31.1882836930"><ele>47.61</ele><time>2026-08-31T22:31:04Z</time></trkpt><trkpt lat="59.5252337772" lon="31.1881859601"><ele>46.93</ele><time>2026-08-31T22:31:23Z</time></trkpt><trkpt lat="59.5252608508" lon="31.1880847905"><ele>47.26</ele><time>2026-08-31T22:31:29Z</time></trkpt><trkpt lat="59.5253454242" lon="31.1879734788"><ele>47.84</ele><time>2026-08-31T22:31:53Z</time></trkpt><trkpt lat="59.5253868308" lon="31.1879071780"><ele>47.53</ele><time>2026-08-31T22:32:06Z</time></trkpt><trkpt lat="59.5253892615" lon="31.1879092734"><ele>48.72</ele><time>2026-08-31T22:32:08Z</time></trkpt><trkpt lat="59.5253726654" lon="31.1879156437"><ele>48.18</ele><time>2026-08-31T22:32:28Z</time></trkpt><trkpt lat="59.5253637806" lon="31.1878680345"><ele>47.81</ele><time>2026-08-31T22:32:48Z</time></trkpt><trkpt lat="59.5253418200" lon="31.1877555493"><ele>48.34</ele><time>2026-08-31T22:33:11Z</time></trkpt><trkpt lat="59.5253588352" lon="31.1876637675"><ele>46.72</ele><time>2026-08-31T22:33:21Z</time></trkpt><trkpt lat="59.5253624395" lon="31.1876430642"><ele>48.52</ele><time>2026-08-31T22:33:26Z</time></trkpt><trkpt lat="59.5254065283" lon="31.1874163337"><ele>48.46</ele><time>2026-08-31T22:33:47Z</time></trkpt><trkpt lat="59.5254081208" lon="31.1873868294"><ele>44.58</ele><time>2026-08-31T22:33:50Z</time></trkpt><trkpt lat="59.5254104678" lon="31.1873449199"><ele>49.74</ele><time>2026-08-31T22:33:51Z</time></trkpt><trkpt lat="59.5254552271" lon="31.1872414872"><ele>46.46</ele><time>2026-08-31T22:33:54Z</time></trkpt><trkpt lat="59.5254587475" lon="31.1872321833"><ele>48.15</ele><time>2026-08-31T22:33:55Z</time></trkpt><trkpt lat="59.5254984777" lon="31.1870758608"><ele>48.16</ele><time>2026-08-31T22:34:10Z</time></trkpt><trkpt lat="59.5255135652" lon="31.1870650481"><ele>48.07</ele><time>2026-08-31T22:34:33Z</time></trkpt><trkpt lat="59.5255221985" lon="31.1870624498"><ele>48.31</ele><time>2026-08-31T22:34:56Z</time></trkpt><trkpt lat="59.5255065244" lon="31.1870554928"><ele>49.03</ele><time>2026-08-31T22:35:12Z</time></trkpt><trkpt lat="59.5255146548" lon="31.1870555766"><ele>48.96</ele><time>2026-08-31T22:35:19Z</time></trkpt><trkpt lat="59.5255071949" lon="31.1870305985"><ele>48.28</ele><time>2026-08-31T22:36:02Z</time></trkpt><trkpt lat="59.5255075302" lon="31.1870386451"><ele>48.46</ele><time>2026-08-31T22:36:22Z</time></trkpt><trkpt lat="59.5255164988" lon="31.1870450992"><ele>48.60</ele><time>2026-08-31T22:37:01Z</time></trkpt><trkpt lat="59.5255177561" lon="31.1870217975"><ele>48.82</ele><time>2026-08-31T22:37:38Z</time></trkpt><trkpt lat="59.5255370345" lon="31.1869396549"><ele>49.29</ele><time>2026-08-31T22:37:55Z</time></trkpt><trkpt lat="59.5255778544" lon="31.1869175266"><ele>46.08</ele><time>2026-08-31T22:38:13Z</time></trkpt><trkpt lat="59.5255905110" lon="31.1868905369"><ele>52.67</ele><time>2026-08-31T22:38:15Z</time></trkpt><trkpt lat="59.5255984738" lon="31.1868701689"><ele>50.74</ele><time>2026-08-31T22:38:16Z</time></trkpt><trkpt lat="59.5256113820" lon="31.1868322827"><ele>48.30</ele><time>2026-08-31T22:38:19Z</time></trkpt><trkpt lat="59.5256182551" lon="31.1866355594"><ele>48.01</ele><time>2026-08-31T22:38:33Z</time></trkpt><trkpt lat="59.5256400481" lon="31.1865297798"><ele>48.96</ele><time>2026-08-31T22:38:48Z</time></trkpt><trkpt lat="59.5257099532" lon="31.1864506546"><ele>47.17</ele><time>2026-08-31T22:39:09Z</time></trkpt><trkpt lat="59.5257699676" lon="31.1862610560"><ele>49.10</ele><time>2026-08-31T22:39:27Z</time></trkpt><trkpt lat="59.5258428901" lon="31.1861349922"><ele>49.25</ele><time>2026-08-31T22:39:38Z</time></trkpt><trkpt lat="59.5259350911" lon="31.1860039830"><ele>48.81</ele><time>2026-08-31T22:40:00Z</time></trkpt><trkpt lat="59.5259784255" lon="31.1858183239"><ele>49.35</ele><time>2026-08-31T22:40:23Z</time></trkpt><trkpt lat="59.5259737317" lon="31.1857697926"><ele>51.09</ele><time>2026-08-31T22:40:50Z</time></trkpt><trkpt lat="59.5259817783" lon="31.1857285537"><ele>48.95</ele><time>2026-08-31T22:40:58Z</time></trkpt><trkpt lat="59.5259843767" lon="31.1856734846"><ele>50.82</ele><time>2026-08-31T22:41:03Z</time></trkpt><trkpt lat="59.5259930938" lon="31.1853906792"><ele>51.60</ele><time>2026-08-31T22:41:22Z</time></trkpt><trkpt lat="59.5259661879" lon="31.1851584166"><ele>49.82</ele><time>2026-08-31T22:41:48Z</time></trkpt><trkpt lat="59.5259650983" lon="31.1851581652"><ele>54.23</ele><time>2026-08-31T22:41:49Z</time></trkpt><trkpt lat="59.5259641763" lon="31.1851577461"><ele>52.89</ele><time>2026-08-31T22:41:50Z</time></trkpt><trkpt lat="59.5259627514" lon="31.1851587519"><ele>52.07</ele><time>2026-08-31T22:41:52Z</time></trkpt><trkpt lat="59.5259906631" lon="31.1851367913"><ele>53.15</ele><time>2026-08-31T22:42:02Z</time></trkpt><trkpt lat="59.5259918366" lon="31.1850398965"><ele>48.95</ele><time>2026-08-31T22:42:07Z</time></trkpt><trkpt lat="59.5259842928" lon="31.1850372981"><ele>55.57</ele><time>2026-08-31T22:42:08Z</time></trkpt><trkpt lat="59.5259790961" lon="31.1850277428"><ele>53.51</ele><time>2026-08-31T22:42:09Z</time></trkpt><trkpt lat="59.5259596501" lon="31.1849116534"><ele>53.05</ele><time>2026-08-31T22:42:33Z</time></trkpt><trkpt lat="59.5260060858" lon="31.1848179437"><ele>53.90</ele><time>2026-08-31T22:42:41Z</time></trkpt><trkpt lat="59.5259857178" lon="31.1848569196"><ele>52.90</ele><time>2026-08-31T22:43:11Z</time></trkpt><trkpt lat="59.5260162279" lon="31.1848267447"><ele>53.16</ele><time>2026-08-31T22:43:39Z</time></trkpt><trkpt lat="59.5260391943" lon="31.1848304328"><ele>53.26</ele><time>2026-08-31T22:44:14Z</time></trkpt><trkpt lat="59.5260346681" lon="31.1848288402"><ele>53.22</ele><time>2026-08-31T22:45:15Z</time></trkpt><trkpt lat="59.5260124560" lon="31.1848112382"><ele>53.00</ele><time>2026-08-31T22:45:44Z</time></trkpt><trkpt lat="59.5260234363" lon="31.1848375574"><ele>52.86</ele><time>2026-08-31T22:46:33Z</time></trkpt><trkpt lat="59.5260177366" lon="31.1848402396"><ele>52.98</ele><time>2026-08-31T22:47:02Z</time></trkpt><trkpt lat="59.5260532759" lon="31.1849800497"><ele>52.69</ele><time>2026-08-31T22:47:13Z</time></trkpt><trkpt lat="59.5260926709" lon="31.1849369667"><ele>51.51</ele><time>2026-08-31T22:47:22Z</time></trkpt><trkpt lat="59.5261846203" lon="31.1847402435"><ele>50.39</ele><time>2026-08-31T22:47:36Z</time></trkpt><trkpt lat="59.5262878854" lon="31.1845988408"><ele>50.83</ele><time>2026-08-31T22:47:51Z</time></trkpt><trkpt lat="59.5263541024" lon="31.1845393293"><ele>45.93</ele><time>2026-08-31T22:48:02Z</time></trkpt><trkpt lat="59.5263541862" lon="31.1845306959"><ele>52.61</ele><time>2026-08-31T22:48:03Z</time></trkpt><trkpt lat="59.5263606403" lon="31.1845201347"><ele>48.05</ele><time>2026-08-31T22:48:05Z</time></trkpt><trkpt lat="59.5263616461" lon="31.1845190451"><ele>51.91</ele><time>2026-08-31T22:48:06Z</time></trkpt><trkpt lat="59.5263780747" lon="31.1844456196"><ele>50.86</ele><time>2026-08-31T22:48:11Z</time></trkpt><trkpt lat="59.5264237560" lon="31.1842131894"><ele>50.38</ele><time>2026-08-31T22:48:25Z</time></trkpt><trkpt lat="59.5264348201" lon="31.1840306316"><ele>50.11</ele><time>2026-08-31T22:48:38Z</time></trkpt><trkpt lat="59.5264460519" lon="31.1838291306"><ele>50.23</ele><time>2026-08-31T22:48:50Z</time></trkpt><trkpt lat="59.5264897216" lon="31.1836168170"><ele>50.15</ele><time>2026-08-31T22:49:05Z</time></trkpt><trkpt lat="59.5264931582" lon="31.1835862231"><ele>44.12</ele><time>2026-08-31T22:49:07Z</time></trkpt><trkpt lat="59.5264943317" lon="31.1835754942"><ele>51.63</ele><time>2026-08-31T22:49:08Z</time></trkpt><trkpt lat="59.5264947508" lon="31.1835679505"><ele>51.64</ele><time>2026-08-31T22:49:09Z</time></trkpt><trkpt lat="59.5265026297" lon="31.1834654398"><ele>51.65</ele><time>2026-08-31T22:49:16Z</time></trkpt><trkpt lat="59.5264921524" lon="31.1833777651"><ele>50.28</ele><time>2026-08-31T22:49:28Z</time></trkpt><trkpt lat="59.5265031327" lon="31.1832531262"><ele>50.55</ele><time>2026-08-31T22:49:41Z</time></trkpt><trkpt lat="59.5264989417" lon="31.1832571495"><ele>45.59</ele><time>2026-08-31T22:49:44Z</time></trkpt><trkpt lat="59.5264959242" lon="31.1832620949"><ele>48.83</ele><time>2026-08-31T22:49:45Z</time></trkpt><trkpt lat="59.5264936611" lon="31.1832708959"><ele>52.32</ele><time>2026-08-31T22:49:49Z</time></trkpt><trkpt lat="59.5264936611" lon="31.1832702253"><ele>52.32</ele><time>2026-08-31T22:49:50Z</time></trkpt><trkpt lat="59.5264980197" lon="31.1832208559"><ele>50.44</ele><time>2026-08-31T22:49:57Z</time></trkpt><trkpt lat="59.5265305415" lon="31.1830954626"><ele>50.52</ele><time>2026-08-31T22:50:10Z</time></trkpt><trkpt lat="59.5265447907" lon="31.1831120588"><ele>51.71</ele><time>2026-08-31T22:50:23Z</time></trkpt><trkpt lat="59.5265366603" lon="31.1831446644"><ele>50.41</ele><time>2026-08-31T22:50:57Z</time></trkpt><trkpt lat="59.5265455451" lon="31.1831083708"><ele>50.94</ele><time>2026-08-31T22:51:18Z</time></trkpt><trkpt lat="59.5265462156" lon="31.1830871645"><ele>49.31</ele><time>2026-08-31T22:51:21Z</time></trkpt><trkpt lat="59.5265370794" lon="31.1830798723"><ele>50.97</ele><time>2026-08-31T22:51:26Z</time></trkpt><trkpt lat="59.5265155379" lon="31.1830752622"><ele>51.10</ele><time>2026-08-31T22:51:56Z</time></trkpt><trkpt lat="59.5264969300" lon="31.1830706522"><ele>51.64</ele><time>2026-08-31T22:52:17Z</time></trkpt><trkpt lat="59.5265078265" lon="31.1830674671"><ele>51.24</ele><time>2026-08-31T22:53:02Z</time></trkpt><trkpt lat="59.5265210699" lon="31.1830414832"><ele>51.47</ele><time>2026-08-31T22:53:40Z</time></trkpt><trkpt lat="59.5265224949" lon="31.1830713227"><ele>51.40</ele><time>2026-08-31T22:54:14Z</time></trkpt><trkpt lat="59.5265577827" lon="31.1829410680"><ele>51.38</ele><time>2026-08-31T22:54:32Z</time></trkpt><trkpt lat="59.5265842695" lon="31.1826700810"><ele>50.20</ele><time>2026-08-31T22:54:51Z</time></trkpt><trkpt lat="59.5265799947" lon="31.1826748587"><ele>51.96</ele><time>2026-08-31T22:54:54Z</time></trkpt><trkpt lat="59.5265934896" lon="31.1827653833"><ele>51.57</ele><time>2026-08-31T22:55:13Z</time></trkpt><trkpt lat="59.5266856905" lon="31.1827143375"><ele>51.05</ele><time>2026-08-31T22:55:28Z</time></trkpt><trkpt lat="59.5267509855" lon="31.1826542392"><ele>51.14</ele><time>2026-08-31T22:55:44Z</time></trkpt><trkpt lat="59.5268769655" lon="31.1824279279"><ele>50.93</ele><time>2026-08-31T22:56:05Z</time></trkpt><trkpt lat="59.5269265864" lon="31.1823356431"><ele>51.17</ele><time>2026-08-31T22:56:22Z</time></trkpt><trkpt lat="59.5269669872" lon="31.1821886245"><ele>51.27</ele><time>2026-08-31T22:56:43Z</time></trkpt><trkpt lat="59.5270049572" lon="31.1819111835"><ele>51.60</ele><time>2026-08-31T22:57:00Z</time></trkpt><trkpt lat="59.5270296000" lon="31.1818395182"><ele>51.31</ele><time>2026-08-31T22:57:05Z</time></trkpt><trkpt lat="59.5270328689" lon="31.1816718802"><ele>51.30</ele><time>2026-08-31T22:57:21Z</time></trkpt><trkpt lat="59.5270820707" lon="31.1815244425"><ele>51.63</ele><time>2026-08-31T22:57:39Z</time></trkpt><trkpt lat="59.5271184482" lon="31.1813523620"><ele>51.50</ele><time>2026-08-31T22:57:53Z</time></trkpt><trkpt lat="59.5271647163" lon="31.1812772602"><ele>50.45</ele><time>2026-08-31T22:58:13Z</time></trkpt><trkpt lat="59.5271654706" lon="31.1812638491"><ele>54.56</ele><time>2026-08-31T22:58:17Z</time></trkpt><trkpt lat="59.5271666441" lon="31.1812632624"><ele>52.74</ele><time>2026-08-31T22:58:18Z</time></trkpt><trkpt lat="59.5272209588" lon="31.1811267212"><ele>51.19</ele><time>2026-08-31T22:58:32Z</time></trkpt><trkpt lat="59.5272387285" lon="31.1810132302"><ele>51.33</ele><time>2026-08-31T22:58:48Z</time></trkpt><trkpt lat="59.5272591803" lon="31.1809647828"><ele>50.96</ele><time>2026-08-31T22:59:13Z</time></trkpt><trkpt lat="59.5272502955" lon="31.1809494440"><ele>52.88</ele><time>2026-08-31T22:59:26Z</time></trkpt><trkpt lat="59.5272495411" lon="31.1809474323"><ele>51.29</ele><time>2026-08-31T22:59:29Z</time></trkpt><trkpt lat="59.5272525586" lon="31.1809684709"><ele>51.21</ele><time>2026-08-31T22:59:46Z</time></trkpt><trkpt lat="59.5272470266" lon="31.1809672974"><ele>50.63</ele><time>2026-08-31T23:00:29Z</time></trkpt><trkpt lat="59.5272418298" lon="31.1809629388"><ele>51.15</ele><time>2026-08-31T23:01:00Z</time></trkpt><trkpt lat="59.5272561628" lon="31.1809528805"><ele>51.03</ele><time>2026-08-31T23:01:31Z</time></trkpt><trkpt lat="59.5272595994" lon="31.1809902638"><ele>50.10</ele><time>2026-08-31T23:02:09Z</time></trkpt><trkpt lat="59.5272354595" lon="31.1809534673"><ele>51.10</ele><time>2026-08-31T23:02:40Z</time></trkpt><trkpt lat="59.5272425842" lon="31.1807855777"><ele>51.03</ele><time>2026-08-31T23:02:56Z</time></trkpt><trkpt lat="59.5272080507" lon="31.1806811392"><ele>51.42</ele><time>2026-08-31T23:03:10Z</time></trkpt><trkpt lat="59.5272017643" lon="31.1803848390"><ele>51.98</ele><time>2026-08-31T23:03:29Z</time></trkpt><trkpt lat="59.5272416621" lon="31.1801934801"><ele>51.41</ele><time>2026-08-31T23:03:48Z</time></trkpt><trkpt lat="59.5272225514" lon="31.1801200546"><ele>51.47</ele><time>2026-08-31T23:04:03Z</time></trkpt><trkpt lat="59.5272275805" lon="31.1800872814"><ele>50.15</ele><time>2026-08-31T23:04:33Z</time></trkpt><trkpt lat="59.5272340346" lon="31.1801513191"><ele>50.36</ele><time>2026-08-31T23:04:56Z</time></trkpt><trkpt lat="59.5272441767" lon="31.1801658198"><ele>50.53</ele><time>2026-08-31T23:05:20Z</time></trkpt><trkpt lat="59.5272385608" lon="31.1801474635"><ele>50.72</ele><time>2026-08-31T23:05:38Z</time></trkpt><trkpt lat="59.5272294246" lon="31.1801496428"><ele>50.52</ele><time>2026-08-31T23:06:31Z</time></trkpt><trkpt lat="59.5272344537" lon="31.1801374890"><ele>50.27</ele><time>2026-08-31T23:07:18Z</time></trkpt><trkpt lat="59.5272498764" lon="31.1801349744"><ele>50.20</ele><time>2026-08-31T23:08:35Z</time></trkpt><trkpt lat="59.5272062905" lon="31.1801230721"><ele>50.14</ele><time>2026-08-31T23:09:17Z</time></trkpt><trkpt lat="59.5271949749" lon="31.1801349744"><ele>50.30</ele><time>2026-08-31T23:09:37Z</time></trkpt><trkpt lat="59.5272350404" lon="31.1801095773"><ele>49.99</ele><time>2026-08-31T23:10:17Z</time></trkpt><trkpt lat="59.5272370521" lon="31.1801449489"><ele>50.15</ele><time>2026-08-31T23:10:35Z</time></trkpt><trkpt lat="59.5272286702" lon="31.1801286880"><ele>50.09</ele><time>2026-08-31T23:11:10Z</time></trkpt><trkpt lat="59.5272285864" lon="31.1801298615"><ele>53.19</ele><time>2026-08-31T23:11:20Z</time></trkpt><trkpt lat="59.5272280835" lon="31.1801285204"><ele>52.11</ele><time>2026-08-31T23:11:21Z</time></trkpt><trkpt lat="59.5272284187" lon="31.1801287718"><ele>51.40</ele><time>2026-08-31T23:11:23Z</time></trkpt><trkpt lat="59.5272493735" lon="31.1800830904"><ele>51.56</ele><time>2026-08-31T23:11:59Z</time></trkpt><trkpt lat="59.5272396505" lon="31.1799881235"><ele>51.33</ele><time>2026-08-31T23:12:19Z</time></trkpt><trkpt lat="59.5272690710" lon="31.1797492392"><ele>51.99</ele><time>2026-08-31T23:12:37Z</time></trkpt><trkpt lat="59.5272517204" lon="31.1797102634"><ele>52.05</ele><time>2026-08-31T23:13:06Z</time></trkpt><trkpt lat="59.5272293407" lon="31.1797019653"><ele>52.04</ele><time>2026-08-31T23:13:17Z</time></trkpt><trkpt lat="59.5271902811" lon="31.1796683539"><ele>51.67</ele><time>2026-08-31T23:13:31Z</time></trkpt><trkpt lat="59.5271736849" lon="31.1796322279"><ele>51.70</ele><time>2026-08-31T23:13:48Z</time></trkpt><trkpt lat="59.5271403249" lon="31.1796777416"><ele>51.76</ele><time>2026-08-31T23:14:05Z</time></trkpt><trkpt lat="59.5271442644" lon="31.1797520891"><ele>51.54</ele><time>2026-08-31T23:14:16Z</time></trkpt><trkpt lat="59.5271398220" lon="31.1799468845"><ele>52.04</ele><time>2026-08-31T23:14:30Z</time></trkpt><trkpt lat="59.5270841662" lon="31.1799877044"><ele>51.77</ele><time>2026-08-31T23:14:44Z</time></trkpt><trkpt lat="59.5270738564" lon="31.1800517421"><ele>51.83</ele><time>2026-08-31T23:14:51Z</time></trkpt><trkpt lat="59.5270330366" lon="31.1801764648"><ele>51.81</ele><time>2026-08-31T23:15:06Z</time></trkpt><trkpt lat="59.5270202961" lon="31.1803024448"><ele>51.60</ele><time>2026-08-31T23:15:24Z</time></trkpt><trkpt lat="59.5269911271" lon="31.1804260779"><ele>51.10</ele><time>2026-08-31T23:15:43Z</time></trkpt><trkpt lat="59.5269339625" lon="31.1804083921"><ele>51.39</ele><time>2026-08-31T23:15:55Z</time></trkpt><trkpt lat="59.5269209705" lon="31.1804000940"><ele>50.66</ele><time>2026-08-31T23:16:04Z</time></trkpt><trkpt lat="59.5269217249" lon="31.1803989206"><ele>52.02</ele><time>2026-08-31T23:16:06Z</time></trkpt><trkpt lat="59.5268933102" lon="31.1803532392"><ele>51.36</ele><time>2026-08-31T23:16:26Z</time></trkpt><trkpt lat="59.5268590283" lon="31.1802944820"><ele>51.86</ele><time>2026-08-31T23:16:34Z</time></trkpt><trkpt lat="59.5267800707" lon="31.1802100763"><ele>46.00</ele><time>2026-08-31T23:16:47Z</time></trkpt><trkpt lat="59.5267723594" lon="31.1802150216"><ele>53.25</ele><time>2026-08-31T23:16:48Z</time></trkpt><trkpt lat="59.5267505664" lon="31.1801418476"><ele>51.49</ele><time>2026-08-31T23:17:03Z</time></trkpt><trkpt lat="59.5266769733" lon="31.1800760496"><ele>51.70</ele><time>2026-08-31T23:17:14Z</time></trkpt><trkpt lat="59.5266433619" lon="31.1799656600"><ele>51.93</ele><time>2026-08-31T23:17:26Z</time></trkpt><trkpt lat="59.5266286936" lon="31.1798126902"><ele>51.61</ele><time>2026-08-31T23:17:38Z</time></trkpt><trkpt lat="59.5265639853" lon="31.1796816811"><ele>51.84</ele><time>2026-08-31T23:17:52Z</time></trkpt><trkpt lat="59.5265859459" lon="31.1795548629"><ele>51.87</ele><time>2026-08-31T23:18:07Z</time></trkpt><trkpt lat="59.5266156178" lon="31.1795318965"><ele>51.72</ele><time>2026-08-31T23:18:25Z</time></trkpt><trkpt lat="59.5266204793" lon="31.1795347463"><ele>51.56</ele><time>2026-08-31T23:19:03Z</time></trkpt><trkpt lat="59.5266164560" lon="31.1795342434"><ele>52.88</ele><time>2026-08-31T23:19:12Z</time></trkpt><trkpt lat="59.5266149472" lon="31.1795305554"><ele>52.99</ele><time>2026-08-31T23:19:22Z</time></trkpt><trkpt lat="59.5266124327" lon="31.1795407813"><ele>50.74</ele><time>2026-08-31T23:20:00Z</time></trkpt><trkpt lat="59.5266116783" lon="31.1795386858"><ele>54.57</ele><time>2026-08-31T23:20:07Z</time></trkpt><trkpt lat="59.5266116783" lon="31.1795368418"><ele>52.77</ele><time>2026-08-31T23:20:08Z</time></trkpt><trkpt lat="59.5266109239" lon="31.1795335729"><ele>49.01</ele><time>2026-08-31T23:20:12Z</time></trkpt><trkpt lat="59.5266119298" lon="31.1795330700"><ele>53.79</ele><time>2026-08-31T23:20:13Z</time></trkpt><trkpt lat="59.5266130194" lon="31.1795360874"><ele>52.16</ele><time>2026-08-31T23:20:16Z</time></trkpt><trkpt lat="59.5266111754" lon="31.1795346625"><ele>55.24</ele><time>2026-08-31T23:20:21Z</time></trkpt><trkpt lat="59.5266115945" lon="31.1795357522"><ele>52.07</ele><time>2026-08-31T23:20:23Z</time></trkpt><trkpt lat="59.5266119298" lon="31.1795353331"><ele>51.32</ele><time>2026-08-31T23:20:25Z</time></trkpt><trkpt lat="59.5266094990" lon="31.1795322318"><ele>49.60</ele><time>2026-08-31T23:20:45Z</time></trkpt><trkpt lat="59.5266082417" lon="31.1795214191"><ele>52.25</ele><time>2026-08-31T23:20:54Z</time></trkpt><trkpt lat="59.5266110916" lon="31.1794598959"><ele>51.87</ele><time>2026-08-31T23:21:30Z</time></trkpt><trkpt lat="59.5265749656" lon="31.1793373525"><ele>52.00</ele><time>2026-08-31T23:21:43Z</time></trkpt><trkpt lat="59.5265205670" lon="31.1791413836"><ele>51.76</ele><time>2026-08-31T23:21:59Z</time></trkpt><trkpt lat="59.5265384205" lon="31.1790212709"><ele>52.16</ele><time>2026-08-31T23:22:13Z</time></trkpt><trkpt lat="59.5265404321" lon="31.1789792776"><ele>51.86</ele><time>2026-08-31T23:22:16Z</time></trkpt><trkpt lat="59.5265141968" lon="31.1788270622"><ele>52.19</ele><time>2026-08-31T23:22:30Z</time></trkpt><trkpt lat="59.5264937449" lon="31.1787519604"><ele>52.01</ele><time>2026-08-31T23:22:44Z</time></trkpt><trkpt lat="59.5264955889" lon="31.1785834841"><ele>52.41</ele><time>2026-08-31T23:22:55Z</time></trkpt><trkpt lat="59.5264920685" lon="31.1785099749"><ele>52.18</ele><time>2026-08-31T23:23:08Z</time></trkpt><trkpt lat="59.5264490694" lon="31.1785499565"><ele>52.34</ele><time>2026-08-31T23:23:30Z</time></trkpt><trkpt lat="59.5264259353" lon="31.1786518805"><ele>52.48</ele><time>2026-08-31T23:23:56Z</time></trkpt><trkpt lat="59.5264072437" lon="31.1786338594"><ele>52.51</ele><time>2026-08-31T23:24:16Z</time></trkpt><trkpt lat="59.5263818465" lon="31.1785859987"><ele>52.31</ele><time>2026-08-31T23:24:36Z</time></trkpt><trkpt lat="59.5263642445" lon="31.1785354558"><ele>52.69</ele><time>2026-08-31T23:24:40Z</time></trkpt><trkpt lat="59.5263070799" lon="31.1783300992"><ele>52.49</ele><time>2026-08-31T23:24:58Z</time></trkpt><trkpt lat="59.5262677688" lon="31.1782780476"><ele>52.72</ele><time>2026-08-31T23:25:11Z</time></trkpt><trkpt lat="59.5262147952" lon="31.1780687515"><ele>53.15</ele><time>2026-08-31T23:25:27Z</time></trkpt><trkpt lat="59.5263044816" lon="31.1779333837"><ele>53.02</ele><time>2026-08-31T23:25:40Z</time></trkpt><trkpt lat="59.5263565332" lon="31.1778586172"><ele>52.62</ele><time>2026-08-31T23:25:51Z</time></trkpt><trkpt lat="59.5263870433" lon="31.1778593715"><ele>53.86</ele><time>2026-08-31T23:26:01Z</time></trkpt><trkpt lat="59.5264219958" lon="31.1777064856"><ele>52.70</ele><time>2026-08-31T23:26:15Z</time></trkpt><trkpt lat="59.5264244266" lon="31.1776863690"><ele>52.75</ele><time>2026-08-31T23:27:01Z</time></trkpt><trkpt lat="59.5264296234" lon="31.1776788253"><ele>53.12</ele><time>2026-08-31T23:27:36Z</time></trkpt><trkpt lat="59.5264285337" lon="31.1776923202"><ele>52.45</ele><time>2026-08-31T23:28:21Z</time></trkpt><trkpt lat="59.5264233369" lon="31.1776935775"><ele>52.47</ele><time>2026-08-31T23:28:57Z</time></trkpt><trkpt lat="59.5263937488" lon="31.1776912306"><ele>52.37</ele><time>2026-08-31T23:29:40Z</time></trkpt><trkpt lat="59.5263423678" lon="31.1777635664"><ele>52.65</ele><time>2026-08-31T23:30:04Z</time></trkpt><trkpt lat="59.5262514241" lon="31.1777986865"><ele>52.69</ele><time>2026-08-31T23:30:16Z</time></trkpt><trkpt lat="59.5262318943" lon="31.1778325494"><ele>52.53</ele><time>2026-08-31T23:30:35Z</time></trkpt><trkpt lat="59.5261522662" lon="31.1778951623"><ele>53.09</ele><time>2026-08-31T23:30:52Z</time></trkpt><trkpt lat="59.5260997955" lon="31.1780111678"><ele>53.20</ele><time>2026-08-31T23:31:04Z</time></trkpt><trkpt lat="59.5260559581" lon="31.1781889480"><ele>53.56</ele><time>2026-08-31T23:31:23Z</time></trkpt><trkpt lat="59.5259565488" lon="31.1784350406"><ele>53.96</ele><time>2026-08-31T23:31:44Z</time></trkpt><trkpt lat="59.5259196684" lon="31.1786027625"><ele>54.80</ele><time>2026-08-31T23:32:03Z</time></trkpt><trkpt lat="59.5258406270" lon="31.1787808780"><ele>54.99</ele><time>2026-08-31T23:32:26Z</time></trkpt><trkpt lat="59.5257733203" lon="31.1788926926"><ele>54.47</ele><time>2026-08-31T23:32:38Z</time></trkpt><trkpt lat="59.5256800298" lon="31.1790597439"><ele>54.63</ele><time>2026-08-31T23:32:51Z</time></trkpt><trkpt lat="59.5255887508" lon="31.1792317405"><ele>55.68</ele><time>2026-08-31T23:33:03Z</time></trkpt><trkpt lat="59.5255672932" lon="31.1794168968"><ele>56.24</ele><time>2026-08-31T23:33:17Z</time></trkpt><trkpt lat="59.5255574863" lon="31.1795692798"><ele>56.35</ele><time>2026-08-31T23:33:32Z</time></trkpt><trkpt lat="59.5255737472" lon="31.1796211638"><ele>57.00</ele><time>2026-08-31T23:33:42Z</time></trkpt><trkpt lat="59.5255732443" lon="31.1796173919"><ele>56.37</ele><time>2026-08-31T23:33:44Z</time></trkpt><trkpt lat="59.5255717356" lon="31.1796256900"><ele>55.90</ele><time>2026-08-31T23:34:09Z</time></trkpt><trkpt lat="59.5255563967" lon="31.1796127819"><ele>56.17</ele><time>2026-08-31T23:34:44Z</time></trkpt><trkpt lat="59.5255614258" lon="31.1796207447"><ele>55.91</ele><time>2026-08-31T23:35:21Z</time></trkpt><trkpt lat="59.5255674608" lon="31.1795920786"><ele>55.09</ele><time>2026-08-31T23:35:44Z</time></trkpt><trkpt lat="59.5255628508" lon="31.1795204971"><ele>55.91</ele><time>2026-08-31T23:36:01Z</time></trkpt><trkpt lat="59.5255626831" lon="31.1795180663"><ele>56.35</ele><time>2026-08-31T23:36:09Z</time></trkpt><trkpt lat="59.5255278982" lon="31.1795497499"><ele>55.78</ele><time>2026-08-31T23:36:30Z</time></trkpt><trkpt lat="59.5255273115" lon="31.1795838643"><ele>55.93</ele><time>2026-08-31T23:37:22Z</time></trkpt><trkpt lat="59.5255245455" lon="31.1796784960"><ele>55.49</ele><time>2026-08-31T23:37:40Z</time></trkpt><trkpt lat="59.5255102962" lon="31.1797737982"><ele>54.97</ele><time>2026-08-31T23:37:56Z</time></trkpt><trkpt lat="59.5254704822" lon="31.1799426936"><ele>55.53</ele><time>2026-08-31T23:38:10Z</time></trkpt><trkpt lat="59.5254707336" lon="31.1801601201"><ele>56.10</ele><time>2026-08-31T23:38:24Z</time></trkpt><trkpt lat="59.5254067797" lon="31.1802028678"><ele>56.63</ele><time>2026-08-31T23:38:37Z</time></trkpt><trkpt lat="59.5253371261" lon="31.1804156844"><ele>56.22</ele><time>2026-08-31T23:38:49Z</time></trkpt><trkpt lat="59.5252989884" lon="31.1806640401"><ele>56.45</ele><time>2026-08-31T23:39:03Z</time></trkpt><trkpt lat="59.5252521336" lon="31.1808670498"><ele>56.85</ele><time>2026-08-31T23:39:22Z</time></trkpt><trkpt lat="59.5251404867" lon="31.1809765175"><ele>57.52</ele><time>2026-08-31T23:39:37Z</time></trkpt><trkpt lat="59.5251241419" lon="31.1809860729"><ele>57.84</ele><time>2026-08-31T23:39:39Z</time></trkpt><trkpt lat="59.5250433404" lon="31.1811077781"><ele>58.08</ele><time>2026-08-31T23:39:52Z</time></trkpt><trkpt lat="59.5249759499" lon="31.1812006496"><ele>58.41</ele><time>2026-08-31T23:40:04Z</time></trkpt><trkpt lat="59.5249059610" lon="31.1813109554"><ele>58.07</ele><time>2026-08-31T23:40:18Z</time></trkpt><trkpt lat="59.5248286799" lon="31.1815094389"><ele>57.35</ele><time>2026-08-31T23:40:38Z</time></trkpt><trkpt lat="59.5247510634" lon="31.1816698685"><ele>55.68</ele><time>2026-08-31T23:40:52Z</time></trkpt><trkpt lat="59.5246866904" lon="31.1817430425"><ele>56.44</ele><time>2026-08-31T23:41:13Z</time></trkpt><trkpt lat="59.5246863551" lon="31.1818586290"><ele>56.80</ele><time>2026-08-31T23:41:34Z</time></trkpt><trkpt lat="59.5247121714" lon="31.1819731258"><ele>57.69</ele><time>2026-08-31T23:41:50Z</time></trkpt><trkpt lat="59.5246964134" lon="31.1821568571"><ele>59.14</ele><time>2026-08-31T23:42:04Z</time></trkpt><trkpt lat="59.5246901270" lon="31.1821964197"><ele>59.67</ele><time>2026-08-31T23:42:17Z</time></trkpt><trkpt lat="59.5246949885" lon="31.1821850203"><ele>59.11</ele><time>2026-08-31T23:42:46Z</time></trkpt><trkpt lat="59.5246743690" lon="31.1822063942"><ele>59.13</ele><time>2026-08-31T23:43:09Z</time></trkpt><trkpt lat="59.5246644784" lon="31.1821717769"><ele>58.34</ele><time>2026-08-31T23:43:39Z</time></trkpt><trkpt lat="59.5246654842" lon="31.1821741238"><ele>60.15</ele><time>2026-08-31T23:43:42Z</time></trkpt><trkpt lat="59.5246729441" lon="31.1822022870"><ele>59.59</ele><time>2026-08-31T23:44:29Z</time></trkpt><trkpt lat="59.5246770512" lon="31.1821910553"><ele>59.72</ele><time>2026-08-31T23:44:49Z</time></trkpt><trkpt lat="59.5246848464" lon="31.1821863614"><ele>59.67</ele><time>2026-08-31T23:45:13Z</time></trkpt><trkpt lat="59.5246687531" lon="31.1821840983"><ele>58.93</ele><time>2026-08-31T23:45:47Z</time></trkpt><trkpt lat="59.5246576052" lon="31.1821800750"><ele>59.35</ele><time>2026-08-31T23:45:50Z</time></trkpt><trkpt lat="59.5246557612" lon="31.1821938213"><ele>59.40</ele><time>2026-08-31T23:46:06Z</time></trkpt><trkpt lat="59.5246571861" lon="31.1821823381"><ele>60.72</ele><time>2026-08-31T23:46:18Z</time></trkpt><trkpt lat="59.5246232394" lon="31.1822438613"><ele>59.87</ele><time>2026-08-31T23:46:26Z</time></trkpt><trkpt lat="59.5245197229" lon="31.1823627166"><ele>59.67</ele><time>2026-08-31T23:46:38Z</time></trkpt><trkpt lat="59.5244020410" lon="31.1825566739"><ele>58.88</ele><time>2026-08-31T23:46:54Z</time></trkpt><trkpt lat="59.5243419427" lon="31.1826198734"><ele>58.46</ele><time>2026-08-31T23:46:59Z</time></trkpt><trkpt lat="59.5243179705" lon="31.1829330213"><ele>58.97</ele><time>2026-08-31T23:47:13Z</time></trkpt><trkpt lat="59.5242528431" lon="31.1829801276"><ele>57.40</ele><time>2026-08-31T23:47:26Z</time></trkpt><trkpt lat="59.5241530146" lon="31.1830310896"><ele>56.89</ele><time>2026-08-31T23:47:37Z</time></trkpt><trkpt lat="59.5241312217" lon="31.1830920260"><ele>56.94</ele><time>2026-08-31T23:47:41Z</time></trkpt><trkpt lat="59.5241339877" lon="31.1832462531"><ele>56.94</ele><time>2026-08-31T23:47:56Z</time></trkpt><trkpt lat="59.5241548587" lon="31.1833702214"><ele>57.14</ele><time>2026-08-31T23:48:13Z</time></trkpt><trkpt lat="59.5240871329" lon="31.1835169885"><ele>56.52</ele><time>2026-08-31T23:48:29Z</time></trkpt><trkpt lat="59.5240931679" lon="31.1837173998"><ele>56.48</ele><time>2026-08-31T23:48:44Z</time></trkpt><trkpt lat="59.5240491629" lon="31.1838270351"><ele>55.16</ele><time>2026-08-31T23:48:59Z</time></trkpt><trkpt lat="59.5239698701" lon="31.1838751473"><ele>54.91</ele><time>2026-08-31T23:49:15Z</time></trkpt><trkpt lat="59.5239369292" lon="31.1840193998"><ele>55.38</ele><time>2026-08-31T23:49:30Z</time></trkpt><trkpt lat="59.5238930918" lon="31.1841242574"><ele>55.29</ele><time>2026-08-31T23:49:45Z</time></trkpt><trkpt lat="59.5238616597" lon="31.1842101719"><ele>55.17</ele><time>2026-08-31T23:49:57Z</time></trkpt><trkpt lat="59.5238527749" lon="31.1842894647"><ele>53.74</ele><time>2026-08-31T23:50:11Z</time></trkpt><trkpt lat="59.5238503441" lon="31.1842952482"><ele>51.68</ele><time>2026-08-31T23:50:28Z</time></trkpt><trkpt lat="59.5238487516" lon="31.1842979304"><ele>54.13</ele><time>2026-08-31T23:50:33Z</time></trkpt><trkpt lat="59.5238637552" lon="31.1842962541"><ele>54.27</ele><time>2026-08-31T23:51:07Z</time></trkpt><trkpt lat="59.5238566305" lon="31.1842500698"><ele>54.32</ele><time>2026-08-31T23:51:26Z</time></trkpt><trkpt lat="59.5238578878" lon="31.1842859443"><ele>54.28</ele><time>2026-08-31T23:51:50Z</time></trkpt><trkpt lat="59.5238609891" lon="31.1843014508"><ele>54.38</ele><time>2026-08-31T23:52:20Z</time></trkpt><trkpt lat="59.5238692872" lon="31.1842969246"><ele>54.50</ele><time>2026-08-31T23:52:50Z</time></trkpt><trkpt lat="59.5238564629" lon="31.1843156163"><ele>51.41</ele><time>2026-08-31T23:53:19Z</time></trkpt><trkpt lat="59.5238561276" lon="31.1843163706"><ele>56.03</ele><time>2026-08-31T23:53:20Z</time></trkpt><trkpt lat="59.5238548703" lon="31.1843094975"><ele>56.04</ele><time>2026-08-31T23:53:21Z</time></trkpt><trkpt lat="59.5238509309" lon="31.1843079887"><ele>54.37</ele><time>2026-08-31T23:53:58Z</time></trkpt><trkpt lat="59.5238508470" lon="31.1843070667"><ele>55.29</ele><time>2026-08-31T23:54:05Z</time></trkpt><trkpt lat="59.5238508470" lon="31.1843130179"><ele>54.12</ele><time>2026-08-31T23:54:40Z</time></trkpt><trkpt lat="59.5237875637" lon="31.1843636446"><ele>54.56</ele><time>2026-08-31T23:54:52Z</time></trkpt><trkpt lat="59.5237046666" lon="31.1844129302"><ele>53.83</ele><time>2026-08-31T23:55:02Z</time></trkpt><trkpt lat="59.5236828737" lon="31.1844476312"><ele>54.17</ele><time>2026-08-31T23:55:05Z</time></trkpt><trkpt lat="59.5236177463" lon="31.1845153570"><ele>54.37</ele><time>2026-08-31T23:55:18Z</time></trkpt><trkpt lat="59.5235097874" lon="31.1847373936"><ele>54.33</ele><time>2026-08-31T23:55:32Z</time></trkpt><trkpt lat="59.5234964602" lon="31.1847960670"><ele>53.82</ele><time>2026-08-31T23:55:36Z</time></trkpt><trkpt lat="59.5234900899" lon="31.1848956440"><ele>53.84</ele><time>2026-08-31T23:55:40Z</time></trkpt><trkpt lat="59.5234836359" lon="31.1849882640"><ele>53.46</ele><time>2026-08-31T23:55:46Z</time></trkpt><trkpt lat="59.5234450791" lon="31.1851325165"><ele>52.97</ele><time>2026-08-31T23:55:57Z</time></trkpt><trkpt lat="59.5234278962" lon="31.1852281541"><ele>52.75</ele><time>2026-08-31T23:56:19Z</time></trkpt><trkpt lat="59.5234699734" lon="31.1852488574"><ele>52.54</ele><time>2026-08-31T23:56:40Z</time></trkpt><trkpt lat="59.5234624296" lon="31.1853558104"><ele>52.19</ele><time>2026-08-31T23:56:53Z</time></trkpt><trkpt lat="59.5233962964" lon="31.1854270566"><ele>51.90</ele><time>2026-08-31T23:57:06Z</time></trkpt><trkpt lat="59.5233371202" lon="31.1854987219"><ele>51.84</ele><time>2026-08-31T23:57:23Z</time></trkpt><trkpt lat="59.5233108848" lon="31.1854957882"><ele>51.82</ele><time>2026-08-31T23:57:36Z</time></trkpt><trkpt lat="59.5233150758" lon="31.1857137177"><ele>51.70</ele><time>2026-08-31T23:57:55Z</time></trkpt><trkpt lat="59.5233248826" lon="31.1858276278"><ele>51.67</ele><time>2026-08-31T23:58:07Z</time></trkpt><trkpt lat="59.5232849848" lon="31.1859250255"><ele>51.52</ele><time>2026-08-31T23:58:23Z</time></trkpt><trkpt lat="59.5232859906" lon="31.1859347485"><ele>51.59</ele><time>2026-08-31T23:58:42Z</time></trkpt><trkpt lat="59.5232759323" lon="31.1859267857"><ele>51.80</ele><time>2026-08-31T23:58:49Z</time></trkpt><trkpt lat="59.5232589170" lon="31.1860968545"><ele>51.37</ele><time>2026-08-31T23:59:03Z</time></trkpt><trkpt lat="59.5232360344" lon="31.1861566175"><ele>51.54</ele><time>2026-08-31T23:59:13Z</time></trkpt><trkpt lat="59.5232165884" lon="31.1861903965"><ele>51.51</ele><time>2026-08-31T23:59:18Z</time></trkpt><trkpt lat="59.5231813844" lon="31.1863461323"><ele>51.05</ele><time>2026-08-31T23:59:33Z</time></trkpt><trkpt lat="59.5231676381" lon="31.1864059791"><ele>51.15</ele><time>2026-08-31T23:59:44Z</time></trkpt><trkpt lat="59.5231347810" lon="31.1864847690"><ele>50.99</ele><time>2026-08-31T23:59:53Z</time></trkpt><trkpt lat="59.5230920333" lon="31.1865472980"><ele>49.25</ele><time>2026-08-31T23:59:59Z</time></trkpt><trkpt lat="59.5230726711" lon="31.1865352280"><ele>51.31</ele><time>2026-09-01T00:00:04Z</time></trkpt><trkpt lat="59.5230619423" lon="31.1865492258"><ele>51.02</ele><time>2026-09-01T00:00:27Z</time></trkpt><trkpt lat="59.5230602659" lon="31.1865707673"><ele>51.06</ele><time>2026-09-01T00:00:41Z</time></trkpt><trkpt lat="59.5230644569" lon="31.1865709350"><ele>50.72</ele><time>2026-09-01T00:01:13Z</time></trkpt><trkpt lat="59.5230658818" lon="31.1865597870"><ele>50.79</ele><time>2026-09-01T00:01:48Z</time></trkpt><trkpt lat="59.5230674744" lon="31.1865544226"><ele>49.89</ele><time>2026-09-01T00:02:28Z</time></trkpt><trkpt lat="59.5230358746" lon="31.1866226513"><ele>50.31</ele><time>2026-09-01T00:02:56Z</time></trkpt><trkpt lat="59.5230345335" lon="31.1866360623"><ele>50.48</ele><time>2026-09-01T00:02:57Z</time></trkpt><trkpt lat="59.5230021793" lon="31.1867109966"><ele>50.95</ele><time>2026-09-01T00:03:06Z</time></trkpt><trkpt lat="59.5229013450" lon="31.1868633796"><ele>51.21</ele><time>2026-09-01T00:03:20Z</time></trkpt><trkpt lat="59.5228332840" lon="31.1869260762"><ele>51.42</ele><time>2026-09-01T00:03:28Z</time></trkpt><trkpt lat="59.5227504708" lon="31.1870718375"><ele>51.47</ele><time>2026-09-01T00:03:38Z</time></trkpt><trkpt lat="59.5227558352" lon="31.1873284914"><ele>51.39</ele><time>2026-09-01T00:03:50Z</time></trkpt><trkpt lat="59.5227329526" lon="31.1875049304"><ele>51.36</ele><time>2026-09-01T00:04:01Z</time></trkpt><trkpt lat="59.5227153506" lon="31.1875639390"><ele>51.38</ele><time>2026-09-01T00:04:04Z</time></trkpt><trkpt lat="59.5226738602" lon="31.1876785196"><ele>50.88</ele><time>2026-09-01T00:04:12Z</time></trkpt><trkpt lat="59.5226337947" lon="31.1878050864"><ele>50.46</ele><time>2026-09-01T00:04:24Z</time></trkpt><trkpt lat="59.5225929748" lon="31.1879207566"><ele>50.65</ele><time>2026-09-01T00:04:37Z</time></trkpt><trkpt lat="59.5225344691" lon="31.1879324913"><ele>50.27</ele><time>2026-09-01T00:05:01Z</time></trkpt><trkpt lat="59.5224368200" lon="31.1879559606"><ele>49.91</ele><time>2026-09-01T00:05:08Z</time></trkpt><trkpt lat="59.5224113390" lon="31.1879310664"><ele>49.93</ele><time>2026-09-01T00:05:11Z</time></trkpt><trkpt lat="59.5223684236" lon="31.1880073417"><ele>49.66</ele><time>2026-09-01T00:05:21Z</time></trkpt><trkpt lat="59.5223294478" lon="31.1881687772"><ele>49.31</ele><time>2026-09-01T00:05:34Z</time></trkpt><trkpt lat="59.5222956687" lon="31.1882937513"><ele>49.17</ele><time>2026-09-01T00:05:48Z</time></trkpt><trkpt lat="59.5223270170" lon="31.1884524208"><ele>49.24</ele><time>2026-09-01T00:06:04Z</time></trkpt><trkpt lat="59.5223798230" lon="31.1885813344"><ele>49.08</ele><time>2026-09-01T00:06:19Z</time></trkpt><trkpt lat="59.5224009454" lon="31.1887292750"><ele>49.39</ele><time>2026-09-01T00:06:34Z</time></trkpt><trkpt lat="59.5223968383" lon="31.1887422670"><ele>46.51</ele><time>2026-09-01T00:06:37Z</time></trkpt><trkpt lat="59.5223986823" lon="31.1887466256"><ele>46.51</ele><time>2026-09-01T00:06:39Z</time></trkpt><trkpt lat="59.5224286895" lon="31.1887339689"><ele>49.94</ele><time>2026-09-01T00:06:44Z</time></trkpt><trkpt lat="59.5224270970" lon="31.1887348909"><ele>49.57</ele><time>2026-09-01T00:06:45Z</time></trkpt><trkpt lat="59.5224062260" lon="31.1887257546"><ele>49.26</ele><time>2026-09-01T00:07:13Z</time></trkpt><trkpt lat="59.5223967545" lon="31.1887171213"><ele>49.55</ele><time>2026-09-01T00:07:56Z</time></trkpt><trkpt lat="59.5223877858" lon="31.1887134332"><ele>49.29</ele><time>2026-09-01T00:08:53Z</time></trkpt><trkpt lat="59.5223855227" lon="31.1887225695"><ele>49.39</ele><time>2026-09-01T00:09:16Z</time></trkpt><trkpt lat="59.5224176254" lon="31.1886942387"><ele>49.39</ele><time>2026-09-01T00:09:33Z</time></trkpt><trkpt lat="59.5223636460" lon="31.1887650657"><ele>49.14</ele><time>2026-09-01T00:09:52Z</time></trkpt><trkpt lat="59.5223711897" lon="31.1888177879"><ele>49.41</ele><time>2026-09-01T00:10:14Z</time></trkpt><trkpt lat="59.5223502349" lon="31.1888462864"><ele>50.32</ele><time>2026-09-01T00:10:39Z</time></trkpt><trkpt lat="59.5223322976" lon="31.1888287682"><ele>50.31</ele><time>2026-09-01T00:10:49Z</time></trkpt><trkpt lat="59.5223555993" lon="31.1888928898"><ele>49.50</ele><time>2026-09-01T00:11:06Z</time></trkpt><trkpt lat="59.5223581977" lon="31.1889473721"><ele>49.16</ele><time>2026-09-01T00:11:13Z</time></trkpt><trkpt lat="59.5223979279" lon="31.1890516430"><ele>50.02</ele><time>2026-09-01T00:11:27Z</time></trkpt><trkpt lat="59.5223941561" lon="31.1890170258"><ele>49.95</ele><time>2026-09-01T00:12:02Z</time></trkpt><trkpt lat="59.5223909710" lon="31.1890443508"><ele>49.77</ele><time>2026-09-01T00:12:48Z</time></trkpt><trkpt lat="59.5223616343" lon="31.1890756991"><ele>49.70</ele><time>2026-09-01T00:13:27Z</time></trkpt><trkpt lat="59.5223563537" lon="31.1890865956"><ele>49.53</ele><time>2026-09-01T00:13:28Z</time></trkpt><trkpt lat="59.5222935732" lon="31.1892282497"><ele>49.50</ele><time>2026-09-01T00:13:39Z</time></trkpt><trkpt lat="59.5222253446" lon="31.1893851589"><ele>49.42</ele><time>2026-09-01T00:13:52Z</time></trkpt><trkpt lat="59.5222086646" lon="31.1893938761"><ele>49.33</ele><time>2026-09-01T00:13:55Z</time></trkpt><trkpt lat="59.5221708622" lon="31.1894225422"><ele>49.59</ele><time>2026-09-01T00:14:07Z</time></trkpt><trkpt lat="59.5221171342" lon="31.1895513721"><ele>49.27</ele><time>2026-09-01T00:14:20Z</time></trkpt><trkpt lat="59.5221007895" lon="31.1897279788"><ele>49.29</ele><time>2026-09-01T00:14:34Z</time></trkpt><trkpt lat="59.5221136976" lon="31.1898636818"><ele>49.54</ele><time>2026-09-01T00:14:46Z</time></trkpt><trkpt lat="59.5221291203" lon="31.1899277195"><ele>49.37</ele><time>2026-09-01T00:14:58Z</time></trkpt><trkpt lat="59.5221301261" lon="31.1899837945"><ele>49.85</ele><time>2026-09-01T00:15:23Z</time></trkpt><trkpt lat="59.5221258514" lon="31.1900620814"><ele>49.87</ele><time>2026-09-01T00:15:42Z</time></trkpt><trkpt lat="59.5220716204" lon="31.1900748219"><ele>49.75</ele><time>2026-09-01T00:15:57Z</time></trkpt><trkpt lat="59.5220633224" lon="31.1903194897"><ele>49.73</ele><time>2026-09-01T00:16:12Z</time></trkpt><trkpt lat="59.5220167190" lon="31.1903442163"><ele>49.71</ele><time>2026-09-01T00:16:19Z</time></trkpt><trkpt lat="59.5219443832" lon="31.1904520914"><ele>49.90</ele><time>2026-09-01T00:16:32Z</time></trkpt><trkpt lat="59.5218852907" lon="31.1905234214"><ele>49.82</ele><time>2026-09-01T00:16:44Z</time></trkpt><trkpt lat="59.5218371786" lon="31.1905535962"><ele>49.79</ele><time>2026-09-01T00:16:53Z</time></trkpt><trkpt lat="59.5217468217" lon="31.1906733736"><ele>49.88</ele><time>2026-09-01T00:17:03Z</time></trkpt><trkpt lat="59.5217065886" lon="31.1907660775"><ele>49.57</ele><time>2026-09-01T00:17:16Z</time></trkpt><trkpt lat="59.5217234362" lon="31.1908669956"><ele>49.55</ele><time>2026-09-01T00:17:40Z</time></trkpt><trkpt lat="59.5217236876" lon="31.1908644810"><ele>49.34</ele><time>2026-09-01T00:17:42Z</time></trkpt><trkpt lat="59.5216955245" lon="31.1909279320"><ele>49.31</ele><time>2026-09-01T00:17:53Z</time></trkpt><trkpt lat="59.5217238553" lon="31.1909318715"><ele>49.52</ele><time>2026-09-01T00:18:12Z</time></trkpt><trkpt lat="59.5217133779" lon="31.1909455340"><ele>49.47</ele><time>2026-09-01T00:18:35Z</time></trkpt><trkpt lat="59.5216968656" lon="31.1909560952"><ele>49.32</ele><time>2026-09-01T00:19:05Z</time></trkpt><trkpt lat="59.5217030682" lon="31.1909698416"><ele>49.25</ele><time>2026-09-01T00:19:29Z</time></trkpt><trkpt lat="59.5217159763" lon="31.1909495573"><ele>49.40</ele><time>2026-09-01T00:19:54Z</time></trkpt><trkpt lat="59.5216840412" lon="31.1910180375"><ele>48.94</ele><time>2026-09-01T00:20:38Z</time></trkpt><trkpt lat="59.5216804370" lon="31.1911392398"><ele>48.55</ele><time>2026-09-01T00:20:52Z</time></trkpt><trkpt lat="59.5216869749" lon="31.1911906209"><ele>48.19</ele><time>2026-09-01T00:21:11Z</time></trkpt><trkpt lat="59.5217110310" lon="31.1912527308"><ele>46.20</ele><time>2026-09-01T00:21:27Z</time></trkpt><trkpt lat="59.5217137970" lon="31.1912749428"><ele>49.30</ele><time>2026-09-01T00:21:28Z</time></trkpt><trkpt lat="59.5217227656" lon="31.1913755257"><ele>47.92</ele><time>2026-09-01T00:21:44Z</time></trkpt><trkpt lat="59.5217341650" lon="31.1914425809"><ele>48.14</ele><time>2026-09-01T00:21:58Z</time></trkpt><trkpt lat="59.5217600651" lon="31.1915086303"><ele>48.50</ele><time>2026-09-01T00:22:14Z</time></trkpt><trkpt lat="59.5217617415" lon="31.1915373802"><ele>49.38</ele><time>2026-09-01T00:22:28Z</time></trkpt><trkpt lat="59.5217367634" lon="31.1917119753"><ele>48.50</ele><time>2026-09-01T00:22:42Z</time></trkpt><trkpt lat="59.5217194967" lon="31.1917867418"><ele>48.32</ele><time>2026-09-01T00:23:05Z</time></trkpt><trkpt lat="59.5216931775" lon="31.1918191798"><ele>48.60</ele><time>2026-09-01T00:23:18Z</time></trkpt><trkpt lat="59.5217339974" lon="31.1919495184"><ele>48.49</ele><time>2026-09-01T00:23:35Z</time></trkpt><trkpt lat="59.5217146352" lon="31.1921122950"><ele>48.36</ele><time>2026-09-01T00:23:50Z</time></trkpt><trkpt lat="59.5217499230" lon="31.1921484210"><ele>48.35</ele><time>2026-09-01T00:24:12Z</time></trkpt><trkpt lat="59.5218455605" lon="31.1922440585"><ele>48.60</ele><time>2026-09-01T00:24:27Z</time></trkpt><trkpt lat="59.5218907390" lon="31.1922538653"><ele>48.58</ele><time>2026-09-01T00:24:34Z</time></trkpt><trkpt lat="59.5219861250" lon="31.1921767518"><ele>49.07</ele><time>2026-09-01T00:24:46Z</time></trkpt><trkpt lat="59.5220064931" lon="31.1921981256"><ele>49.39</ele><time>2026-09-01T00:24:51Z</time></trkpt><trkpt lat="59.5220895577" lon="31.1921898276"><ele>49.50</ele><time>2026-09-01T00:25:04Z</time></trkpt><trkpt lat="59.5221092552" lon="31.1922244448"><ele>49.91</ele><time>2026-09-01T00:25:12Z</time></trkpt><trkpt lat="59.5221286174" lon="31.1924388539"><ele>48.93</ele><time>2026-09-01T00:25:25Z</time></trkpt><trkpt lat="59.5221616421" lon="31.1925458908"><ele>48.99</ele><time>2026-09-01T00:25:44Z</time></trkpt><trkpt lat="59.5222262666" lon="31.1925653368"><ele>48.67</ele><time>2026-09-01T00:25:55Z</time></trkpt><trkpt lat="59.5222939923" lon="31.1926448811"><ele>49.01</ele><time>2026-09-01T00:26:06Z</time></trkpt><trkpt lat="59.5223266818" lon="31.1927320529"><ele>48.40</ele><time>2026-09-01T00:26:18Z</time></trkpt><trkpt lat="59.5222581178" lon="31.1928147823"><ele>48.83</ele><time>2026-09-01T00:26:33Z</time></trkpt><trkpt lat="59.5222018752" lon="31.1929206457"><ele>48.72</ele><time>2026-09-01T00:26:44Z</time></trkpt><trkpt lat="59.5221041422" lon="31.1929402594"><ele>48.55</ele><time>2026-09-01T00:26:58Z</time></trkpt><trkpt lat="59.5219974406" lon="31.1928948294"><ele>48.17</ele><time>2026-09-01T00:27:10Z</time></trkpt><trkpt lat="59.5219301339" lon="31.1929996870"><ele>47.99</ele><time>2026-09-01T00:27:21Z</time></trkpt><trkpt lat="59.5219096821" lon="31.1930859368"><ele>48.01</ele><time>2026-09-01T00:27:34Z</time></trkpt><trkpt lat="59.5219042338" lon="31.1931692529"><ele>47.85</ele><time>2026-09-01T00:27:42Z</time></trkpt><trkpt lat="59.5218852907" lon="31.1931976676"><ele>47.92</ele><time>2026-09-01T00:27:52Z</time></trkpt><trkpt lat="59.5219020545" lon="31.1931094900"><ele>47.93</ele><time>2026-09-01T00:28:05Z</time></trkpt><trkpt lat="59.5219229255" lon="31.1930330470"><ele>47.92</ele><time>2026-09-01T00:28:16Z</time></trkpt><trkpt lat="59.5219587162" lon="31.1930638924"><ele>48.09</ele><time>2026-09-01T00:28:23Z</time></trkpt><trkpt lat="59.5220164675" lon="31.1932604481"><ele>48.56</ele><time>2026-09-01T00:28:36Z</time></trkpt><trkpt lat="59.5220414456" lon="31.1932830792"><ele>42.90</ele><time>2026-09-01T00:28:48Z</time></trkpt><trkpt lat="59.5220433734" lon="31.1932891980"><ele>48.63</ele><time>2026-09-01T00:28:49Z</time></trkpt><trkpt lat="59.5220820978" lon="31.1933802254"><ele>48.38</ele><time>2026-09-01T00:29:02Z</time></trkpt><trkpt lat="59.5221158769" lon="31.1934979912"><ele>47.99</ele><time>2026-09-01T00:29:15Z</time></trkpt><trkpt lat="59.5220967662" lon="31.1935228854"><ele>48.37</ele><time>2026-09-01T00:29:37Z</time></trkpt><trkpt lat="59.5221680962" lon="31.1934555788"><ele>48.24</ele><time>2026-09-01T00:29:52Z</time></trkpt><trkpt lat="59.5221688505" lon="31.1934869271"><ele>44.46</ele><time>2026-09-01T00:30:05Z</time></trkpt><trkpt lat="59.5221697725" lon="31.1934890226"><ele>44.46</ele><time>2026-09-01T00:30:06Z</time></trkpt><trkpt lat="59.5221704431" lon="31.1935015954"><ele>48.85</ele><time>2026-09-01T00:30:10Z</time></trkpt><trkpt lat="59.5221719518" lon="31.1935031880"><ele>48.16</ele><time>2026-09-01T00:30:11Z</time></trkpt><trkpt lat="59.5222087484" lon="31.1936159246"><ele>48.12</ele><time>2026-09-01T00:30:26Z</time></trkpt><trkpt lat="59.5222409349" lon="31.1937717441"><ele>48.13</ele><time>2026-09-01T00:30:40Z</time></trkpt><trkpt lat="59.5222334750" lon="31.1939284857"><ele>48.08</ele><time>2026-09-01T00:30:52Z</time></trkpt><trkpt lat="59.5222889632" lon="31.1939973850"><ele>48.13</ele><time>2026-09-01T00:31:01Z</time></trkpt><trkpt lat="59.5222681761" lon="31.1940932740"><ele>48.08</ele><time>2026-09-01T00:31:14Z</time></trkpt><trkpt lat="59.5222224947" lon="31.1940882448"><ele>47.61</ele><time>2026-09-01T00:31:36Z</time></trkpt><trkpt lat="59.5222287811" lon="31.1941139773"><ele>48.26</ele><time>2026-09-01T00:31:59Z</time></trkpt><trkpt lat="59.5222377498" lon="31.1940892506"><ele>47.77</ele><time>2026-09-01T00:32:41Z</time></trkpt><trkpt lat="59.5222446229" lon="31.1940991413"><ele>47.64</ele><time>2026-09-01T00:33:15Z</time></trkpt><trkpt lat="59.5222197287" lon="31.1940970458"><ele>47.89</ele><time>2026-09-01T00:33:39Z</time></trkpt><trkpt lat="59.5222476404" lon="31.1940976325"><ele>47.39</ele><time>2026-09-01T00:34:30Z</time></trkpt><trkpt lat="59.5222660806" lon="31.1941472534"><ele>47.23</ele><time>2026-09-01T00:34:49Z</time></trkpt><trkpt lat="59.5223538391" lon="31.1941611674"><ele>47.39</ele><time>2026-09-01T00:35:04Z</time></trkpt><trkpt lat="59.5223762188" lon="31.1940893345"><ele>47.48</ele><time>2026-09-01T00:35:25Z</time></trkpt><trkpt lat="59.5223927312" lon="31.1941074394"><ele>47.70</ele><time>2026-09-01T00:35:29Z</time></trkpt><trkpt lat="59.5224738680" lon="31.1941048410"><ele>47.75</ele><time>2026-09-01T00:35:42Z</time></trkpt><trkpt lat="59.5225225668" lon="31.1941138934"><ele>47.45</ele><time>2026-09-01T00:35:55Z</time></trkpt><trkpt lat="59.5225478802" lon="31.1941498518"><ele>48.07</ele><time>2026-09-01T00:36:09Z</time></trkpt><trkpt lat="59.5225398336" lon="31.1941383686"><ele>47.44</ele><time>2026-09-01T00:36:14Z</time></trkpt><trkpt lat="59.5225172862" lon="31.1942221876"><ele>47.38</ele><time>2026-09-01T00:36:27Z</time></trkpt><trkpt lat="59.5225171186" lon="31.1942676175"><ele>48.59</ele><time>2026-09-01T00:36:42Z</time></trkpt><trkpt lat="59.5225431863" lon="31.1942774244"><ele>47.08</ele><time>2026-09-01T00:37:05Z</time></trkpt><trkpt lat="59.5225749537" lon="31.1942752451"><ele>47.33</ele><time>2026-09-01T00:37:26Z</time></trkpt><trkpt lat="59.5225669909" lon="31.1943052523"><ele>47.20</ele><time>2026-09-01T00:37:51Z</time></trkpt><trkpt lat="59.5225429349" lon="31.1943456531"><ele>47.25</ele><time>2026-09-01T00:37:53Z</time></trkpt><trkpt lat="59.5225098263" lon="31.1944442242"><ele>47.21</ele><time>2026-09-01T00:37:57Z</time></trkpt><trkpt lat="59.5224547572" lon="31.1945583858"><ele>46.82</ele><time>2026-09-01T00:38:09Z</time></trkpt><trkpt lat="59.5224090759" lon="31.1947244313"><ele>47.02</ele><time>2026-09-01T00:38:27Z</time></trkpt><trkpt lat="59.5223751292" lon="31.1947801709"><ele>46.87</ele><time>2026-09-01T00:38:44Z</time></trkpt><trkpt lat="59.5223658253" lon="31.1947729625"><ele>48.00</ele><time>2026-09-01T00:39:01Z</time></trkpt><trkpt lat="59.5223692618" lon="31.1947699450"><ele>46.82</ele><time>2026-09-01T00:39:03Z</time></trkpt><trkpt lat="59.5223542582" lon="31.1947235931"><ele>46.80</ele><time>2026-09-01T00:39:40Z</time></trkpt><trkpt lat="59.5223455410" lon="31.1948170513"><ele>47.09</ele><time>2026-09-01T00:40:05Z</time></trkpt><trkpt lat="59.5223153662" lon="31.1948127765"><ele>46.87</ele><time>2026-09-01T00:40:09Z</time></trkpt><trkpt lat="59.5222477242" lon="31.1948809214"><ele>46.84</ele><time>2026-09-01T00:40:19Z</time></trkpt><trkpt lat="59.5222385880" lon="31.1949249264"><ele>46.89</ele><time>2026-09-01T00:40:23Z</time></trkpt><trkpt lat="59.5221902244" lon="31.1949697696"><ele>46.54</ele><time>2026-09-01T00:40:28Z</time></trkpt><trkpt lat="59.5221616421" lon="31.1950661615"><ele>46.88</ele><time>2026-09-01T00:40:41Z</time></trkpt><trkpt lat="59.5221629832" lon="31.1950800754"><ele>46.77</ele><time>2026-09-01T00:40:42Z</time></trkpt><trkpt lat="59.5221275277" lon="31.1951615475"><ele>46.54</ele><time>2026-09-01T00:40:47Z</time></trkpt><trkpt lat="59.5221226662" lon="31.1951958295"><ele>46.79</ele><time>2026-09-01T00:40:52Z</time></trkpt><trkpt lat="59.5220723748" lon="31.1953472067"><ele>46.93</ele><time>2026-09-01T00:41:06Z</time></trkpt><trkpt lat="59.5220339857" lon="31.1954690795"><ele>46.89</ele><time>2026-09-01T00:41:22Z</time></trkpt><trkpt lat="59.5220165513" lon="31.1954878550"><ele>46.61</ele><time>2026-09-01T00:41:26Z</time></trkpt><trkpt lat="59.5219959319" lon="31.1955399904"><ele>44.47</ele><time>2026-09-01T00:41:34Z</time></trkpt><trkpt lat="59.5219459757" lon="31.1955371406"><ele>47.11</ele><time>2026-09-01T00:41:51Z</time></trkpt><trkpt lat="59.5219120290" lon="31.1956512183"><ele>46.81</ele><time>2026-09-01T00:42:01Z</time></trkpt><trkpt lat="59.5218421239" lon="31.1958119832"><ele>43.02</ele><time>2026-09-01T00:42:12Z</time></trkpt><trkpt lat="59.5218214206" lon="31.1958462652"><ele>44.47</ele><time>2026-09-01T00:42:13Z</time></trkpt><trkpt lat="59.5218151342" lon="31.1958841514"><ele>47.72</ele><time>2026-09-01T00:42:15Z</time></trkpt><trkpt lat="59.5218137931" lon="31.1958971433"><ele>47.76</ele><time>2026-09-01T00:42:16Z</time></trkpt><trkpt lat="59.5217956882" lon="31.1959348619"><ele>47.07</ele><time>2026-09-01T00:42:20Z</time></trkpt><trkpt lat="59.5217666868" lon="31.1961737461"><ele>46.84</ele><time>2026-09-01T00:42:33Z</time></trkpt><trkpt lat="59.5217128750" lon="31.1962479260"><ele>41.88</ele><time>2026-09-01T00:42:38Z</time></trkpt><trkpt lat="59.5217084326" lon="31.1962607503"><ele>46.58</ele><time>2026-09-01T00:42:39Z</time></trkpt><trkpt lat="59.5217040740" lon="31.1962924339"><ele>50.69</ele><time>2026-09-01T00:42:40Z</time></trkpt><trkpt lat="59.5216905791" lon="31.1962953676"><ele>48.71</ele><time>2026-09-01T00:42:41Z</time></trkpt><trkpt lat="59.5216740668" lon="31.1962930206"><ele>46.80</ele><time>2026-09-01T00:42:44Z</time></trkpt><trkpt lat="59.5216642600" lon="31.1963068508"><ele>46.19</ele><time>2026-09-01T00:42:56Z</time></trkpt><trkpt lat="59.5216628350" lon="31.1963264644"><ele>48.44</ele><time>2026-09-01T00:43:08Z</time></trkpt><trkpt lat="59.5216588117" lon="31.1963143945"><ele>45.36</ele><time>2026-09-01T00:43:11Z</time></trkpt><trkpt lat="59.5216614939" lon="31.1963115446"><ele>48.38</ele><time>2026-09-01T00:43:12Z</time></trkpt><trkpt lat="59.5216566324" lon="31.1963134725"><ele>47.73</ele><time>2026-09-01T00:43:13Z</time></trkpt><trkpt lat="59.5216563810" lon="31.1962896679"><ele>47.11</ele><time>2026-09-01T00:43:45Z</time></trkpt><trkpt lat="59.5216403715" lon="31.1963101197"><ele>46.76</ele><time>2026-09-01T00:44:37Z</time></trkpt><trkpt lat="59.5216388628" lon="31.1963222735"><ele>46.91</ele><time>2026-09-01T00:44:59Z</time></trkpt><trkpt lat="59.5216377731" lon="31.1963445693"><ele>47.05</ele><time>2026-09-01T00:45:51Z</time></trkpt><trkpt lat="59.5216246974" lon="31.1964476667"><ele>41.50</ele><time>2026-09-01T00:46:04Z</time></trkpt><trkpt lat="59.5216240268" lon="31.1964493431"><ele>41.50</ele><time>2026-09-01T00:46:05Z</time></trkpt><trkpt lat="59.5216210932" lon="31.1964294780"><ele>47.49</ele><time>2026-09-01T00:46:17Z</time></trkpt><trkpt lat="59.5216193330" lon="31.1964316573"><ele>46.77</ele><time>2026-09-01T00:46:18Z</time></trkpt><trkpt lat="59.5216097776" lon="31.1965620797"><ele>46.57</ele><time>2026-09-01T00:46:29Z</time></trkpt><trkpt lat="59.5215654373" lon="31.1967791710"><ele>46.62</ele><time>2026-09-01T00:46:41Z</time></trkpt><trkpt lat="59.5215402916" lon="31.1969436239"><ele>46.62</ele><time>2026-09-01T00:46:54Z</time></trkpt><trkpt lat="59.5215162355" lon="31.1971140280"><ele>46.34</ele><time>2026-09-01T00:47:09Z</time></trkpt><trkpt lat="59.5215566363" lon="31.1972412653"><ele>46.44</ele><time>2026-09-01T00:47:28Z</time></trkpt><trkpt lat="59.5215669461" lon="31.1972909700"><ele>46.65</ele><time>2026-09-01T00:47:42Z</time></trkpt><trkpt lat="59.5215092786" lon="31.1972829234"><ele>46.98</ele><time>2026-09-01T00:48:41Z</time></trkpt><trkpt lat="59.5215131342" lon="31.1972329672"><ele>46.87</ele><time>2026-09-01T00:48:59Z</time></trkpt><trkpt lat="59.5214693807" lon="31.1970991921"><ele>46.54</ele><time>2026-09-01T00:49:10Z</time></trkpt><trkpt lat="59.5214423910" lon="31.1970801651"><ele>46.48</ele><time>2026-09-01T00:49:24Z</time></trkpt><trkpt lat="59.5214624237" lon="31.1971247569"><ele>46.51</ele><time>2026-09-01T00:49:51Z</time></trkpt><trkpt lat="59.5215063449" lon="31.1971685942"><ele>46.53</ele><time>2026-09-01T00:50:07Z</time></trkpt><trkpt lat="59.5215491764" lon="31.1972599570"><ele>46.96</ele><time>2026-09-01T00:50:23Z</time></trkpt><trkpt lat="59.5215720590" lon="31.1972603761"><ele>46.39</ele><time>2026-09-01T00:50:47Z</time></trkpt><trkpt lat="59.5215418842" lon="31.1972817499"><ele>48.08</ele><time>2026-09-01T00:51:08Z</time></trkpt><trkpt lat="59.5215283893" lon="31.1972839292"><ele>47.05</ele><time>2026-09-01T00:51:10Z</time></trkpt><trkpt lat="59.5215015672" lon="31.1973244976"><ele>46.57</ele><time>2026-09-01T00:51:33Z</time></trkpt><trkpt lat="59.5215648506" lon="31.1974552553"><ele>46.43</ele><time>2026-09-01T00:51:48Z</time></trkpt><trkpt lat="59.5215446502" lon="31.1976033635"><ele>46.73</ele><time>2026-09-01T00:52:01Z</time></trkpt><trkpt lat="59.5214956999" lon="31.1975587718"><ele>46.41</ele><time>2026-09-01T00:52:22Z</time></trkpt><trkpt lat="59.5214978792" lon="31.1975984182"><ele>46.17</ele><time>2026-09-01T00:52:35Z</time></trkpt><trkpt lat="59.5215441473" lon="31.1975233164"><ele>46.59</ele><time>2026-09-01T00:52:44Z</time></trkpt><trkpt lat="59.5216031559" lon="31.1974808201"><ele>46.36</ele><time>2026-09-01T00:52:57Z</time></trkpt><trkpt lat="59.5216663554" lon="31.1976390705"><ele>46.51</ele><time>2026-09-01T00:53:14Z</time></trkpt><trkpt lat="59.5217022300" lon="31.1979218759"><ele>46.66</ele><time>2026-09-01T00:53:30Z</time></trkpt><trkpt lat="59.5217202511" lon="31.1980687268"><ele>46.55</ele><time>2026-09-01T00:53:50Z</time></trkpt><trkpt lat="59.5217507612" lon="31.1982173380"><ele>46.43</ele><time>2026-09-01T00:54:13Z</time></trkpt><trkpt lat="59.5217320696" lon="31.1983178370"><ele>46.38</ele><time>2026-09-01T00:54:26Z</time></trkpt><trkpt lat="59.5217034873" lon="31.1984518636"><ele>46.80</ele><time>2026-09-01T00:54:34Z</time></trkpt><trkpt lat="59.5216964465" lon="31.1986274645"><ele>47.00</ele><time>2026-09-01T00:54:46Z</time></trkpt><trkpt lat="59.5216840412" lon="31.1986474972"><ele>46.15</ele><time>2026-09-01T00:55:15Z</time></trkpt><trkpt lat="59.5217193291" lon="31.1986632552"><ele>46.99</ele><time>2026-09-01T00:55:29Z</time></trkpt><trkpt lat="59.5217337459" lon="31.1987258680"><ele>47.76</ele><time>2026-09-01T00:55:45Z</time></trkpt><trkpt lat="59.5217346679" lon="31.1987218447"><ele>44.39</ele><time>2026-09-01T00:55:54Z</time></trkpt><trkpt lat="59.5217357576" lon="31.1987257842"><ele>48.09</ele><time>2026-09-01T00:55:56Z</time></trkpt><trkpt lat="59.5217094384" lon="31.1987624969"><ele>46.94</ele><time>2026-09-01T00:56:28Z</time></trkpt><trkpt lat="59.5216988772" lon="31.1987489183"><ele>46.74</ele><time>2026-09-01T00:56:58Z</time></trkpt><trkpt lat="59.5216625836" lon="31.1987261195"><ele>46.65</ele><time>2026-09-01T00:57:22Z</time></trkpt><trkpt lat="59.5216634218" lon="31.1987312324"><ele>45.18</ele><time>2026-09-01T00:57:38Z</time></trkpt><trkpt lat="59.5216747373" lon="31.1987018958"><ele>46.97</ele><time>2026-09-01T00:57:44Z</time></trkpt><trkpt lat="59.5216946863" lon="31.1987023987"><ele>46.61</ele><time>2026-09-01T00:58:00Z</time></trkpt><trkpt lat="59.5216565486" lon="31.1989980284"><ele>46.30</ele><time>2026-09-01T00:59:40Z</time></trkpt><trkpt lat="59.5216662716" lon="31.1989628244"><ele>43.25</ele><time>2026-09-01T00:59:41Z</time></trkpt><trkpt lat="59.5216697920" lon="31.1989386845"><ele>47.03</ele><time>2026-09-01T00:59:42Z</time></trkpt><trkpt lat="59.5217374340" lon="31.1988666840"><ele>46.71</ele><time>2026-09-01T00:59:53Z</time></trkpt><trkpt lat="59.5217285492" lon="31.1988173984"><ele>46.85</ele><time>2026-09-01T01:00:09Z</time></trkpt><trkpt lat="59.5216735639" lon="31.1986546218"><ele>45.85</ele><time>2026-09-01T01:00:27Z</time></trkpt><trkpt lat="59.5216836222" lon="31.1988057476"><ele>46.90</ele><time>2026-09-01T01:00:45Z</time></trkpt><trkpt lat="59.5216717198" lon="31.1988129560"><ele>47.03</ele><time>2026-09-01T01:01:00Z</time></trkpt><trkpt lat="59.5216809399" lon="31.1989631597"><ele>47.22</ele><time>2026-09-01T01:01:15Z</time></trkpt><trkpt lat="59.5217337459" lon="31.1991348211"><ele>47.58</ele><time>2026-09-01T01:01:28Z</time></trkpt><trkpt lat="59.5217064209" lon="31.1992542632"><ele>47.57</ele><time>2026-09-01T01:01:39Z</time></trkpt><trkpt lat="59.5217123721" lon="31.1994278524"><ele>47.93</ele><time>2026-09-01T01:01:51Z</time></trkpt><trkpt lat="59.5217227656" lon="31.1995851807"><ele>47.32</ele><time>2026-09-01T01:02:04Z</time></trkpt><trkpt lat="59.5217221789" lon="31.1996672396"><ele>48.36</ele><time>2026-09-01T01:02:21Z</time></trkpt><trkpt lat="59.5216752402" lon="31.1999124940"><ele>48.44</ele><time>2026-09-01T01:02:33Z</time></trkpt><trkpt lat="59.5216352586" lon="31.2000810541"><ele>48.70</ele><time>2026-09-01T01:02:43Z</time></trkpt><trkpt lat="59.5216647629" lon="31.2003299966"><ele>48.43</ele><time>2026-09-01T01:02:56Z</time></trkpt><trkpt lat="59.5216511842" lon="31.2005593255"><ele>48.71</ele><time>2026-09-01T01:03:10Z</time></trkpt><trkpt lat="59.5215874817" lon="31.2007201742"><ele>49.09</ele><time>2026-09-01T01:03:26Z</time></trkpt><trkpt lat="59.5215379447" lon="31.2008995470"><ele>49.18</ele><time>2026-09-01T01:03:38Z</time></trkpt><trkpt lat="59.5215439796" lon="31.2010422908"><ele>49.00</ele><time>2026-09-01T01:03:55Z</time></trkpt><trkpt lat="59.5215082727" lon="31.2012126949"><ele>48.80</ele><time>2026-09-01T01:04:09Z</time></trkpt><trkpt lat="59.5215037465" lon="31.2012277823"><ele>48.97</ele><time>2026-09-01T01:04:10Z</time></trkpt><trkpt lat="59.5214389544" lon="31.2014117651"><ele>47.12</ele><time>2026-09-01T01:04:20Z</time></trkpt><trkpt lat="59.5214407984" lon="31.2014729530"><ele>48.87</ele><time>2026-09-01T01:04:27Z</time></trkpt><trkpt lat="59.5214806963" lon="31.2015219871"><ele>48.57</ele><time>2026-09-01T01:04:50Z</time></trkpt><trkpt lat="59.5214932691" lon="31.2015416846"><ele>48.11</ele><time>2026-09-01T01:04:53Z</time></trkpt><trkpt lat="59.5214845520" lon="31.2016902957"><ele>49.19</ele><time>2026-09-01T01:05:06Z</time></trkpt><trkpt lat="59.5214259624" lon="31.2018923834"><ele>49.83</ele><time>2026-09-01T01:05:22Z</time></trkpt><trkpt lat="59.5214578975" lon="31.2021068763"><ele>50.07</ele><time>2026-09-01T01:05:36Z</time></trkpt><trkpt lat="59.5214768406" lon="31.2022538949"><ele>50.43</ele><time>2026-09-01T01:05:57Z</time></trkpt><trkpt lat="59.5214697998" lon="31.2022561580"><ele>50.62</ele><time>2026-09-01T01:06:29Z</time></trkpt><trkpt lat="59.5214748289" lon="31.2022800464"><ele>50.64</ele><time>2026-09-01T01:07:19Z</time></trkpt><trkpt lat="59.5215062611" lon="31.2022196967"><ele>50.42</ele><time>2026-09-01T01:07:55Z</time></trkpt><trkpt lat="59.5214899164" lon="31.2022709940"><ele>50.09</ele><time>2026-09-01T01:08:22Z</time></trkpt><trkpt lat="59.5213956200" lon="31.2023529690"><ele>49.11</ele><time>2026-09-01T01:08:34Z</time></trkpt><trkpt lat="59.5213891659" lon="31.2024644483"><ele>48.66</ele><time>2026-09-01T01:08:48Z</time></trkpt><trkpt lat="59.5214209333" lon="31.2025424838"><ele>48.33</ele><time>2026-09-01T01:09:11Z</time></trkpt><trkpt lat="59.5214345958" lon="31.2026976328"><ele>48.46</ele><time>2026-09-01T01:09:27Z</time></trkpt><trkpt lat="59.5214231964" lon="31.2027672864"><ele>48.29</ele><time>2026-09-01T01:09:36Z</time></trkpt><trkpt lat="59.5214388706" lon="31.2028620858"><ele>48.47</ele><time>2026-09-01T01:09:46Z</time></trkpt><trkpt lat="59.5214356855" lon="31.2028381974"><ele>48.59</ele><time>2026-09-01T01:10:04Z</time></trkpt><trkpt lat="59.5214068517" lon="31.2027618382"><ele>48.25</ele><time>2026-09-01T01:10:18Z</time></trkpt><trkpt lat="59.5213922672" lon="31.2027283944"><ele>49.06</ele><time>2026-09-01T01:10:42Z</time></trkpt><trkpt lat="59.5213917643" lon="31.2026968785"><ele>48.64</ele><time>2026-09-01T01:11:10Z</time></trkpt><trkpt lat="59.5214032475" lon="31.2027085293"><ele>48.40</ele><time>2026-09-01T01:11:45Z</time></trkpt><trkpt lat="59.5214201789" lon="31.2026529573"><ele>48.68</ele><time>2026-09-01T01:12:05Z</time></trkpt><trkpt lat="59.5214255434" lon="31.2026272248"><ele>48.03</ele><time>2026-09-01T01:12:35Z</time></trkpt><trkpt lat="59.5214071870" lon="31.2026802823"><ele>48.81</ele><time>2026-09-01T01:13:09Z</time></trkpt><trkpt lat="59.5214106236" lon="31.2026772648"><ele>48.94</ele><time>2026-09-01T01:13:51Z</time></trkpt><trkpt lat="59.5214301534" lon="31.2025707308"><ele>49.03</ele><time>2026-09-01T01:14:19Z</time></trkpt><trkpt lat="59.5213855617" lon="31.2024589162"><ele>49.14</ele><time>2026-09-01T01:14:47Z</time></trkpt><trkpt lat="59.5213588234" lon="31.2024015840"><ele>49.03</ele><time>2026-09-01T01:15:01Z</time></trkpt><trkpt lat="59.5213731565" lon="31.2024079543"><ele>50.64</ele><time>2026-09-01T01:15:10Z</time></trkpt><trkpt lat="59.5214095339" lon="31.2024728302"><ele>49.26</ele><time>2026-09-01T01:15:38Z</time></trkpt><trkpt lat="59.5214129705" lon="31.2026919331"><ele>49.01</ele><time>2026-09-01T01:15:51Z</time></trkpt><trkpt lat="59.5214505214" lon="31.2027969584"><ele>49.31</ele><time>2026-09-01T01:16:07Z</time></trkpt><trkpt lat="59.5214247890" lon="31.2028757483"><ele>49.39</ele><time>2026-09-01T01:16:33Z</time></trkpt><trkpt lat="59.5213853940" lon="31.2029895745"><ele>49.10</ele><time>2026-09-01T01:16:46Z</time></trkpt><trkpt lat="59.5213283133" lon="31.2030304782"><ele>48.78</ele><time>2026-09-01T01:17:03Z</time></trkpt><trkpt lat="59.5213012397" lon="31.2031406164"><ele>49.15</ele><time>2026-09-01T01:17:18Z</time></trkpt><trkpt lat="59.5212784410" lon="31.2033204921"><ele>49.10</ele><time>2026-09-01T01:17:33Z</time></trkpt><trkpt lat="59.5213281456" lon="31.2035213225"><ele>49.06</ele><time>2026-09-01T01:17:49Z</time></trkpt><trkpt lat="59.5213429816" lon="31.2035900541"><ele>48.99</ele><time>2026-09-01T01:17:59Z</time></trkpt><trkpt lat="59.5213375334" lon="31.2036416866"><ele>49.18</ele><time>2026-09-01T01:18:18Z</time></trkpt><trkpt lat="59.5213635173" lon="31.2036252581"><ele>49.24</ele><time>2026-09-01T01:18:42Z</time></trkpt><trkpt lat="59.5213700552" lon="31.2037080713"><ele>48.89</ele><time>2026-09-01T01:19:07Z</time></trkpt><trkpt lat="59.5213985536" lon="31.2037161179"><ele>48.84</ele><time>2026-09-01T01:19:35Z</time></trkpt><trkpt lat="59.5213616733" lon="31.2038786430"><ele>50.09</ele><time>2026-09-01T01:19:57Z</time></trkpt><trkpt lat="59.5213091187" lon="31.2039717659"><ele>50.08</ele><time>2026-09-01T01:20:06Z</time></trkpt><trkpt lat="59.5212775189" lon="31.2040497176"><ele>49.39</ele><time>2026-09-01T01:20:22Z</time></trkpt><trkpt lat="59.5212863199" lon="31.2040428445"><ele>50.03</ele><time>2026-09-01T01:20:47Z</time></trkpt><trkpt lat="59.5213498548" lon="31.2041292619"><ele>49.99</ele><time>2026-09-01T01:21:03Z</time></trkpt><trkpt lat="59.5213842206" lon="31.2041213829"><ele>45.95</ele><time>2026-09-01T01:21:07Z</time></trkpt><trkpt lat="59.5213884953" lon="31.2041193713"><ele>49.52</ele><time>2026-09-01T01:21:08Z</time></trkpt><trkpt lat="59.5214478392" lon="31.2040978298"><ele>50.14</ele><time>2026-09-01T01:21:41Z</time></trkpt><trkpt lat="59.5214633457" lon="31.2040705886"><ele>48.07</ele><time>2026-09-01T01:21:51Z</time></trkpt><trkpt lat="59.5214606635" lon="31.2040843349"><ele>50.53</ele><time>2026-09-01T01:21:58Z</time></trkpt><trkpt lat="59.5215466619" lon="31.2042501289"><ele>49.66</ele><time>2026-09-01T01:22:11Z</time></trkpt><trkpt lat="59.5215407945" lon="31.2043752708"><ele>49.91</ele><time>2026-09-01T01:22:33Z</time></trkpt><trkpt lat="59.5215388667" lon="31.2045185175"><ele>49.28</ele><time>2026-09-01T01:22:50Z</time></trkpt><trkpt lat="59.5215314906" lon="31.2045956310"><ele>49.31</ele><time>2026-09-01T01:22:56Z</time></trkpt><trkpt lat="59.5215319935" lon="31.2048717309"><ele>49.09</ele><time>2026-09-01T01:23:12Z</time></trkpt><trkpt lat="59.5216013119" lon="31.2050133850"><ele>49.13</ele><time>2026-09-01T01:23:26Z</time></trkpt><trkpt lat="59.5215929300" lon="31.2050475832"><ele>47.09</ele><time>2026-09-01T01:23:30Z</time></trkpt><trkpt lat="59.5215909183" lon="31.2050451525"><ele>49.04</ele><time>2026-09-01T01:23:38Z</time></trkpt><trkpt lat="59.5215881523" lon="31.2050655205"><ele>49.06</ele><time>2026-09-01T01:23:48Z</time></trkpt><trkpt lat="59.5216421317" lon="31.2050643470"><ele>49.06</ele><time>2026-09-01T01:24:04Z</time></trkpt><trkpt lat="59.5216519386" lon="31.2050962821"><ele>49.81</ele><time>2026-09-01T01:24:16Z</time></trkpt><trkpt lat="59.5216558781" lon="31.2050926778"><ele>48.93</ele><time>2026-09-01T01:24:42Z</time></trkpt><trkpt lat="59.5216635894" lon="31.2051015627"><ele>49.04</ele><time>2026-09-01T01:25:23Z</time></trkpt><trkpt lat="59.5216419641" lon="31.2051143870"><ele>49.15</ele><time>2026-09-01T01:25:58Z</time></trkpt><trkpt lat="59.5216622483" lon="31.2051721383"><ele>49.61</ele><time>2026-09-01T01:26:31Z</time></trkpt><trkpt lat="59.5216920879" lon="31.2053911574"><ele>48.61</ele><time>2026-09-01T01:26:45Z</time></trkpt><trkpt lat="59.5217404515" lon="31.2055816781"><ele>48.75</ele><time>2026-09-01T01:26:59Z</time></trkpt><trkpt lat="59.5217127912" lon="31.2057684269"><ele>48.86</ele><time>2026-09-01T01:27:13Z</time></trkpt><trkpt lat="59.5217157248" lon="31.2059257552"><ele>48.66</ele><time>2026-09-01T01:27:24Z</time></trkpt><trkpt lat="59.5217210054" lon="31.2061092351"><ele>48.80</ele><time>2026-09-01T01:27:39Z</time></trkpt><trkpt lat="59.5216847956" lon="31.2063479517"><ele>48.72</ele><time>2026-09-01T01:27:53Z</time></trkpt><trkpt lat="59.5216467418" lon="31.2065926194"><ele>48.89</ele><time>2026-09-01T01:28:06Z</time></trkpt><trkpt lat="59.5216292236" lon="31.2066594232"><ele>45.10</ele><time>2026-09-01T01:28:13Z</time></trkpt><trkpt lat="59.5216336660" lon="31.2066743430"><ele>45.09</ele><time>2026-09-01T01:28:14Z</time></trkpt><trkpt lat="59.5216236915" lon="31.2068733294"><ele>49.07</ele><time>2026-09-01T01:28:25Z</time></trkpt><trkpt lat="59.5216209255" lon="31.2068989780"><ele>48.86</ele><time>2026-09-01T01:28:26Z</time></trkpt><trkpt lat="59.5216060895" lon="31.2070146482"><ele>48.71</ele><time>2026-09-01T01:28:39Z</time></trkpt><trkpt lat="59.5215997193" lon="31.2070531212"><ele>48.49</ele><time>2026-09-01T01:28:42Z</time></trkpt><trkpt lat="59.5215812791" lon="31.2072177418"><ele>48.37</ele><time>2026-09-01T01:28:55Z</time></trkpt><trkpt lat="59.5215591509" lon="31.2073314842"><ele>48.55</ele><time>2026-09-01T01:29:07Z</time></trkpt><trkpt lat="59.5215767529" lon="31.2073882297"><ele>48.40</ele><time>2026-09-01T01:29:11Z</time></trkpt><trkpt lat="59.5216406230" lon="31.2075991184"><ele>48.68</ele><time>2026-09-01T01:29:27Z</time></trkpt><trkpt lat="59.5216829516" lon="31.2077010423"><ele>38.96</ele><time>2026-09-01T01:29:39Z</time></trkpt><trkpt lat="59.5216842927" lon="31.2077021319"><ele>38.96</ele><time>2026-09-01T01:29:40Z</time></trkpt><trkpt lat="59.5216889866" lon="31.2077003717"><ele>48.65</ele><time>2026-09-01T01:29:44Z</time></trkpt><trkpt lat="59.5216890704" lon="31.2077020481"><ele>48.69</ele><time>2026-09-01T01:29:45Z</time></trkpt><trkpt lat="59.5216943510" lon="31.2076787464"><ele>48.61</ele><time>2026-09-01T01:30:14Z</time></trkpt><trkpt lat="59.5217050798" lon="31.2076983601"><ele>48.37</ele><time>2026-09-01T01:30:35Z</time></trkpt><trkpt lat="59.5216753241" lon="31.2077427842"><ele>48.25</ele><time>2026-09-01T01:31:04Z</time></trkpt><trkpt lat="59.5216853824" lon="31.2077041436"><ele>47.86</ele><time>2026-09-01T01:31:35Z</time></trkpt><trkpt lat="59.5216801856" lon="31.2076782435"><ele>48.46</ele><time>2026-09-01T01:31:59Z</time></trkpt><trkpt lat="59.5216745697" lon="31.2076848652"><ele>51.69</ele><time>2026-09-01T01:32:13Z</time></trkpt><trkpt lat="59.5216743182" lon="31.2076850329"><ele>49.79</ele><time>2026-09-01T01:32:14Z</time></trkpt><trkpt lat="59.5216758270" lon="31.2077779882"><ele>48.06</ele><time>2026-09-01T01:32:33Z</time></trkpt><trkpt lat="59.5216542017" lon="31.2079814170"><ele>48.05</ele><time>2026-09-01T01:32:48Z</time></trkpt><trkpt lat="59.5216407906" lon="31.2081342191"><ele>48.24</ele><time>2026-09-01T01:33:03Z</time></trkpt><trkpt lat="59.5216317382" lon="31.2082213908"><ele>48.16</ele><time>2026-09-01T01:33:17Z</time></trkpt><trkpt lat="59.5216176566" lon="31.2083983328"><ele>47.70</ele><time>2026-09-01T01:33:29Z</time></trkpt><trkpt lat="59.5216235239" lon="31.2085713353"><ele>48.03</ele><time>2026-09-01T01:33:40Z</time></trkpt><trkpt lat="59.5216150582" lon="31.2087295856"><ele>48.14</ele><time>2026-09-01T01:33:54Z</time></trkpt><trkpt lat="59.5215786807" lon="31.2089647818"><ele>48.28</ele><time>2026-09-01T01:34:10Z</time></trkpt><trkpt lat="59.5215417165" lon="31.2091030832"><ele>48.37</ele><time>2026-09-01T01:34:25Z</time></trkpt><trkpt lat="59.5215479191" lon="31.2092307396"><ele>48.30</ele><time>2026-09-01T01:34:37Z</time></trkpt><trkpt lat="59.5215411298" lon="31.2094330788"><ele>47.69</ele><time>2026-09-01T01:34:50Z</time></trkpt><trkpt lat="59.5215405431" lon="31.2096634135"><ele>48.27</ele><time>2026-09-01T01:35:02Z</time></trkpt><trkpt lat="59.5215548761" lon="31.2098248489"><ele>48.30</ele><time>2026-09-01T01:35:12Z</time></trkpt><trkpt lat="59.5215677842" lon="31.2100355700"><ele>47.82</ele><time>2026-09-01T01:35:26Z</time></trkpt><trkpt lat="59.5215801895" lon="31.2101240829"><ele>47.53</ele><time>2026-09-01T01:35:40Z</time></trkpt><trkpt lat="59.5216109511" lon="31.2102531642"><ele>46.13</ele><time>2026-09-01T01:35:54Z</time></trkpt><trkpt lat="59.5216122922" lon="31.2102799024"><ele>45.27</ele><time>2026-09-01T01:35:56Z</time></trkpt><trkpt lat="59.5216108672" lon="31.2103370670"><ele>48.94</ele><time>2026-09-01T01:36:01Z</time></trkpt><trkpt lat="59.5216109511" lon="31.2103512324"><ele>48.49</ele><time>2026-09-01T01:36:02Z</time></trkpt><trkpt lat="59.5216478314" lon="31.2104194611"><ele>49.14</ele><time>2026-09-01T01:36:17Z</time></trkpt><trkpt lat="59.5216537826" lon="31.2104640529"><ele>49.06</ele><time>2026-09-01T01:36:46Z</time></trkpt><trkpt lat="59.5216737315" lon="31.2104547489"><ele>49.19</ele><time>2026-09-01T01:37:08Z</time></trkpt><trkpt lat="59.5216744859" lon="31.2104776315"><ele>49.46</ele><time>2026-09-01T01:37:43Z</time></trkpt><trkpt lat="59.5216699596" lon="31.2104411703"><ele>49.24</ele><time>2026-09-01T01:38:22Z</time></trkpt><trkpt lat="59.5216744859" lon="31.2104585208"><ele>49.19</ele><time>2026-09-01T01:38:48Z</time></trkpt><trkpt lat="59.5215970371" lon="31.2105730176"><ele>49.44</ele><time>2026-09-01T01:39:01Z</time></trkpt><trkpt lat="59.5215739869" lon="31.2107665557"><ele>49.26</ele><time>2026-09-01T01:39:14Z</time></trkpt><trkpt lat="59.5215847995" lon="31.2108509615"><ele>49.35</ele><time>2026-09-01T01:39:27Z</time></trkpt><trkpt lat="59.5215836260" lon="31.2108917814"><ele>49.50</ele><time>2026-09-01T01:39:39Z</time></trkpt><trkpt lat="59.5215897448" lon="31.2109328527"><ele>49.74</ele><time>2026-09-01T01:39:52Z</time></trkpt><trkpt lat="59.5216809399" lon="31.2109267339"><ele>49.05</ele><time>2026-09-01T01:40:05Z</time></trkpt><trkpt lat="59.5217079297" lon="31.2108786218"><ele>48.93</ele><time>2026-09-01T01:40:17Z</time></trkpt><trkpt lat="59.5217333268" lon="31.2109287456"><ele>49.04</ele><time>2026-09-01T01:40:37Z</time></trkpt><trkpt lat="59.5217486657" lon="31.2109360378"><ele>48.95</ele><time>2026-09-01T01:41:04Z</time></trkpt><trkpt lat="59.5217254478" lon="31.2108980678"><ele>48.29</ele><time>2026-09-01T01:41:45Z</time></trkpt><trkpt lat="59.5217522699" lon="31.2108990736"><ele>48.23</ele><time>2026-09-01T01:43:25Z</time></trkpt><trkpt lat="59.5217559580" lon="31.2109114788"><ele>48.20</ele><time>2026-09-01T01:45:02Z</time></trkpt><trkpt lat="59.5217559580" lon="31.2109067850"><ele>48.20</ele><time>2026-09-01T01:46:25Z</time></trkpt><trkpt lat="59.5217538625" lon="31.2109155860"><ele>48.45</ele><time>2026-09-01T01:47:58Z</time></trkpt><trkpt lat="59.5217549521" lon="31.2109279912"><ele>46.25</ele><time>2026-09-01T01:48:57Z</time></trkpt><trkpt lat="59.5217558742" lon="31.2109274883"><ele>49.93</ele><time>2026-09-01T01:48:59Z</time></trkpt><trkpt lat="59.5217562933" lon="31.2109265663"><ele>49.14</ele><time>2026-09-01T01:49:00Z</time></trkpt><trkpt lat="59.5217500906" lon="31.2109063659"><ele>48.19</ele><time>2026-09-01T01:50:06Z</time></trkpt><trkpt lat="59.5217470732" lon="31.2109132390"><ele>48.66</ele><time>2026-09-01T01:50:57Z</time></trkpt><trkpt lat="59.5217339974" lon="31.2108917814"><ele>48.40</ele><time>2026-09-01T01:51:27Z</time></trkpt><trkpt lat="59.5217042416" lon="31.2108959723"><ele>48.10</ele><time>2026-09-01T01:51:37Z</time></trkpt><trkpt lat="59.5216932613" lon="31.2108876742"><ele>47.85</ele><time>2026-09-01T01:51:52Z</time></trkpt><trkpt lat="59.5216700435" lon="31.2109155860"><ele>48.26</ele><time>2026-09-01T01:52:01Z</time></trkpt><trkpt lat="59.5216527767" lon="31.2109088805"><ele>47.89</ele><time>2026-09-01T01:52:06Z</time></trkpt><trkpt lat="59.5216324925" lon="31.2109104730"><ele>48.42</ele><time>2026-09-01T01:52:08Z</time></trkpt><trkpt lat="59.5215308201" lon="31.2108998280"><ele>48.54</ele><time>2026-09-01T01:52:17Z</time></trkpt><trkpt lat="59.5215064287" lon="31.2108871713"><ele>48.90</ele><time>2026-09-01T01:52:19Z</time></trkpt><trkpt lat="59.5214637648" lon="31.2108682282"><ele>48.12</ele><time>2026-09-01T01:52:23Z</time></trkpt><trkpt lat="59.5214167424" lon="31.2107795477"><ele>48.29</ele><time>2026-09-01T01:52:29Z</time></trkpt><trkpt lat="59.5213982183" lon="31.2107598502"><ele>47.98</ele><time>2026-09-01T01:52:31Z</time></trkpt><trkpt lat="59.5212895889" lon="31.2106860057"><ele>46.82</ele><time>2026-09-01T01:52:44Z</time></trkpt><trkpt lat="59.5212775189" lon="31.2106835749"><ele>46.90</ele><time>2026-09-01T01:52:45Z</time></trkpt><trkpt lat="59.5212321728" lon="31.2106525619"><ele>46.78</ele><time>2026-09-01T01:52:50Z</time></trkpt><trkpt lat="59.5211499464" lon="31.2105740234"><ele>46.91</ele><time>2026-09-01T01:52:58Z</time></trkpt><trkpt lat="59.5211376250" lon="31.2105269171"><ele>47.26</ele><time>2026-09-01T01:53:00Z</time></trkpt><trkpt lat="59.5210228767" lon="31.2104394939"><ele>46.92</ele><time>2026-09-01T01:53:11Z</time></trkpt><trkpt lat="59.5210078731" lon="31.2104262505"><ele>47.14</ele><time>2026-09-01T01:53:14Z</time></trkpt><trkpt lat="59.5209517982" lon="31.2103984226"><ele>46.87</ele><time>2026-09-01T01:53:25Z</time></trkpt><trkpt lat="59.5208973996" lon="31.2103849277"><ele>46.83</ele><time>2026-09-01T01:53:37Z</time></trkpt><trkpt lat="59.5208304282" lon="31.2104748655"><ele>46.86</ele><time>2026-09-01T01:53:49Z</time></trkpt><trkpt lat="59.5207806397" lon="31.2104894500"><ele>47.14</ele><time>2026-09-01T01:53:54Z</time></trkpt><trkpt lat="59.5207447652" lon="31.2105225585"><ele>47.43</ele><time>2026-09-01T01:54:05Z</time></trkpt><trkpt lat="59.5207325276" lon="31.2105318625"><ele>47.11</ele><time>2026-09-01T01:54:08Z</time></trkpt><trkpt lat="59.5206813980" lon="31.2105654739"><ele>46.99</ele><time>2026-09-01T01:54:12Z</time></trkpt><trkpt lat="59.5206348784" lon="31.2105663959"><ele>46.97</ele><time>2026-09-01T01:54:16Z</time></trkpt><trkpt lat="59.5205791388" lon="31.2105497997"><ele>46.78</ele><time>2026-09-01T01:54:25Z</time></trkpt><trkpt lat="59.5205250755" lon="31.2105689943"><ele>46.89</ele><time>2026-09-01T01:54:37Z</time></trkpt><trkpt lat="59.5205062162" lon="31.2105388194"><ele>46.99</ele><time>2026-09-01T01:54:41Z</time></trkpt><trkpt lat="59.5204528235" lon="31.2105229776"><ele>46.97</ele><time>2026-09-01T01:54:47Z</time></trkpt><trkpt lat="59.5204203855" lon="31.2105021905"><ele>46.78</ele><time>2026-09-01T01:54:50Z</time></trkpt><trkpt lat="59.5202768873" lon="31.2103784736"><ele>46.70</ele><time>2026-09-01T01:55:03Z</time></trkpt><trkpt lat="59.5202535857" lon="31.2103661522"><ele>47.24</ele><time>2026-09-01T01:55:13Z</time></trkpt><trkpt lat="59.5202418510" lon="31.2103710975"><ele>46.67</ele><time>2026-09-01T01:55:15Z</time></trkpt><trkpt lat="59.5201853570" lon="31.2102785613"><ele>46.08</ele><time>2026-09-01T01:55:24Z</time></trkpt><trkpt lat="59.5201726165" lon="31.2102561817"><ele>46.31</ele><time>2026-09-01T01:55:26Z</time></trkpt><trkpt lat="59.5201509912" lon="31.2101778947"><ele>47.11</ele><time>2026-09-01T01:55:33Z</time></trkpt><trkpt lat="59.5201403461" lon="31.2101855222"><ele>46.37</ele><time>2026-09-01T01:55:43Z</time></trkpt><trkpt lat="59.5200976823" lon="31.2100516632"><ele>46.36</ele><time>2026-09-01T01:56:01Z</time></trkpt><trkpt lat="59.5200896356" lon="31.2100332230"><ele>46.44</ele><time>2026-09-01T01:56:05Z</time></trkpt><trkpt lat="59.5200754702" lon="31.2099941634"><ele>46.40</ele><time>2026-09-01T01:56:09Z</time></trkpt><trkpt lat="59.5200633164" lon="31.2098790798"><ele>46.29</ele><time>2026-09-01T01:56:15Z</time></trkpt><trkpt lat="59.5200470556" lon="31.2097940873"><ele>46.39</ele><time>2026-09-01T01:56:20Z</time></trkpt><trkpt lat="59.5200593770" lon="31.2097346596"><ele>46.11</ele><time>2026-09-01T01:56:24Z</time></trkpt><trkpt lat="59.5200627297" lon="31.2096584681"><ele>46.16</ele><time>2026-09-01T01:56:38Z</time></trkpt><trkpt lat="59.5200815890" lon="31.2096733879"><ele>46.49</ele><time>2026-09-01T01:56:55Z</time></trkpt><trkpt lat="59.5200731233" lon="31.2096855417"><ele>44.85</ele><time>2026-09-01T01:57:00Z</time></trkpt><trkpt lat="59.5200716984" lon="31.2096860446"><ele>46.24</ele><time>2026-09-01T01:57:07Z</time></trkpt><trkpt lat="59.5200654957" lon="31.2096601445"><ele>45.09</ele><time>2026-09-01T01:57:17Z</time></trkpt><trkpt lat="59.5200635679" lon="31.2096615694"><ele>46.08</ele><time>2026-09-01T01:57:19Z</time></trkpt><trkpt lat="59.5200644899" lon="31.2096718792"><ele>45.82</ele><time>2026-09-01T01:57:49Z</time></trkpt><trkpt lat="59.5200556889" lon="31.2096670177"><ele>45.46</ele><time>2026-09-01T01:58:41Z</time></trkpt><trkpt lat="59.5200479776" lon="31.2096652575"><ele>45.88</ele><time>2026-09-01T01:59:13Z</time></trkpt><trkpt lat="59.5200331416" lon="31.2096717954"><ele>45.50</ele><time>2026-09-01T01:59:17Z</time></trkpt><trkpt lat="59.5200139470" lon="31.2096491642"><ele>45.44</ele><time>2026-09-01T01:59:19Z</time></trkpt><trkpt lat="59.5199876279" lon="31.2095094379"><ele>45.56</ele><time>2026-09-01T01:59:38Z</time></trkpt><trkpt lat="59.5199870411" lon="31.2094666902"><ele>45.67</ele><time>2026-09-01T01:59:41Z</time></trkpt><trkpt lat="59.5199651644" lon="31.2092733197"><ele>46.08</ele><time>2026-09-01T01:59:53Z</time></trkpt><trkpt lat="59.5198947564" lon="31.2089964654"><ele>46.69</ele><time>2026-09-01T02:00:08Z</time></trkpt><trkpt lat="59.5198910683" lon="31.2089790311"><ele>46.91</ele><time>2026-09-01T02:00:09Z</time></trkpt><trkpt lat="59.5198413637" lon="31.2088208646"><ele>46.17</ele><time>2026-09-01T02:00:20Z</time></trkpt><trkpt lat="59.5198264439" lon="31.2088067830"><ele>46.23</ele><time>2026-09-01T02:00:22Z</time></trkpt><trkpt lat="59.5197798405" lon="31.2085898593"><ele>45.86</ele><time>2026-09-01T02:00:40Z</time></trkpt><trkpt lat="59.5197855402" lon="31.2085410766"><ele>45.85</ele><time>2026-09-01T02:00:56Z</time></trkpt><trkpt lat="59.5197826903" lon="31.2083811499"><ele>45.72</ele><time>2026-09-01T02:01:11Z</time></trkpt><trkpt lat="59.5197795890" lon="31.2082850933"><ele>45.72</ele><time>2026-09-01T02:01:19Z</time></trkpt><trkpt lat="59.5198071655" lon="31.2081161980"><ele>45.87</ele><time>2026-09-01T02:01:28Z</time></trkpt><trkpt lat="59.5198121946" lon="31.2080309540"><ele>46.26</ele><time>2026-09-01T02:01:33Z</time></trkpt><trkpt lat="59.5197973587" lon="31.2079112604"><ele>45.93</ele><time>2026-09-01T02:01:38Z</time></trkpt><trkpt lat="59.5198008791" lon="31.2078674231"><ele>44.20</ele><time>2026-09-01T02:01:40Z</time></trkpt><trkpt lat="59.5198030584" lon="31.2078232504"><ele>44.19</ele><time>2026-09-01T02:01:42Z</time></trkpt><trkpt lat="59.5198201574" lon="31.2077076640"><ele>47.25</ele><time>2026-09-01T02:01:48Z</time></trkpt><trkpt lat="59.5198194869" lon="31.2076905649"><ele>46.57</ele><time>2026-09-01T02:01:49Z</time></trkpt><trkpt lat="59.5198191516" lon="31.2076599710"><ele>46.59</ele><time>2026-09-01T02:01:51Z</time></trkpt><trkpt lat="59.5198485721" lon="31.2074113637"><ele>46.50</ele><time>2026-09-01T02:02:02Z</time></trkpt><trkpt lat="59.5198511705" lon="31.2073560432"><ele>46.50</ele><time>2026-09-01T02:02:04Z</time></trkpt><trkpt lat="59.5198429562" lon="31.2072033249"><ele>46.54</ele><time>2026-09-01T02:02:10Z</time></trkpt><trkpt lat="59.5198527630" lon="31.2070286460"><ele>46.30</ele><time>2026-09-01T02:02:19Z</time></trkpt><trkpt lat="59.5198511705" lon="31.2070116308"><ele>46.50</ele><time>2026-09-01T02:02:20Z</time></trkpt><trkpt lat="59.5198415313" lon="31.2069588248"><ele>45.51</ele><time>2026-09-01T02:02:23Z</time></trkpt><trkpt lat="59.5198399387" lon="31.2069164962"><ele>44.68</ele><time>2026-09-01T02:02:25Z</time></trkpt><trkpt lat="59.5198367536" lon="31.2068679649"><ele>44.67</ele><time>2026-09-01T02:02:27Z</time></trkpt><trkpt lat="59.5198312216" lon="31.2067743391"><ele>46.67</ele><time>2026-09-01T02:02:31Z</time></trkpt><trkpt lat="59.5198196545" lon="31.2066149991"><ele>46.45</ele><time>2026-09-01T02:02:38Z</time></trkpt><trkpt lat="59.5198407769" lon="31.2063337024"><ele>46.19</ele><time>2026-09-01T02:02:52Z</time></trkpt><trkpt lat="59.5198525954" lon="31.2062742747"><ele>46.09</ele><time>2026-09-01T02:03:00Z</time></trkpt><trkpt lat="59.5198485721" lon="31.2061824929"><ele>46.25</ele><time>2026-09-01T02:03:05Z</time></trkpt><trkpt lat="59.5198527630" lon="31.2061131746"><ele>46.16</ele><time>2026-09-01T02:03:08Z</time></trkpt><trkpt lat="59.5198316406" lon="31.2059376575"><ele>46.17</ele><time>2026-09-01T02:03:21Z</time></trkpt><trkpt lat="59.5198283717" lon="31.2058913894"><ele>46.15</ele><time>2026-09-01T02:03:24Z</time></trkpt><trkpt lat="59.5198141225" lon="31.2057686783"><ele>46.11</ele><time>2026-09-01T02:03:41Z</time></trkpt><trkpt lat="59.5198141225" lon="31.2057236675"><ele>45.91</ele><time>2026-09-01T02:03:57Z</time></trkpt><trkpt lat="59.5198077522" lon="31.2057444546"><ele>45.80</ele><time>2026-09-01T02:04:24Z</time></trkpt><trkpt lat="59.5198102668" lon="31.2057509925"><ele>39.31</ele><time>2026-09-01T02:04:38Z</time></trkpt><trkpt lat="59.5198107697" lon="31.2057483941"><ele>39.31</ele><time>2026-09-01T02:04:39Z</time></trkpt><trkpt lat="59.5198252704" lon="31.2057330552"><ele>45.91</ele><time>2026-09-01T02:04:47Z</time></trkpt><trkpt lat="59.5198248513" lon="31.2057301216"><ele>45.87</ele><time>2026-09-01T02:04:48Z</time></trkpt><trkpt lat="59.5197980292" lon="31.2057584524"><ele>45.50</ele><time>2026-09-01T02:05:31Z</time></trkpt><trkpt lat="59.5198123623" lon="31.2057461310"><ele>45.90</ele><time>2026-09-01T02:06:07Z</time></trkpt><trkpt lat="59.5198345743" lon="31.2056849431"><ele>46.34</ele><time>2026-09-01T02:06:27Z</time></trkpt><trkpt lat="59.5197887253" lon="31.2055970170"><ele>46.00</ele><time>2026-09-01T02:06:39Z</time></trkpt><trkpt lat="59.5197172277" lon="31.2054787483"><ele>45.82</ele><time>2026-09-01T02:06:52Z</time></trkpt><trkpt lat="59.5196726359" lon="31.2053483259"><ele>45.92</ele><time>2026-09-01T02:07:04Z</time></trkpt><trkpt lat="59.5196671877" lon="31.2053381838"><ele>46.02</ele><time>2026-09-01T02:07:05Z</time></trkpt><trkpt lat="59.5196493343" lon="31.2053088471"><ele>45.91</ele><time>2026-09-01T02:07:08Z</time></trkpt><trkpt lat="59.5195633359" lon="31.2051572185"><ele>46.45</ele><time>2026-09-01T02:07:22Z</time></trkpt><trkpt lat="59.5195557922" lon="31.2051527761"><ele>47.05</ele><time>2026-09-01T02:07:35Z</time></trkpt><trkpt lat="59.5194796845" lon="31.2050117925"><ele>45.90</ele><time>2026-09-01T02:07:46Z</time></trkpt><trkpt lat="59.5193492621" lon="31.2049110420"><ele>46.71</ele><time>2026-09-01T02:08:02Z</time></trkpt><trkpt lat="59.5192829613" lon="31.2048394606"><ele>47.60</ele><time>2026-09-01T02:08:12Z</time></trkpt><trkpt lat="59.5192369446" lon="31.2048460823"><ele>47.55</ele><time>2026-09-01T02:08:18Z</time></trkpt><trkpt lat="59.5192205999" lon="31.2048420589"><ele>47.42</ele><time>2026-09-01T02:08:20Z</time></trkpt><trkpt lat="59.5191866532" lon="31.2048675399"><ele>47.13</ele><time>2026-09-01T02:08:23Z</time></trkpt><trkpt lat="59.5190656185" lon="31.2049432285"><ele>45.76</ele><time>2026-09-01T02:08:35Z</time></trkpt><trkpt lat="59.5189812966" lon="31.2050499301"><ele>44.61</ele><time>2026-09-01T02:08:47Z</time></trkpt><trkpt lat="59.5189513732" lon="31.2050899956"><ele>44.32</ele><time>2026-09-01T02:08:53Z</time></trkpt><trkpt lat="59.5188598428" lon="31.2051853817"><ele>43.82</ele><time>2026-09-01T02:09:06Z</time></trkpt><trkpt lat="59.5187988225" lon="31.2052447256"><ele>43.56</ele><time>2026-09-01T02:09:18Z</time></trkpt><trkpt lat="59.5187383052" lon="31.2053489126"><ele>43.93</ele><time>2026-09-01T02:09:31Z</time></trkpt><trkpt lat="59.5187252294" lon="31.2053473201"><ele>43.31</ele><time>2026-09-01T02:09:42Z</time></trkpt><trkpt lat="59.5187036879" lon="31.2053951807"><ele>43.59</ele><time>2026-09-01T02:09:53Z</time></trkpt><trkpt lat="59.5186237246" lon="31.2054352462"><ele>44.51</ele><time>2026-09-01T02:10:05Z</time></trkpt><trkpt lat="59.5185529813" lon="31.2054703664"><ele>44.24</ele><time>2026-09-01T02:10:16Z</time></trkpt><trkpt lat="59.5184715930" lon="31.2055592984"><ele>45.14</ele><time>2026-09-01T02:10:27Z</time></trkpt><trkpt lat="59.5184419211" lon="31.2055942509"><ele>45.23</ele><time>2026-09-01T02:10:33Z</time></trkpt><trkpt lat="59.5183407515" lon="31.2056585401"><ele>46.13</ele><time>2026-09-01T02:10:45Z</time></trkpt><trkpt lat="59.5183302741" lon="31.2056642398"><ele>46.07</ele><time>2026-09-01T02:10:46Z</time></trkpt><trkpt lat="59.5182791445" lon="31.2056690175"><ele>45.65</ele><time>2026-09-01T02:10:51Z</time></trkpt><trkpt lat="59.5181760471" lon="31.2058232445"><ele>46.09</ele><time>2026-09-01T02:11:04Z</time></trkpt><trkpt lat="59.5181084890" lon="31.2058402598"><ele>46.65</ele><time>2026-09-01T02:11:21Z</time></trkpt><trkpt lat="59.5180933177" lon="31.2058421876"><ele>42.29</ele><time>2026-09-01T02:11:27Z</time></trkpt><trkpt lat="59.5180950779" lon="31.2058408465"><ele>47.46</ele><time>2026-09-01T02:11:28Z</time></trkpt><trkpt lat="59.5180958323" lon="31.2058237474"><ele>46.78</ele><time>2026-09-01T02:11:50Z</time></trkpt><trkpt lat="59.5180853549" lon="31.2058456242"><ele>46.47</ele><time>2026-09-01T02:12:21Z</time></trkpt><trkpt lat="59.5180883724" lon="31.2058487255"><ele>46.60</ele><time>2026-09-01T02:12:56Z</time></trkpt><trkpt lat="59.5180926472" lon="31.2058448698"><ele>46.23</ele><time>2026-09-01T02:13:32Z</time></trkpt><trkpt lat="59.5180904679" lon="31.2058109231"><ele>46.33</ele><time>2026-09-01T02:14:00Z</time></trkpt><trkpt lat="59.5180927310" lon="31.2058101688"><ele>44.94</ele><time>2026-09-01T02:14:09Z</time></trkpt><trkpt lat="59.5180929825" lon="31.2058127671"><ele>48.33</ele><time>2026-09-01T02:14:11Z</time></trkpt><trkpt lat="59.5180645678" lon="31.2057203986"><ele>45.91</ele><time>2026-09-01T02:14:24Z</time></trkpt><trkpt lat="59.5180645678" lon="31.2056355737"><ele>46.95</ele><time>2026-09-01T02:14:30Z</time></trkpt><trkpt lat="59.5180240832" lon="31.2056021299"><ele>43.74</ele><time>2026-09-01T02:14:44Z</time></trkpt><trkpt lat="59.5180237480" lon="31.2055818457"><ele>43.78</ele><time>2026-09-01T02:14:45Z</time></trkpt><trkpt lat="59.5180214848" lon="31.2055038102"><ele>46.25</ele><time>2026-09-01T02:14:51Z</time></trkpt><trkpt lat="59.5179950818" lon="31.2053585518"><ele>45.97</ele><time>2026-09-01T02:14:59Z</time></trkpt><trkpt lat="59.5179855265" lon="31.2051752396"><ele>46.29</ele><time>2026-09-01T02:15:11Z</time></trkpt><trkpt lat="59.5179538429" lon="31.2050992996"><ele>46.21</ele><time>2026-09-01T02:15:23Z</time></trkpt><trkpt lat="59.5179427788" lon="31.2049235310"><ele>45.86</ele><time>2026-09-01T02:15:41Z</time></trkpt><trkpt lat="59.5180052239" lon="31.2047604192"><ele>45.55</ele><time>2026-09-01T02:15:54Z</time></trkpt><trkpt lat="59.5180336386" lon="31.2046484370"><ele>45.30</ele><time>2026-09-01T02:16:08Z</time></trkpt><trkpt lat="59.5180145279" lon="31.2045409810"><ele>45.92</ele><time>2026-09-01T02:16:22Z</time></trkpt><trkpt lat="59.5180026256" lon="31.2044757698"><ele>45.88</ele><time>2026-09-01T02:16:32Z</time></trkpt><trkpt lat="59.5180669148" lon="31.2043836527"><ele>45.73</ele><time>2026-09-01T02:16:41Z</time></trkpt><trkpt lat="59.5180947427" lon="31.2041979097"><ele>45.92</ele><time>2026-09-01T02:16:53Z</time></trkpt><trkpt lat="59.5180855226" lon="31.2040686607"><ele>45.84</ele><time>2026-09-01T02:17:07Z</time></trkpt><trkpt lat="59.5180591196" lon="31.2038879469"><ele>45.90</ele><time>2026-09-01T02:17:20Z</time></trkpt><trkpt lat="59.5181078184" lon="31.2038146053"><ele>45.00</ele><time>2026-09-01T02:17:36Z</time></trkpt><trkpt lat="59.5181533322" lon="31.2037051376"><ele>45.49</ele><time>2026-09-01T02:17:57Z</time></trkpt><trkpt lat="59.5182172861" lon="31.2034904771"><ele>45.10</ele><time>2026-09-01T02:18:11Z</time></trkpt><trkpt lat="59.5182241593" lon="31.2034712825"><ele>45.25</ele><time>2026-09-01T02:18:13Z</time></trkpt><trkpt lat="59.5181625523" lon="31.2033228390"><ele>45.21</ele><time>2026-09-01T02:18:27Z</time></trkpt><trkpt lat="59.5181625523" lon="31.2031200808"><ele>44.94</ele><time>2026-09-01T02:18:47Z</time></trkpt><trkpt lat="59.5181620494" lon="31.2031131238"><ele>43.48</ele><time>2026-09-01T02:18:49Z</time></trkpt><trkpt lat="59.5181607921" lon="31.2031150516"><ele>45.81</ele><time>2026-09-01T02:18:52Z</time></trkpt><trkpt lat="59.5181518234" lon="31.2030954380"><ele>44.68</ele><time>2026-09-01T02:19:20Z</time></trkpt><trkpt lat="59.5181445312" lon="31.2031062506"><ele>44.67</ele><time>2026-09-01T02:20:02Z</time></trkpt><trkpt lat="59.5181653183" lon="31.2031262834"><ele>44.31</ele><time>2026-09-01T02:20:41Z</time></trkpt><trkpt lat="59.5181741193" lon="31.2031102739"><ele>44.44</ele><time>2026-09-01T02:21:26Z</time></trkpt><trkpt lat="59.5181514882" lon="31.2030823622"><ele>44.53</ele><time>2026-09-01T02:22:09Z</time></trkpt><trkpt lat="59.5181317907" lon="31.2031077594"><ele>44.72</ele><time>2026-09-01T02:23:09Z</time></trkpt><trkpt lat="59.5181421842" lon="31.2030628324"><ele>45.41</ele><time>2026-09-01T02:23:58Z</time></trkpt><trkpt lat="59.5182095747" lon="31.2028459087"><ele>44.84</ele><time>2026-09-01T02:24:20Z</time></trkpt><trkpt lat="59.5181379933" lon="31.2026999798"><ele>45.00</ele><time>2026-09-01T02:24:33Z</time></trkpt><trkpt lat="59.5181367360" lon="31.2025534641"><ele>44.47</ele><time>2026-09-01T02:24:44Z</time></trkpt><trkpt lat="59.5181687549" lon="31.2023382168"><ele>44.91</ele><time>2026-09-01T02:24:59Z</time></trkpt><trkpt lat="59.5181291923" lon="31.2022744305"><ele>45.30</ele><time>2026-09-01T02:25:18Z</time></trkpt><trkpt lat="59.5180388354" lon="31.2021693215"><ele>45.31</ele><time>2026-09-01T02:25:31Z</time></trkpt><trkpt lat="59.5180084929" lon="31.2021092232"><ele>45.24</ele><time>2026-09-01T02:25:44Z</time></trkpt><trkpt lat="59.5178710297" lon="31.2020288408"><ele>45.61</ele><time>2026-09-01T02:25:57Z</time></trkpt><trkpt lat="59.5178584568" lon="31.2019718438"><ele>45.63</ele><time>2026-09-01T02:26:09Z</time></trkpt><trkpt lat="59.5179179683" lon="31.2018571794"><ele>45.23</ele><time>2026-09-01T02:26:34Z</time></trkpt><trkpt lat="59.5179944951" lon="31.2017352227"><ele>45.18</ele><time>2026-09-01T02:26:52Z</time></trkpt><trkpt lat="59.5179833472" lon="31.2015646510"><ele>45.64</ele><time>2026-09-01T02:27:07Z</time></trkpt><trkpt lat="59.5180092473" lon="31.2013206538"><ele>46.17</ele><time>2026-09-01T02:27:20Z</time></trkpt><trkpt lat="59.5180329680" lon="31.2011830229"><ele>45.81</ele><time>2026-09-01T02:27:31Z</time></trkpt><trkpt lat="59.5180917252" lon="31.2010243535"><ele>46.27</ele><time>2026-09-01T02:27:43Z</time></trkpt><trkpt lat="59.5180847682" lon="31.2008176558"><ele>46.20</ele><time>2026-09-01T02:28:01Z</time></trkpt><trkpt lat="59.5180812478" lon="31.2007166538"><ele>46.14</ele><time>2026-09-01T02:28:18Z</time></trkpt><trkpt lat="59.5180792361" lon="31.2007105350"><ele>46.44</ele><time>2026-09-01T02:28:23Z</time></trkpt><trkpt lat="59.5180927310" lon="31.2006237824"><ele>46.62</ele><time>2026-09-01T02:28:33Z</time></trkpt><trkpt lat="59.5181638934" lon="31.2005350180"><ele>46.18</ele><time>2026-09-01T02:28:46Z</time></trkpt><trkpt lat="59.5181700960" lon="31.2004044279"><ele>41.08</ele><time>2026-09-01T02:28:57Z</time></trkpt><trkpt lat="59.5181698445" lon="31.2003970519"><ele>41.08</ele><time>2026-09-01T02:28:58Z</time></trkpt><trkpt lat="59.5181780588" lon="31.2003620993"><ele>46.89</ele><time>2026-09-01T02:29:14Z</time></trkpt><trkpt lat="59.5181774721" lon="31.2003636919"><ele>46.54</ele><time>2026-09-01T02:29:15Z</time></trkpt><trkpt lat="59.5181722753" lon="31.2003598362"><ele>44.94</ele><time>2026-09-01T02:29:19Z</time></trkpt><trkpt lat="59.5181681681" lon="31.2003614288"><ele>48.44</ele><time>2026-09-01T02:29:21Z</time></trkpt><trkpt lat="59.5181689225" lon="31.2003625184"><ele>47.56</ele><time>2026-09-01T02:29:22Z</time></trkpt><trkpt lat="59.5181599539" lon="31.2003859878"><ele>46.55</ele><time>2026-09-01T02:30:02Z</time></trkpt><trkpt lat="59.5181718562" lon="31.2003682181"><ele>46.60</ele><time>2026-09-01T02:30:40Z</time></trkpt><trkpt lat="59.5181783941" lon="31.2003779411"><ele>45.19</ele><time>2026-09-01T02:31:12Z</time></trkpt><trkpt lat="59.5181770530" lon="31.2003765162"><ele>49.47</ele><time>2026-09-01T02:31:13Z</time></trkpt><trkpt lat="59.5181738678" lon="31.2003712356"><ele>48.04</ele><time>2026-09-01T02:31:14Z</time></trkpt><trkpt lat="59.5181664918" lon="31.2003432401"><ele>47.09</ele><time>2026-09-01T02:31:16Z</time></trkpt><trkpt lat="59.5181535836" lon="31.2001507077"><ele>46.99</ele><time>2026-09-01T02:31:28Z</time></trkpt><trkpt lat="59.5181827527" lon="31.1998753622"><ele>47.07</ele><time>2026-09-01T02:31:43Z</time></trkpt><trkpt lat="59.5181850996" lon="31.1998607777"><ele>47.21</ele><time>2026-09-01T02:31:44Z</time></trkpt><trkpt lat="59.5182079822" lon="31.1996353045"><ele>47.22</ele><time>2026-09-01T02:31:57Z</time></trkpt><trkpt lat="59.5181970857" lon="31.1992726196"><ele>46.72</ele><time>2026-09-01T02:32:17Z</time></trkpt><trkpt lat="59.5181947388" lon="31.1990909837"><ele>46.79</ele><time>2026-09-01T02:32:28Z</time></trkpt><trkpt lat="59.5182108320" lon="31.1990039796"><ele>46.74</ele><time>2026-09-01T02:32:33Z</time></trkpt><trkpt lat="59.5182101615" lon="31.1989022233"><ele>46.73</ele><time>2026-09-01T02:32:46Z</time></trkpt><trkpt lat="59.5181972533" lon="31.1988989543"><ele>46.71</ele><time>2026-09-01T02:33:21Z</time></trkpt><trkpt lat="59.5182290208" lon="31.1987750698"><ele>45.68</ele><time>2026-09-01T02:33:33Z</time></trkpt><trkpt lat="59.5182772167" lon="31.1985660251"><ele>46.52</ele><time>2026-09-01T02:33:49Z</time></trkpt><trkpt lat="59.5182752889" lon="31.1984060984"><ele>46.28</ele><time>2026-09-01T02:34:02Z</time></trkpt><trkpt lat="59.5182360616" lon="31.1982218642"><ele>46.29</ele><time>2026-09-01T02:34:18Z</time></trkpt><trkpt lat="59.5182149392" lon="31.1980847362"><ele>46.38</ele><time>2026-09-01T02:34:38Z</time></trkpt><trkpt lat="59.5181959961" lon="31.1979274917"><ele>46.35</ele><time>2026-09-01T02:34:53Z</time></trkpt><trkpt lat="59.5182157774" lon="31.1977854185"><ele>42.87</ele><time>2026-09-01T02:35:09Z</time></trkpt><trkpt lat="59.5182155259" lon="31.1977851670"><ele>42.87</ele><time>2026-09-01T02:35:10Z</time></trkpt><trkpt lat="59.5182088204" lon="31.1977404915"><ele>47.03</ele><time>2026-09-01T02:35:15Z</time></trkpt><trkpt lat="59.5182121731" lon="31.1977326963"><ele>46.51</ele><time>2026-09-01T02:35:16Z</time></trkpt><trkpt lat="59.5181701798" lon="31.1976047046"><ele>46.56</ele><time>2026-09-01T02:35:29Z</time></trkpt><trkpt lat="59.5181887876" lon="31.1974701751"><ele>46.66</ele><time>2026-09-01T02:35:56Z</time></trkpt><trkpt lat="59.5182011928" lon="31.1974521540"><ele>47.39</ele><time>2026-09-01T02:36:26Z</time></trkpt><trkpt lat="59.5181971695" lon="31.1974909622"><ele>46.12</ele><time>2026-09-01T02:36:52Z</time></trkpt><trkpt lat="59.5181970857" lon="31.1974973325"><ele>46.12</ele><time>2026-09-01T02:37:20Z</time></trkpt><trkpt lat="59.5182002708" lon="31.1974821612"><ele>41.41</ele><time>2026-09-01T02:38:02Z</time></trkpt><trkpt lat="59.5181980915" lon="31.1974804848"><ele>43.17</ele><time>2026-09-01T02:38:03Z</time></trkpt><trkpt lat="59.5181970857" lon="31.1974827480"><ele>49.05</ele><time>2026-09-01T02:38:05Z</time></trkpt><trkpt lat="59.5181977563" lon="31.1974834185"><ele>47.18</ele><time>2026-09-01T02:38:06Z</time></trkpt><trkpt lat="59.5182069764" lon="31.1973761301"><ele>45.89</ele><time>2026-09-01T02:38:20Z</time></trkpt><trkpt lat="59.5182742830" lon="31.1972762179"><ele>45.77</ele><time>2026-09-01T02:38:32Z</time></trkpt><trkpt lat="59.5183363929" lon="31.1970488168"><ele>45.69</ele><time>2026-09-01T02:38:48Z</time></trkpt><trkpt lat="59.5183657296" lon="31.1969210766"><ele>46.05</ele><time>2026-09-01T02:39:00Z</time></trkpt><trkpt lat="59.5184099860" lon="31.1967745610"><ele>45.82</ele><time>2026-09-01T02:39:14Z</time></trkpt><trkpt lat="59.5184753649" lon="31.1966546997"><ele>45.80</ele><time>2026-09-01T02:39:26Z</time></trkpt><trkpt lat="59.5185138378" lon="31.1964996345"><ele>45.62</ele><time>2026-09-01T02:39:37Z</time></trkpt><trkpt lat="59.5184871834" lon="31.1963205971"><ele>45.87</ele><time>2026-09-01T02:39:53Z</time></trkpt><trkpt lat="59.5185200404" lon="31.1961598322"><ele>45.64</ele><time>2026-09-01T02:40:06Z</time></trkpt><trkpt lat="59.5185433421" lon="31.1959766876"><ele>45.52</ele><time>2026-09-01T02:40:20Z</time></trkpt><trkpt lat="59.5184952300" lon="31.1958217900"><ele>45.71</ele><time>2026-09-01T02:40:31Z</time></trkpt><trkpt lat="59.5185098145" lon="31.1956294253"><ele>45.41</ele><time>2026-09-01T02:40:45Z</time></trkpt><trkpt lat="59.5185344573" lon="31.1954658944"><ele>45.48</ele><time>2026-09-01T02:40:56Z</time></trkpt><trkpt lat="59.5185415819" lon="31.1952521559"><ele>44.84</ele><time>2026-09-01T02:41:09Z</time></trkpt><trkpt lat="59.5185535681" lon="31.1952319555"><ele>41.62</ele><time>2026-09-01T02:41:12Z</time></trkpt><trkpt lat="59.5185634587" lon="31.1952258367"><ele>47.71</ele><time>2026-09-01T02:41:13Z</time></trkpt><trkpt lat="59.5185665600" lon="31.1952181254"><ele>43.98</ele><time>2026-09-01T02:41:14Z</time></trkpt><trkpt lat="59.5185655542" lon="31.1951902974"><ele>41.55</ele><time>2026-09-01T02:41:17Z</time></trkpt><trkpt lat="59.5185632911" lon="31.1950904690"><ele>46.10</ele><time>2026-09-01T02:41:23Z</time></trkpt><trkpt lat="59.5185622014" lon="31.1950800754"><ele>45.61</ele><time>2026-09-01T02:41:24Z</time></trkpt><trkpt lat="59.5185963996" lon="31.1948914826"><ele>45.51</ele><time>2026-09-01T02:41:37Z</time></trkpt><trkpt lat="59.5185996685" lon="31.1948419455"><ele>46.15</ele><time>2026-09-01T02:41:51Z</time></trkpt><trkpt lat="59.5186062902" lon="31.1948252656"><ele>45.96</ele><time>2026-09-01T02:42:28Z</time></trkpt><trkpt lat="59.5186062902" lon="31.1948362458"><ele>45.88</ele><time>2026-09-01T02:43:13Z</time></trkpt><trkpt lat="59.5185848325" lon="31.1948093399"><ele>45.57</ele><time>2026-09-01T02:43:53Z</time></trkpt><trkpt lat="59.5185901970" lon="31.1948123574"><ele>49.31</ele><time>2026-09-01T02:44:16Z</time></trkpt><trkpt lat="59.5185904484" lon="31.1948141176"><ele>47.83</ele><time>2026-09-01T02:44:17Z</time></trkpt><trkpt lat="59.5185913704" lon="31.1948194820"><ele>46.18</ele><time>2026-09-01T02:44:19Z</time></trkpt><trkpt lat="59.5185951423" lon="31.1948458850"><ele>46.68</ele><time>2026-09-01T02:45:02Z</time></trkpt><trkpt lat="59.5186099783" lon="31.1947006267"><ele>45.28</ele><time>2026-09-01T02:45:19Z</time></trkpt><trkpt lat="59.5186183602" lon="31.1946263630"><ele>45.56</ele><time>2026-09-01T02:45:23Z</time></trkpt><trkpt lat="59.5186302625" lon="31.1944237724"><ele>45.65</ele><time>2026-09-01T02:45:35Z</time></trkpt><trkpt lat="59.5186429191" lon="31.1943327449"><ele>45.67</ele><time>2026-09-01T02:45:41Z</time></trkpt><trkpt lat="59.5186618622" lon="31.1940708943"><ele>45.89</ele><time>2026-09-01T02:45:55Z</time></trkpt><trkpt lat="59.5186623652" lon="31.1939398851"><ele>45.54</ele><time>2026-09-01T02:46:04Z</time></trkpt><trkpt lat="59.5186664723" lon="31.1938615981"><ele>45.60</ele><time>2026-09-01T02:46:08Z</time></trkpt><trkpt lat="59.5186717529" lon="31.1936239712"><ele>45.96</ele><time>2026-09-01T02:46:21Z</time></trkpt><trkpt lat="59.5186409913" lon="31.1935286690"><ele>46.19</ele><time>2026-09-01T02:46:35Z</time></trkpt><trkpt lat="59.5186418295" lon="31.1935129948"><ele>45.86</ele><time>2026-09-01T02:46:37Z</time></trkpt><trkpt lat="59.5185976569" lon="31.1933714245"><ele>45.85</ele><time>2026-09-01T02:46:50Z</time></trkpt><trkpt lat="59.5185075514" lon="31.1933007650"><ele>45.97</ele><time>2026-09-01T02:47:04Z</time></trkpt><trkpt lat="59.5184728503" lon="31.1932435166"><ele>45.95</ele><time>2026-09-01T02:47:17Z</time></trkpt><trkpt lat="59.5184378978" lon="31.1931538302"><ele>46.10</ele><time>2026-09-01T02:47:31Z</time></trkpt><trkpt lat="59.5184518956" lon="31.1930299457"><ele>46.13</ele><time>2026-09-01T02:47:43Z</time></trkpt><trkpt lat="59.5184470341" lon="31.1928411853"><ele>46.53</ele><time>2026-09-01T02:47:59Z</time></trkpt><trkpt lat="59.5184635464" lon="31.1927208211"><ele>46.45</ele><time>2026-09-01T02:48:18Z</time></trkpt><trkpt lat="59.5184999239" lon="31.1925931647"><ele>46.18</ele><time>2026-09-01T02:48:28Z</time></trkpt><trkpt lat="59.5185207948" lon="31.1923984531"><ele>46.29</ele><time>2026-09-01T02:48:43Z</time></trkpt><trkpt lat="59.5185448509" lon="31.1922892369"><ele>41.40</ele><time>2026-09-01T02:48:50Z</time></trkpt><trkpt lat="59.5185469463" lon="31.1922828667"><ele>41.34</ele><time>2026-09-01T02:48:51Z</time></trkpt><trkpt lat="59.5185551606" lon="31.1922680307"><ele>47.21</ele><time>2026-09-01T02:49:00Z</time></trkpt><trkpt lat="59.5185565855" lon="31.1922633369"><ele>46.78</ele><time>2026-09-01T02:49:01Z</time></trkpt><trkpt lat="59.5185891911" lon="31.1921671964"><ele>46.24</ele><time>2026-09-01T02:49:11Z</time></trkpt><trkpt lat="59.5186156780" lon="31.1920664459"><ele>46.21</ele><time>2026-09-01T02:49:18Z</time></trkpt><trkpt lat="59.5186325256" lon="31.1920512747"><ele>46.27</ele><time>2026-09-01T02:49:22Z</time></trkpt><trkpt lat="59.5186713338" lon="31.1918947846"><ele>45.86</ele><time>2026-09-01T02:49:38Z</time></trkpt><trkpt lat="59.5187097229" lon="31.1916280724"><ele>46.33</ele><time>2026-09-01T02:49:57Z</time></trkpt><trkpt lat="59.5187552366" lon="31.1915042717"><ele>46.12</ele><time>2026-09-01T02:50:10Z</time></trkpt><trkpt lat="59.5187585894" lon="31.1914967280"><ele>41.34</ele><time>2026-09-01T02:50:14Z</time></trkpt><trkpt lat="59.5187586732" lon="31.1914970633"><ele>42.40</ele><time>2026-09-01T02:50:15Z</time></trkpt><trkpt lat="59.5187592600" lon="31.1914986558"><ele>45.42</ele><time>2026-09-01T02:50:16Z</time></trkpt><trkpt lat="59.5187606849" lon="31.1914974824"><ele>48.70</ele><time>2026-09-01T02:50:17Z</time></trkpt><trkpt lat="59.5187633671" lon="31.1914956383"><ele>47.18</ele><time>2026-09-01T02:50:18Z</time></trkpt><trkpt lat="59.5187670551" lon="31.1914901901"><ele>44.07</ele><time>2026-09-01T02:50:21Z</time></trkpt><trkpt lat="59.5187659655" lon="31.1914888490"><ele>47.19</ele><time>2026-09-01T02:50:24Z</time></trkpt><trkpt lat="59.5187623613" lon="31.1914976500"><ele>46.38</ele><time>2026-09-01T02:50:44Z</time></trkpt><trkpt lat="59.5187597629" lon="31.1914961413"><ele>43.36</ele><time>2026-09-01T02:50:51Z</time></trkpt><trkpt lat="59.5187575836" lon="31.1914993264"><ele>46.57</ele><time>2026-09-01T02:50:53Z</time></trkpt><trkpt lat="59.5187630318" lon="31.1915203650"><ele>45.94</ele><time>2026-09-01T02:51:37Z</time></trkpt><trkpt lat="59.5187565777" lon="31.1914958898"><ele>45.89</ele><time>2026-09-01T02:51:59Z</time></trkpt><trkpt lat="59.5187523868" lon="31.1914918665"><ele>45.85</ele><time>2026-09-01T02:52:34Z</time></trkpt><trkpt lat="59.5187520515" lon="31.1914853286"><ele>46.99</ele><time>2026-09-01T02:53:03Z</time></trkpt><trkpt lat="59.5187477767" lon="31.1914615240"><ele>46.18</ele><time>2026-09-01T02:53:05Z</time></trkpt><trkpt lat="59.5187528897" lon="31.1912809778"><ele>46.68</ele><time>2026-09-01T02:53:17Z</time></trkpt><trkpt lat="59.5187617745" lon="31.1911883578"><ele>46.38</ele><time>2026-09-01T02:53:45Z</time></trkpt><trkpt lat="59.5187442563" lon="31.1910604499"><ele>46.68</ele><time>2026-09-01T02:54:03Z</time></trkpt><trkpt lat="59.5187738445" lon="31.1908621341"><ele>46.63</ele><time>2026-09-01T02:54:22Z</time></trkpt><trkpt lat="59.5187257323" lon="31.1907251738"><ele>47.16</ele><time>2026-09-01T02:54:32Z</time></trkpt><trkpt lat="59.5186844934" lon="31.1905587930"><ele>46.98</ele><time>2026-09-01T02:54:41Z</time></trkpt><trkpt lat="59.5187276602" lon="31.1904255208"><ele>46.68</ele><time>2026-09-01T02:54:53Z</time></trkpt><trkpt lat="59.5187564939" lon="31.1902458966"><ele>46.75</ele><time>2026-09-01T02:55:07Z</time></trkpt><trkpt lat="59.5187616907" lon="31.1902267858"><ele>46.68</ele><time>2026-09-01T02:55:08Z</time></trkpt><trkpt lat="59.5187809691" lon="31.1900357623"><ele>45.86</ele><time>2026-09-01T02:55:20Z</time></trkpt><trkpt lat="59.5187608525" lon="31.1898548808"><ele>46.25</ele><time>2026-09-01T02:55:39Z</time></trkpt><trkpt lat="59.5187408198" lon="31.1897435691"><ele>46.87</ele><time>2026-09-01T02:55:52Z</time></trkpt><trkpt lat="59.5187509619" lon="31.1896819621"><ele>46.66</ele><time>2026-09-01T02:56:06Z</time></trkpt><trkpt lat="59.5187843218" lon="31.1896544695"><ele>45.96</ele><time>2026-09-01T02:56:22Z</time></trkpt><trkpt lat="59.5187713299" lon="31.1895482708"><ele>46.46</ele><time>2026-09-01T02:56:36Z</time></trkpt><trkpt lat="59.5187779516" lon="31.1893974803"><ele>47.45</ele><time>2026-09-01T02:56:48Z</time></trkpt><trkpt lat="59.5187705755" lon="31.1893166788"><ele>47.97</ele><time>2026-09-01T02:56:53Z</time></trkpt><trkpt lat="59.5187813882" lon="31.1891444307"><ele>49.78</ele><time>2026-09-01T02:57:07Z</time></trkpt><trkpt lat="59.5187801309" lon="31.1891050357"><ele>49.06</ele><time>2026-09-01T02:57:09Z</time></trkpt><trkpt lat="59.5187796280" lon="31.1888982542"><ele>49.83</ele><time>2026-09-01T02:57:25Z</time></trkpt><trkpt lat="59.5187619422" lon="31.1887614615"><ele>50.24</ele><time>2026-09-01T02:57:35Z</time></trkpt><trkpt lat="59.5187527221" lon="31.1886396725"><ele>50.00</ele><time>2026-09-01T02:57:51Z</time></trkpt><trkpt lat="59.5187583379" lon="31.1886456236"><ele>48.54</ele><time>2026-09-01T02:58:12Z</time></trkpt><trkpt lat="59.5187610202" lon="31.1886392534"><ele>50.36</ele><time>2026-09-01T02:58:19Z</time></trkpt><trkpt lat="59.5187603496" lon="31.1886579450"><ele>47.09</ele><time>2026-09-01T02:58:41Z</time></trkpt><trkpt lat="59.5187616907" lon="31.1886547599"><ele>53.04</ele><time>2026-09-01T02:58:44Z</time></trkpt><trkpt lat="59.5187618583" lon="31.1886532512"><ele>52.14</ele><time>2026-09-01T02:58:45Z</time></trkpt><trkpt lat="59.5187653787" lon="31.1886480544"><ele>49.78</ele><time>2026-09-01T02:58:49Z</time></trkpt><trkpt lat="59.5187669713" lon="31.1886440311"><ele>51.48</ele><time>2026-09-01T02:58:53Z</time></trkpt><trkpt lat="59.5187669713" lon="31.1886398401"><ele>50.77</ele><time>2026-09-01T02:58:55Z</time></trkpt><trkpt lat="59.5187555719" lon="31.1886029597"><ele>47.37</ele><time>2026-09-01T02:59:25Z</time></trkpt><trkpt lat="59.5187555719" lon="31.1886048876"><ele>52.98</ele><time>2026-09-01T02:59:28Z</time></trkpt><trkpt lat="59.5187557396" lon="31.1886051390"><ele>51.62</ele><time>2026-09-01T02:59:29Z</time></trkpt><trkpt lat="59.5187601820" lon="31.1886048876"><ele>51.48</ele><time>2026-09-01T02:59:36Z</time></trkpt><trkpt lat="59.5187616907" lon="31.1886018701"><ele>48.25</ele><time>2026-09-01T02:59:39Z</time></trkpt><trkpt lat="59.5187621936" lon="31.1886032950"><ele>50.26</ele><time>2026-09-01T02:59:41Z</time></trkpt><trkpt lat="59.5187615231" lon="31.1885714438"><ele>48.77</ele><time>2026-09-01T03:00:12Z</time></trkpt><trkpt lat="59.5187827293" lon="31.1885214876"><ele>49.63</ele><time>2026-09-01T03:00:17Z</time></trkpt><trkpt lat="59.5188648719" lon="31.1883726250"><ele>50.41</ele><time>2026-09-01T03:00:30Z</time></trkpt><trkpt lat="59.5188759360" lon="31.1882621516"><ele>49.74</ele><time>2026-09-01T03:00:45Z</time></trkpt><trkpt lat="59.5188677218" lon="31.1882398557"><ele>49.67</ele><time>2026-09-01T03:01:08Z</time></trkpt><trkpt lat="59.5188735891" lon="31.1882121954"><ele>49.79</ele><time>2026-09-01T03:01:31Z</time></trkpt><trkpt lat="59.5189159177" lon="31.1879771668"><ele>49.44</ele><time>2026-09-01T03:01:55Z</time></trkpt><trkpt lat="59.5189780276" lon="31.1877532862"><ele>48.59</ele><time>2026-09-01T03:02:10Z</time></trkpt><trkpt lat="59.5190425683" lon="31.1875362787"><ele>48.17</ele><time>2026-09-01T03:02:23Z</time></trkpt><trkpt lat="59.5190929435" lon="31.1873818841"><ele>47.55</ele><time>2026-09-01T03:02:36Z</time></trkpt><trkpt lat="59.5191491861" lon="31.1872163415"><ele>47.93</ele><time>2026-09-01T03:02:48Z</time></trkpt><trkpt lat="59.5191978849" lon="31.1871325225"><ele>47.69</ele><time>2026-09-01T03:02:56Z</time></trkpt><trkpt lat="59.5192111284" lon="31.1870065425"><ele>47.67</ele><time>2026-09-01T03:03:10Z</time></trkpt><trkpt lat="59.5192347653" lon="31.1869182810"><ele>47.47</ele><time>2026-09-01T03:03:14Z</time></trkpt><trkpt lat="59.5193170756" lon="31.1867858469"><ele>47.41</ele><time>2026-09-01T03:03:27Z</time></trkpt><trkpt lat="59.5194094442" lon="31.1865650676"><ele>47.11</ele><time>2026-09-01T03:03:46Z</time></trkpt><trkpt lat="59.5194764156" lon="31.1863781512"><ele>46.86</ele><time>2026-09-01T03:03:58Z</time></trkpt><trkpt lat="59.5195677783" lon="31.1862598825"><ele>46.81</ele><time>2026-09-01T03:04:12Z</time></trkpt><trkpt lat="59.5196229313" lon="31.1861089244"><ele>47.27</ele><time>2026-09-01T03:04:25Z</time></trkpt><trkpt lat="59.5196684450" lon="31.1859849561"><ele>46.96</ele><time>2026-09-01T03:04:40Z</time></trkpt><trkpt lat="59.5196320675" lon="31.1858433019"><ele>46.99</ele><time>2026-09-01T03:04:58Z</time></trkpt><trkpt lat="59.5196661819" lon="31.1857262906"><ele>46.14</ele><time>2026-09-01T03:05:11Z</time></trkpt><trkpt lat="59.5196778327" lon="31.1856656894"><ele>48.86</ele><time>2026-09-01T03:05:31Z</time></trkpt><trkpt lat="59.5196862984" lon="31.1856671982"><ele>47.17</ele><time>2026-09-01T03:05:34Z</time></trkpt><trkpt lat="59.5196832810" lon="31.1856821179"><ele>46.98</ele><time>2026-09-01T03:06:04Z</time></trkpt><trkpt lat="59.5196656790" lon="31.1856680363"><ele>43.03</ele><time>2026-09-01T03:06:12Z</time></trkpt><trkpt lat="59.5196647570" lon="31.1856687907"><ele>47.87</ele><time>2026-09-01T03:06:13Z</time></trkpt><trkpt lat="59.5196655951" lon="31.1856728978"><ele>43.73</ele><time>2026-09-01T03:06:16Z</time></trkpt><trkpt lat="59.5196674392" lon="31.1856716406"><ele>52.53</ele><time>2026-09-01T03:06:18Z</time></trkpt><trkpt lat="59.5196672715" lon="31.1856697965"><ele>46.15</ele><time>2026-09-01T03:06:19Z</time></trkpt><trkpt lat="59.5196671877" lon="31.1856637616"><ele>54.19</ele><time>2026-09-01T03:06:22Z</time></trkpt><trkpt lat="59.5196665172" lon="31.1856622528"><ele>50.03</ele><time>2026-09-01T03:06:23Z</time></trkpt><trkpt lat="59.5196611527" lon="31.1856664438"><ele>47.02</ele><time>2026-09-01T03:06:31Z</time></trkpt><trkpt lat="59.5196717978" lon="31.1856648512"><ele>47.11</ele><time>2026-09-01T03:06:56Z</time></trkpt><trkpt lat="59.5197090972" lon="31.1856478360"><ele>47.19</ele><time>2026-09-01T03:07:09Z</time></trkpt><trkpt lat="59.5197159704" lon="31.1856300663"><ele>47.25</ele><time>2026-09-01T03:07:47Z</time></trkpt><trkpt lat="59.5197653398" lon="31.1855742428"><ele>47.20</ele><time>2026-09-01T03:08:02Z</time></trkpt><trkpt lat="59.5198731311" lon="31.1854925193"><ele>47.39</ele><time>2026-09-01T03:08:17Z</time></trkpt><trkpt lat="59.5200071577" lon="31.1853428185"><ele>47.70</ele><time>2026-09-01T03:08:38Z</time></trkpt><trkpt lat="59.5200521685" lon="31.1853122246"><ele>48.13</ele><time>2026-09-01T03:08:48Z</time></trkpt><trkpt lat="59.5200761408" lon="31.1852534674"><ele>48.18</ele><time>2026-09-01T03:08:54Z</time></trkpt><trkpt lat="59.5201755501" lon="31.1851659603"><ele>48.43</ele><time>2026-09-01T03:09:07Z</time></trkpt><trkpt lat="59.5202749595" lon="31.1851951294"><ele>48.45</ele><time>2026-09-01T03:09:19Z</time></trkpt><trkpt lat="59.5203460380" lon="31.1851819698"><ele>48.92</ele><time>2026-09-01T03:09:37Z</time></trkpt><trkpt lat="59.5204865187" lon="31.1850282457"><ele>48.86</ele><time>2026-09-01T03:09:52Z</time></trkpt><trkpt lat="59.5205006842" lon="31.1850031838"><ele>48.15</ele><time>2026-09-01T03:09:54Z</time></trkpt><trkpt lat="59.5205333736" lon="31.1849730927"><ele>49.67</ele><time>2026-09-01T03:10:00Z</time></trkpt><trkpt lat="59.5205989201" lon="31.1848310195"><ele>49.49</ele><time>2026-09-01T03:10:14Z</time></trkpt><trkpt lat="59.5206503849" lon="31.1846289318"><ele>48.10</ele><time>2026-09-01T03:10:31Z</time></trkpt><trkpt lat="59.5206621196" lon="31.1846039537"><ele>43.78</ele><time>2026-09-01T03:10:35Z</time></trkpt><trkpt lat="59.5206657238" lon="31.1845931411"><ele>49.20</ele><time>2026-09-01T03:10:36Z</time></trkpt><trkpt lat="59.5207328629" lon="31.1843140237"><ele>48.09</ele><time>2026-09-01T03:10:52Z</time></trkpt><trkpt lat="59.5207240619" lon="31.1842514947"><ele>48.19</ele><time>2026-09-01T03:10:59Z</time></trkpt><trkpt lat="59.5207812265" lon="31.1841950845"><ele>48.04</ele><time>2026-09-01T03:11:12Z</time></trkpt><trkpt lat="59.5207840763" lon="31.1841902230"><ele>48.03</ele><time>2026-09-01T03:11:15Z</time></trkpt><trkpt lat="59.5208513830" lon="31.1841015425"><ele>48.16</ele><time>2026-09-01T03:11:36Z</time></trkpt><trkpt lat="59.5208542328" lon="31.1841820925"><ele>48.01</ele><time>2026-09-01T03:11:57Z</time></trkpt><trkpt lat="59.5208964776" lon="31.1842012871"><ele>45.62</ele><time>2026-09-01T03:12:11Z</time></trkpt><trkpt lat="59.5208963938" lon="31.1841987725"><ele>49.10</ele><time>2026-09-01T03:12:17Z</time></trkpt><trkpt lat="59.5208919514" lon="31.1842004489"><ele>48.56</ele><time>2026-09-01T03:12:18Z</time></trkpt><trkpt lat="59.5208551548" lon="31.1842361558"><ele>48.74</ele><time>2026-09-01T03:12:36Z</time></trkpt><trkpt lat="59.5207958110" lon="31.1841339804"><ele>48.04</ele><time>2026-09-01T03:12:53Z</time></trkpt><trkpt lat="59.5207908656" lon="31.1840342358"><ele>47.05</ele><time>2026-09-01T03:13:06Z</time></trkpt><trkpt lat="59.5207809750" lon="31.1840335652"><ele>48.58</ele><time>2026-09-01T03:13:12Z</time></trkpt><trkpt lat="59.5206896123" lon="31.1840439588"><ele>48.06</ele><time>2026-09-01T03:13:24Z</time></trkpt><trkpt lat="59.5206497982" lon="31.1839596368"><ele>48.41</ele><time>2026-09-01T03:13:39Z</time></trkpt><trkpt lat="59.5206478704" lon="31.1839442980"><ele>48.50</ele><time>2026-09-01T03:13:56Z</time></trkpt><trkpt lat="59.5206521451" lon="31.1839022208"><ele>48.41</ele><time>2026-09-01T03:14:15Z</time></trkpt><trkpt lat="59.5206814818" lon="31.1840058211"><ele>48.50</ele><time>2026-09-01T03:14:36Z</time></trkpt><trkpt lat="59.5206899475" lon="31.1839413643"><ele>48.05</ele><time>2026-09-01T03:14:50Z</time></trkpt><trkpt lat="59.5206846669" lon="31.1840238422"><ele>48.21</ele><time>2026-09-01T03:15:09Z</time></trkpt><trkpt lat="59.5207077172" lon="31.1840987764"><ele>48.15</ele><time>2026-09-01T03:15:25Z</time></trkpt><trkpt lat="59.5207001735" lon="31.1839808431"><ele>48.47</ele><time>2026-09-01T03:15:38Z</time></trkpt><trkpt lat="59.5207142550" lon="31.1839149613"><ele>48.22</ele><time>2026-09-01T03:15:58Z</time></trkpt><trkpt lat="59.5207028557" lon="31.1839348264"><ele>48.22</ele><time>2026-09-01T03:16:20Z</time></trkpt><trkpt lat="59.5207325276" lon="31.1839073338"><ele>48.48</ele><time>2026-09-01T03:16:35Z</time></trkpt><trkpt lat="59.5207537338" lon="31.1839621514"><ele>48.22</ele><time>2026-09-01T03:16:56Z</time></trkpt><trkpt lat="59.5207499620" lon="31.1839431245"><ele>48.49</ele><time>2026-09-01T03:17:31Z</time></trkpt><trkpt lat="59.5207624510" lon="31.1839465611"><ele>48.53</ele><time>2026-09-01T03:17:52Z</time></trkpt><trkpt lat="59.5207519736" lon="31.1838921625"><ele>48.30</ele><time>2026-09-01T03:18:13Z</time></trkpt><trkpt lat="59.5207385626" lon="31.1839090940"><ele>48.30</ele><time>2026-09-01T03:18:37Z</time></trkpt><trkpt lat="59.5207328629" lon="31.1839247681"><ele>47.64</ele><time>2026-09-01T03:18:54Z</time></trkpt><trkpt lat="59.5207256544" lon="31.1839297973"><ele>48.08</ele><time>2026-09-01T03:19:20Z</time></trkpt><trkpt lat="59.5207441784" lon="31.1839080881"><ele>48.31</ele><time>2026-09-01T03:19:39Z</time></trkpt><trkpt lat="59.5207407419" lon="31.1839154642"><ele>48.06</ele><time>2026-09-01T03:20:08Z</time></trkpt><trkpt lat="59.5207658876" lon="31.1839526799"><ele>47.70</ele><time>2026-09-01T03:20:36Z</time></trkpt><trkpt lat="59.5207969844" lon="31.1839171406"><ele>47.57</ele><time>2026-09-01T03:21:16Z</time></trkpt><trkpt lat="59.5207576733" lon="31.1839282885"><ele>47.78</ele><time>2026-09-01T03:21:27Z</time></trkpt><trkpt lat="59.5207464416" lon="31.1839205772"><ele>47.29</ele><time>2026-09-01T03:21:46Z</time></trkpt><trkpt lat="59.5207502972" lon="31.1838523485"><ele>47.88</ele><time>2026-09-01T03:22:04Z</time></trkpt><trkpt lat="59.5207653847" lon="31.1838728841"><ele>47.44</ele><time>2026-09-01T03:22:24Z</time></trkpt><trkpt lat="59.5207721740" lon="31.1838891450"><ele>47.75</ele><time>2026-09-01T03:22:43Z</time></trkpt><trkpt lat="59.5207811426" lon="31.1838626582"><ele>47.78</ele><time>2026-09-01T03:22:59Z</time></trkpt><trkpt lat="59.5208166819" lon="31.1838412844"><ele>47.46</ele><time>2026-09-01T03:23:34Z</time></trkpt><trkpt lat="59.5208351221" lon="31.1838554498"><ele>47.30</ele><time>2026-09-01T03:24:03Z</time></trkpt><trkpt lat="59.5208383910" lon="31.1838539410"><ele>44.67</ele><time>2026-09-01T03:24:06Z</time></trkpt><trkpt lat="59.5208382234" lon="31.1838377640"><ele>47.87</ele><time>2026-09-01T03:24:17Z</time></trkpt><trkpt lat="59.5208354574" lon="31.1838374287"><ele>47.57</ele><time>2026-09-01T03:24:18Z</time></trkpt><trkpt lat="59.5207878482" lon="31.1838778295"><ele>47.53</ele><time>2026-09-01T03:24:39Z</time></trkpt><trkpt lat="59.5207887702" lon="31.1838924978"><ele>47.40</ele><time>2026-09-01T03:24:50Z</time></trkpt><trkpt lat="59.5208213758" lon="31.1838803440"><ele>47.51</ele><time>2026-09-01T03:25:04Z</time></trkpt><trkpt lat="59.5208286680" lon="31.1838798411"><ele>47.51</ele><time>2026-09-01T03:25:24Z</time></trkpt><trkpt lat="59.5208446775" lon="31.1838388536"><ele>47.37</ele><time>2026-09-01T03:25:43Z</time></trkpt><trkpt lat="59.5208419953" lon="31.1838401947"><ele>47.37</ele><time>2026-09-01T03:25:58Z</time></trkpt><trkpt lat="59.5208819769" lon="31.1838303879"><ele>47.33</ele><time>2026-09-01T03:26:14Z</time></trkpt><trkpt lat="59.5208580885" lon="31.1838178989"><ele>47.43</ele><time>2026-09-01T03:26:43Z</time></trkpt><trkpt lat="59.5208618604" lon="31.1838112772"><ele>47.34</ele><time>2026-09-01T03:27:12Z</time></trkpt><trkpt lat="59.5208399836" lon="31.1837724689"><ele>46.87</ele><time>2026-09-01T03:27:30Z</time></trkpt><trkpt lat="59.5208399836" lon="31.1836905777"><ele>47.20</ele><time>2026-09-01T03:27:41Z</time></trkpt><trkpt lat="59.5208587591" lon="31.1836161464"><ele>47.10</ele><time>2026-09-01T03:27:52Z</time></trkpt><trkpt lat="59.5208949689" lon="31.1837124545"><ele>47.36</ele><time>2026-09-01T03:28:04Z</time></trkpt><trkpt lat="59.5209250599" lon="31.1837248597"><ele>46.91</ele><time>2026-09-01T03:28:22Z</time></trkpt><trkpt lat="59.5209249761" lon="31.1837413721"><ele>47.44</ele><time>2026-09-01T03:28:38Z</time></trkpt><trkpt lat="59.5209192764" lon="31.1837332416"><ele>47.17</ele><time>2026-09-01T03:28:58Z</time></trkpt><trkpt lat="59.5209238864" lon="31.1837153882"><ele>46.67</ele><time>2026-09-01T03:29:24Z</time></trkpt><trkpt lat="59.5209056977" lon="31.1836943496"><ele>47.03</ele><time>2026-09-01T03:29:46Z</time></trkpt><trkpt lat="59.5208981540" lon="31.1836873926"><ele>46.89</ele><time>2026-09-01T03:30:27Z</time></trkpt><trkpt lat="59.5209129900" lon="31.1836848781"><ele>47.01</ele><time>2026-09-01T03:30:59Z</time></trkpt><trkpt lat="59.5209131576" lon="31.1836711317"><ele>46.77</ele><time>2026-09-01T03:31:03Z</time></trkpt><trkpt lat="59.5209304243" lon="31.1836809386"><ele>46.78</ele><time>2026-09-01T03:31:16Z</time></trkpt><trkpt lat="59.5209467690" lon="31.1837164778"><ele>46.65</ele><time>2026-09-01T03:31:56Z</time></trkpt><trkpt lat="59.5209690649" lon="31.1836972833"><ele>46.77</ele><time>2026-09-01T03:32:22Z</time></trkpt><trkpt lat="59.5209942944" lon="31.1836780887"><ele>46.84</ele><time>2026-09-01T03:32:34Z</time></trkpt><trkpt lat="59.5210510399" lon="31.1835983768"><ele>46.73</ele><time>2026-09-01T03:32:50Z</time></trkpt><trkpt lat="59.5210928656" lon="31.1836284678"><ele>46.87</ele><time>2026-09-01T03:33:15Z</time></trkpt><trkpt lat="59.5211403910" lon="31.1835585628"><ele>46.78</ele><time>2026-09-01T03:33:41Z</time></trkpt><trkpt lat="59.5211433247" lon="31.1833772622"><ele>46.84</ele><time>2026-09-01T03:33:52Z</time></trkpt><trkpt lat="59.5211458392" lon="31.1833104584"><ele>47.15</ele><time>2026-09-01T03:33:57Z</time></trkpt><trkpt lat="59.5211959630" lon="31.1831510346"><ele>49.26</ele><time>2026-09-01T03:34:10Z</time></trkpt><trkpt lat="59.5212512836" lon="31.1830165889"><ele>49.37</ele><time>2026-09-01T03:34:22Z</time></trkpt><trkpt lat="59.5213323366" lon="31.1828979012"><ele>49.64</ele><time>2026-09-01T03:34:35Z</time></trkpt><trkpt lat="59.5214255434" lon="31.1825910397"><ele>48.97</ele><time>2026-09-01T03:34:52Z</time></trkpt><trkpt lat="59.5214393735" lon="31.1825454421"><ele>48.94</ele><time>2026-09-01T03:34:55Z</time></trkpt><trkpt lat="59.5215287246" lon="31.1822879501"><ele>48.62</ele><time>2026-09-01T03:35:10Z</time></trkpt><trkpt lat="59.5215961989" lon="31.1820952501"><ele>48.96</ele><time>2026-09-01T03:35:24Z</time></trkpt><trkpt lat="59.5216268767" lon="31.1818351597"><ele>49.58</ele><time>2026-09-01T03:35:38Z</time></trkpt><trkpt lat="59.5215862244" lon="31.1816214211"><ele>49.32</ele><time>2026-09-01T03:35:50Z</time></trkpt><trkpt lat="59.5215955283" lon="31.1814126279"><ele>49.46</ele><time>2026-09-01T03:36:00Z</time></trkpt><trkpt lat="59.5216298942" lon="31.1813332513"><ele>49.45</ele><time>2026-09-01T03:36:07Z</time></trkpt><trkpt lat="59.5217643399" lon="31.1812492646"><ele>49.68</ele><time>2026-09-01T03:36:23Z</time></trkpt><trkpt lat="59.5218181517" lon="31.1812287290"><ele>50.79</ele><time>2026-09-01T03:36:35Z</time></trkpt><trkpt lat="59.5218235999" lon="31.1812138930"><ele>49.55</ele><time>2026-09-01T03:36:37Z</time></trkpt><trkpt lat="59.5218502544" lon="31.1812161561"><ele>49.70</ele><time>2026-09-01T03:37:01Z</time></trkpt><trkpt lat="59.5218728855" lon="31.1812152341"><ele>49.23</ele><time>2026-09-01T03:37:44Z</time></trkpt><trkpt lat="59.5218649227" lon="31.1812050920"><ele>50.91</ele><time>2026-09-01T03:37:55Z</time></trkpt><trkpt lat="59.5218636654" lon="31.1811994761"><ele>44.75</ele><time>2026-09-01T03:37:58Z</time></trkpt><trkpt lat="59.5218631625" lon="31.1811979674"><ele>46.35</ele><time>2026-09-01T03:37:59Z</time></trkpt><trkpt lat="59.5218624920" lon="31.1811960395"><ele>54.13</ele><time>2026-09-01T03:38:00Z</time></trkpt><trkpt lat="59.5218620729" lon="31.1811948661"><ele>52.19</ele><time>2026-09-01T03:38:01Z</time></trkpt><trkpt lat="59.5218581334" lon="31.1811939441"><ele>49.08</ele><time>2026-09-01T03:38:06Z</time></trkpt><trkpt lat="59.5218622405" lon="31.1812041700"><ele>49.52</ele><time>2026-09-01T03:38:45Z</time></trkpt><trkpt lat="59.5218814351" lon="31.1811799463"><ele>50.41</ele><time>2026-09-01T03:39:17Z</time></trkpt><trkpt lat="59.5218756516" lon="31.1811703909"><ele>47.39</ele><time>2026-09-01T03:39:26Z</time></trkpt><trkpt lat="59.5218734723" lon="31.1811715644"><ele>51.55</ele><time>2026-09-01T03:39:30Z</time></trkpt><trkpt lat="59.5218739752" lon="31.1811743304"><ele>49.65</ele><time>2026-09-01T03:39:34Z</time></trkpt><trkpt lat="59.5218830276" lon="31.1811458319"><ele>47.94</ele><time>2026-09-01T03:39:50Z</time></trkpt><trkpt lat="59.5218849555" lon="31.1810355261"><ele>47.96</ele><time>2026-09-01T03:39:58Z</time></trkpt><trkpt lat="59.5218888950" lon="31.1809817981"><ele>49.66</ele><time>2026-09-01T03:40:01Z</time></trkpt><trkpt lat="59.5219726302" lon="31.1808371264"><ele>49.53</ele><time>2026-09-01T03:40:14Z</time></trkpt><trkpt lat="59.5220225863" lon="31.1807996593"><ele>48.47</ele><time>2026-09-01T03:40:21Z</time></trkpt><trkpt lat="59.5220274478" lon="31.1807978991"><ele>49.39</ele><time>2026-09-01T03:40:23Z</time></trkpt><trkpt lat="59.5220369194" lon="31.1807823926"><ele>44.68</ele><time>2026-09-01T03:40:43Z</time></trkpt><trkpt lat="59.5220400207" lon="31.1807757709"><ele>44.68</ele><time>2026-09-01T03:40:44Z</time></trkpt><trkpt lat="59.5220551919" lon="31.1807189416"><ele>49.94</ele><time>2026-09-01T03:40:48Z</time></trkpt><trkpt lat="59.5220625680" lon="31.1807028484"><ele>49.38</ele><time>2026-09-01T03:40:49Z</time></trkpt><trkpt lat="59.5221654978" lon="31.1805583443"><ele>49.74</ele><time>2026-09-01T03:41:04Z</time></trkpt><trkpt lat="59.5222429466" lon="31.1804606952"><ele>48.81</ele><time>2026-09-01T03:41:17Z</time></trkpt><trkpt lat="59.5222656615" lon="31.1802115850"><ele>50.51</ele><time>2026-09-01T03:41:32Z</time></trkpt><trkpt lat="59.5222802460" lon="31.1800157838"><ele>50.99</ele><time>2026-09-01T03:41:43Z</time></trkpt><trkpt lat="59.5223062299" lon="31.1799053941"><ele>51.49</ele><time>2026-09-01T03:41:50Z</time></trkpt><trkpt lat="59.5223553479" lon="31.1796371732"><ele>51.82</ele><time>2026-09-01T03:42:05Z</time></trkpt><trkpt lat="59.5224164519" lon="31.1793761607"><ele>51.91</ele><time>2026-09-01T03:42:19Z</time></trkpt><trkpt lat="59.5224399213" lon="31.1792079359"><ele>46.48</ele><time>2026-09-01T03:42:25Z</time></trkpt><trkpt lat="59.5224460401" lon="31.1791879870"><ele>46.48</ele><time>2026-09-01T03:42:26Z</time></trkpt><trkpt lat="59.5224567689" lon="31.1791533697"><ele>46.49</ele><time>2026-09-01T03:42:28Z</time></trkpt><trkpt lat="59.5224690903" lon="31.1790940259"><ele>52.72</ele><time>2026-09-01T03:42:31Z</time></trkpt><trkpt lat="59.5224758796" lon="31.1790711433"><ele>52.60</ele><time>2026-09-01T03:42:32Z</time></trkpt><trkpt lat="59.5224927273" lon="31.1789723206"><ele>52.29</ele><time>2026-09-01T03:42:38Z</time></trkpt><trkpt lat="59.5225151908" lon="31.1788484361"><ele>52.40</ele><time>2026-09-01T03:42:45Z</time></trkpt><trkpt lat="59.5225596987" lon="31.1787907686"><ele>54.02</ele><time>2026-09-01T03:42:52Z</time></trkpt><trkpt lat="59.5225604530" lon="31.1787963845"><ele>54.11</ele><time>2026-09-01T03:43:00Z</time></trkpt><trkpt lat="59.5225591958" lon="31.1787902657"><ele>52.12</ele><time>2026-09-01T03:43:04Z</time></trkpt><trkpt lat="59.5225495566" lon="31.1787705682"><ele>52.71</ele><time>2026-09-01T03:43:25Z</time></trkpt><trkpt lat="59.5225438569" lon="31.1787487753"><ele>52.98</ele><time>2026-09-01T03:43:54Z</time></trkpt><trkpt lat="59.5225452818" lon="31.1787367892"><ele>52.67</ele><time>2026-09-01T03:44:27Z</time></trkpt><trkpt lat="59.5225585252" lon="31.1787457578"><ele>52.78</ele><time>2026-09-01T03:44:58Z</time></trkpt><trkpt lat="59.5226587728" lon="31.1785537284"><ele>52.51</ele><time>2026-09-01T03:45:16Z</time></trkpt><trkpt lat="59.5227279235" lon="31.1784768663"><ele>52.71</ele><time>2026-09-01T03:45:31Z</time></trkpt><trkpt lat="59.5228373911" lon="31.1783276685"><ele>52.70</ele><time>2026-09-01T03:45:44Z</time></trkpt><trkpt lat="59.5228523947" lon="31.1782662291"><ele>52.57</ele><time>2026-09-01T03:45:48Z</time></trkpt><trkpt lat="59.5229072962" lon="31.1780608725"><ele>52.51</ele><time>2026-09-01T03:46:01Z</time></trkpt><trkpt lat="59.5229313523" lon="31.1779698450"><ele>52.46</ele><time>2026-09-01T03:46:07Z</time></trkpt><trkpt lat="59.5230421610" lon="31.1778710224"><ele>52.27</ele><time>2026-09-01T03:46:19Z</time></trkpt><trkpt lat="59.5231204480" lon="31.1778782308"><ele>52.57</ele><time>2026-09-01T03:46:32Z</time></trkpt><trkpt lat="59.5231875870" lon="31.1777098384"><ele>51.89</ele><time>2026-09-01T03:46:45Z</time></trkpt><trkpt lat="59.5232379623" lon="31.1776337307"><ele>51.77</ele><time>2026-09-01T03:46:58Z</time></trkpt><trkpt lat="59.5232618507" lon="31.1774513405"><ele>51.71</ele><time>2026-09-01T03:47:13Z</time></trkpt><trkpt lat="59.5232631918" lon="31.1773993727"><ele>51.64</ele><time>2026-09-01T03:47:18Z</time></trkpt><trkpt lat="59.5232775249" lon="31.1773141287"><ele>51.59</ele><time>2026-09-01T03:47:30Z</time></trkpt><trkpt lat="59.5233291574" lon="31.1772075947"><ele>51.64</ele><time>2026-09-01T03:47:43Z</time></trkpt><trkpt lat="59.5233697258" lon="31.1770888232"><ele>51.53</ele><time>2026-09-01T03:47:58Z</time></trkpt><trkpt lat="59.5233987272" lon="31.1769704707"><ele>49.64</ele><time>2026-09-01T03:48:06Z</time></trkpt><trkpt lat="59.5234058518" lon="31.1768998951"><ele>51.30</ele><time>2026-09-01T03:48:12Z</time></trkpt><trkpt lat="59.5233996492" lon="31.1768201832"><ele>51.79</ele><time>2026-09-01T03:48:18Z</time></trkpt><trkpt lat="59.5233717375" lon="31.1767141521"><ele>51.47</ele><time>2026-09-01T03:48:30Z</time></trkpt><trkpt lat="59.5234128926" lon="31.1766110547"><ele>49.40</ele><time>2026-09-01T03:48:43Z</time></trkpt><trkpt lat="59.5234322548" lon="31.1764915287"><ele>51.06</ele><time>2026-09-01T03:48:51Z</time></trkpt><trkpt lat="59.5234963764" lon="31.1763529759"><ele>51.64</ele><time>2026-09-01T03:49:03Z</time></trkpt><trkpt lat="59.5235330891" lon="31.1763068754"><ele>51.47</ele><time>2026-09-01T03:49:23Z</time></trkpt><trkpt lat="59.5235252939" lon="31.1762050353"><ele>52.05</ele><time>2026-09-01T03:49:44Z</time></trkpt><trkpt lat="59.5235580672" lon="31.1760404985"><ele>51.26</ele><time>2026-09-01T03:50:00Z</time></trkpt><trkpt lat="59.5235843863" lon="31.1760400794"><ele>51.81</ele><time>2026-09-01T03:50:13Z</time></trkpt><trkpt lat="59.5236892439" lon="31.1761120800"><ele>51.47</ele><time>2026-09-01T03:50:29Z</time></trkpt><trkpt lat="59.5236254577" lon="31.1760801449"><ele>51.33</ele><time>2026-09-01T03:50:49Z</time></trkpt><trkpt lat="59.5235976297" lon="31.1760522332"><ele>51.10</ele><time>2026-09-01T03:51:11Z</time></trkpt><trkpt lat="59.5235966239" lon="31.1760532390"><ele>46.02</ele><time>2026-09-01T03:51:43Z</time></trkpt><trkpt lat="59.5235961210" lon="31.1760518979"><ele>49.73</ele><time>2026-09-01T03:51:44Z</time></trkpt><trkpt lat="59.5235968754" lon="31.1760423426"><ele>53.41</ele><time>2026-09-01T03:51:48Z</time></trkpt><trkpt lat="59.5235898346" lon="31.1760535743"><ele>49.60</ele><time>2026-09-01T03:51:52Z</time></trkpt><trkpt lat="59.5235903375" lon="31.1760550831"><ele>49.66</ele><time>2026-09-01T03:51:53Z</time></trkpt><trkpt lat="59.5235907566" lon="31.1760555860"><ele>53.80</ele><time>2026-09-01T03:51:54Z</time></trkpt><trkpt lat="59.5235907566" lon="31.1760547478"><ele>52.14</ele><time>2026-09-01T03:51:55Z</time></trkpt><trkpt lat="59.5235972945" lon="31.1760545801"><ele>53.97</ele><time>2026-09-01T03:52:01Z</time></trkpt><trkpt lat="59.5236009825" lon="31.1760565918"><ele>50.95</ele><time>2026-09-01T03:52:03Z</time></trkpt><trkpt lat="59.5236187521" lon="31.1760347988"><ele>51.19</ele><time>2026-09-01T03:52:35Z</time></trkpt><trkpt lat="59.5236966200" lon="31.1758937314"><ele>51.32</ele><time>2026-09-01T03:52:49Z</time></trkpt><trkpt lat="59.5237832889" lon="31.1757344753"><ele>50.80</ele><time>2026-09-01T03:53:03Z</time></trkpt><trkpt lat="59.5238431357" lon="31.1756404303"><ele>51.17</ele><time>2026-09-01T03:53:21Z</time></trkpt><trkpt lat="59.5239506755" lon="31.1755345669"><ele>50.76</ele><time>2026-09-01T03:53:33Z</time></trkpt><trkpt lat="59.5239912439" lon="31.1753882188"><ele>50.39</ele><time>2026-09-01T03:53:44Z</time></trkpt><trkpt lat="59.5239969436" lon="31.1751607340"><ele>50.59</ele><time>2026-09-01T03:53:59Z</time></trkpt><trkpt lat="59.5239845384" lon="31.1750044953"><ele>50.69</ele><time>2026-09-01T03:54:09Z</time></trkpt><trkpt lat="59.5239656791" lon="31.1748679541"><ele>50.81</ele><time>2026-09-01T03:54:20Z</time></trkpt><trkpt lat="59.5239569619" lon="31.1748076882"><ele>50.90</ele><time>2026-09-01T03:54:37Z</time></trkpt><trkpt lat="59.5239487477" lon="31.1747902539"><ele>45.43</ele><time>2026-09-01T03:54:59Z</time></trkpt><trkpt lat="59.5239482448" lon="31.1747898348"><ele>49.94</ele><time>2026-09-01T03:55:00Z</time></trkpt><trkpt lat="59.5239449758" lon="31.1747862305"><ele>50.65</ele><time>2026-09-01T03:55:02Z</time></trkpt><trkpt lat="59.5239605661" lon="31.1747563910"><ele>51.13</ele><time>2026-09-01T03:55:20Z</time></trkpt><trkpt lat="59.5239886455" lon="31.1746239569"><ele>50.90</ele><time>2026-09-01T03:55:34Z</time></trkpt><trkpt lat="59.5240114443" lon="31.1744783632"><ele>51.01</ele><time>2026-09-01T03:55:47Z</time></trkpt><trkpt lat="59.5240313932" lon="31.1743796244"><ele>50.39</ele><time>2026-09-01T03:56:05Z</time></trkpt><trkpt lat="59.5240311418" lon="31.1744023394"><ele>50.72</ele><time>2026-09-01T03:56:32Z</time></trkpt><trkpt lat="59.5240549464" lon="31.1741982400"><ele>50.82</ele><time>2026-09-01T03:56:47Z</time></trkpt><trkpt lat="59.5240557846" lon="31.1741054524"><ele>50.92</ele><time>2026-09-01T03:56:54Z</time></trkpt><trkpt lat="59.5240503363" lon="31.1739167757"><ele>50.90</ele><time>2026-09-01T03:57:07Z</time></trkpt><trkpt lat="59.5240753982" lon="31.1738127563"><ele>50.95</ele><time>2026-09-01T03:57:17Z</time></trkpt><trkpt lat="59.5241074171" lon="31.1736744549"><ele>50.39</ele><time>2026-09-01T03:57:30Z</time></trkpt><trkpt lat="59.5241496619" lon="31.1735773925"><ele>50.72</ele><time>2026-09-01T03:57:45Z</time></trkpt><trkpt lat="59.5241911523" lon="31.1734250095"><ele>50.76</ele><time>2026-09-01T03:58:01Z</time></trkpt><trkpt lat="59.5242054854" lon="31.1733583733"><ele>47.26</ele><time>2026-09-01T03:58:06Z</time></trkpt><trkpt lat="59.5242047310" lon="31.1733254325"><ele>50.35</ele><time>2026-09-01T03:58:07Z</time></trkpt><trkpt lat="59.5242293738" lon="31.1731776595"><ele>50.54</ele><time>2026-09-01T03:58:21Z</time></trkpt><trkpt lat="59.5242886338" lon="31.1730489973"><ele>50.32</ele><time>2026-09-01T03:58:38Z</time></trkpt><trkpt lat="59.5243391767" lon="31.1730583850"><ele>49.39</ele><time>2026-09-01T03:59:06Z</time></trkpt><trkpt lat="59.5244687609" lon="31.1729862168"><ele>50.99</ele><time>2026-09-01T03:59:20Z</time></trkpt><trkpt lat="59.5245620515" lon="31.1728125438"><ele>51.32</ele><time>2026-09-01T03:59:37Z</time></trkpt><trkpt lat="59.5245551784" lon="31.1727828719"><ele>49.67</ele><time>2026-09-01T03:59:44Z</time></trkpt><trkpt lat="59.5245588664" lon="31.1727779265"><ele>52.00</ele><time>2026-09-01T03:59:48Z</time></trkpt><trkpt lat="59.5245704334" lon="31.1727175768"><ele>52.09</ele><time>2026-09-01T04:00:10Z</time></trkpt><trkpt lat="59.5245883707" lon="31.1727116257"><ele>50.51</ele><time>2026-09-01T04:00:42Z</time></trkpt><trkpt lat="59.5245845988" lon="31.1727099493"><ele>54.31</ele><time>2026-09-01T04:00:46Z</time></trkpt><trkpt lat="59.5245843474" lon="31.1727094464"><ele>54.31</ele><time>2026-09-01T04:00:47Z</time></trkpt><trkpt lat="59.5245728642" lon="31.1727093626"><ele>52.00</ele><time>2026-09-01T04:00:57Z</time></trkpt><trkpt lat="59.5245664939" lon="31.1727164872"><ele>51.60</ele><time>2026-09-01T04:01:26Z</time></trkpt><trkpt lat="59.5245676674" lon="31.1727231927"><ele>48.47</ele><time>2026-09-01T04:01:35Z</time></trkpt><trkpt lat="59.5245711878" lon="31.1727217678"><ele>56.46</ele><time>2026-09-01T04:01:38Z</time></trkpt><trkpt lat="59.5245705172" lon="31.1727216840"><ele>56.47</ele><time>2026-09-01T04:01:39Z</time></trkpt><trkpt lat="59.5245703496" lon="31.1727222707"><ele>50.79</ele><time>2026-09-01T04:01:40Z</time></trkpt><trkpt lat="59.5245709363" lon="31.1727239471"><ele>50.94</ele><time>2026-09-01T04:01:41Z</time></trkpt><trkpt lat="59.5245713554" lon="31.1727253720"><ele>47.20</ele><time>2026-09-01T04:01:42Z</time></trkpt><trkpt lat="59.5245723613" lon="31.1727269646"><ele>48.92</ele><time>2026-09-01T04:01:43Z</time></trkpt><trkpt lat="59.5245734509" lon="31.1727285571"><ele>58.69</ele><time>2026-09-01T04:01:44Z</time></trkpt><trkpt lat="59.5245756302" lon="31.1727301497"><ele>55.00</ele><time>2026-09-01T04:01:45Z</time></trkpt><trkpt lat="59.5245778933" lon="31.1727312393"><ele>51.05</ele><time>2026-09-01T04:01:46Z</time></trkpt><trkpt lat="59.5245825872" lon="31.1727341730"><ele>49.20</ele><time>2026-09-01T04:01:48Z</time></trkpt><trkpt lat="59.5245863590" lon="31.1727317423"><ele>53.66</ele><time>2026-09-01T04:01:52Z</time></trkpt><trkpt lat="59.5245865267" lon="31.1727323290"><ele>52.59</ele><time>2026-09-01T04:01:53Z</time></trkpt><trkpt lat="59.5245955791" lon="31.1727229413"><ele>51.56</ele><time>2026-09-01T04:02:16Z</time></trkpt><trkpt lat="59.5245985966" lon="31.1726432294"><ele>51.84</ele><time>2026-09-01T04:02:32Z</time></trkpt><trkpt lat="59.5246086549" lon="31.1725108791"><ele>51.47</ele><time>2026-09-01T04:02:58Z</time></trkpt><trkpt lat="59.5246661548" lon="31.1722802930"><ele>50.62</ele><time>2026-09-01T04:03:11Z</time></trkpt><trkpt lat="59.5247068908" lon="31.1720762774"><ele>50.67</ele><time>2026-09-01T04:03:23Z</time></trkpt><trkpt lat="59.5247158594" lon="31.1718392372"><ele>50.53</ele><time>2026-09-01T04:03:38Z</time></trkpt><trkpt lat="59.5247249957" lon="31.1717012711"><ele>50.76</ele><time>2026-09-01T04:03:46Z</time></trkpt><trkpt lat="59.5247613732" lon="31.1715716869"><ele>50.38</ele><time>2026-09-01T04:03:58Z</time></trkpt><trkpt lat="59.5248344634" lon="31.1714461260"><ele>49.98</ele><time>2026-09-01T04:04:10Z</time></trkpt><trkpt lat="59.5248861797" lon="31.1713269353"><ele>49.91</ele><time>2026-09-01T04:04:22Z</time></trkpt><trkpt lat="59.5249028597" lon="31.1711200699"><ele>50.04</ele><time>2026-09-01T04:04:40Z</time></trkpt><trkpt lat="59.5249378961" lon="31.1708807666"><ele>49.85</ele><time>2026-09-01T04:04:55Z</time></trkpt><trkpt lat="59.5249614492" lon="31.1707112845"><ele>50.15</ele><time>2026-09-01T04:05:09Z</time></trkpt><trkpt lat="59.5250076335" lon="31.1705178302"><ele>50.04</ele><time>2026-09-01T04:05:25Z</time></trkpt><trkpt lat="59.5250271633" lon="31.1704568937"><ele>50.12</ele><time>2026-09-01T04:05:30Z</time></trkpt><trkpt lat="59.5250722580" lon="31.1702472623"><ele>49.87</ele><time>2026-09-01T04:05:46Z</time></trkpt><trkpt lat="59.5250931289" lon="31.1700600944"><ele>48.83</ele><time>2026-09-01T04:05:58Z</time></trkpt><trkpt lat="59.5251085516" lon="31.1700273212"><ele>50.89</ele><time>2026-09-01T04:06:01Z</time></trkpt><trkpt lat="59.5251499582" lon="31.1699898541"><ele>50.29</ele><time>2026-09-01T04:06:20Z</time></trkpt><trkpt lat="59.5252017584" lon="31.1699786223"><ele>50.08</ele><time>2026-09-01T04:06:31Z</time></trkpt><trkpt lat="59.5252102241" lon="31.1699703243"><ele>50.31</ele><time>2026-09-01T04:06:44Z</time></trkpt><trkpt lat="59.5252203662" lon="31.1699802987"><ele>49.99</ele><time>2026-09-01T04:07:11Z</time></trkpt><trkpt lat="59.5252263173" lon="31.1699783709"><ele>48.54</ele><time>2026-09-01T04:07:28Z</time></trkpt><trkpt lat="59.5252263173" lon="31.1699788738"><ele>50.46</ele><time>2026-09-01T04:07:30Z</time></trkpt><trkpt lat="59.5252342802" lon="31.1699570809"><ele>51.47</ele><time>2026-09-01T04:08:03Z</time></trkpt><trkpt lat="59.5252382196" lon="31.1699648760"><ele>48.42</ele><time>2026-09-01T04:08:13Z</time></trkpt><trkpt lat="59.5252380520" lon="31.1699672230"><ele>51.64</ele><time>2026-09-01T04:08:15Z</time></trkpt><trkpt lat="59.5252386387" lon="31.1699670553"><ele>51.86</ele><time>2026-09-01T04:08:16Z</time></trkpt><trkpt lat="59.5252405666" lon="31.1699725874"><ele>49.82</ele><time>2026-09-01T04:08:47Z</time></trkpt><trkpt lat="59.5252001658" lon="31.1699894350"><ele>52.61</ele><time>2026-09-01T04:08:53Z</time></trkpt><trkpt lat="59.5251234714" lon="31.1700795405"><ele>50.31</ele><time>2026-09-01T04:09:05Z</time></trkpt><trkpt lat="59.5250847470" lon="31.1700652074"><ele>50.48</ele><time>2026-09-01T04:09:11Z</time></trkpt><trkpt lat="59.5250595175" lon="31.1700555682"><ele>50.30</ele><time>2026-09-01T04:09:13Z</time></trkpt><trkpt lat="59.5250128303" lon="31.1700629443"><ele>50.31</ele><time>2026-09-01T04:09:17Z</time></trkpt><trkpt lat="59.5249857567" lon="31.1701356992"><ele>50.29</ele><time>2026-09-01T04:09:29Z</time></trkpt><trkpt lat="59.5248866826" lon="31.1703230347"><ele>50.46</ele><time>2026-09-01T04:09:45Z</time></trkpt><trkpt lat="59.5248091500" lon="31.1704532895"><ele>50.55</ele><time>2026-09-01T04:09:58Z</time></trkpt><trkpt lat="59.5247651450" lon="31.1705695465"><ele>50.54</ele><time>2026-09-01T04:10:06Z</time></trkpt><trkpt lat="59.5246838406" lon="31.1706616636"><ele>50.80</ele><time>2026-09-01T04:10:20Z</time></trkpt><trkpt lat="59.5246156957" lon="31.1707233544"><ele>50.69</ele><time>2026-09-01T04:10:33Z</time></trkpt><trkpt lat="59.5245814975" lon="31.1708147172"><ele>50.67</ele><time>2026-09-01T04:10:41Z</time></trkpt><trkpt lat="59.5245146938" lon="31.1708634999"><ele>50.61</ele><time>2026-09-01T04:10:53Z</time></trkpt><trkpt lat="59.5244113449" lon="31.1708927527"><ele>50.81</ele><time>2026-09-01T04:11:07Z</time></trkpt><trkpt lat="59.5243456308" lon="31.1708250269"><ele>50.84</ele><time>2026-09-01T04:11:16Z</time></trkpt><trkpt lat="59.5242658351" lon="31.1707857996"><ele>50.87</ele><time>2026-09-01T04:11:29Z</time></trkpt><trkpt lat="59.5241895597" lon="31.1707394477"><ele>50.75</ele><time>2026-09-01T04:11:43Z</time></trkpt><trkpt lat="59.5241081715" lon="31.1707484163"><ele>50.68</ele><time>2026-09-01T04:11:58Z</time></trkpt><trkpt lat="59.5240059961" lon="31.1706409603"><ele>50.73</ele><time>2026-09-01T04:12:11Z</time></trkpt><trkpt lat="59.5238960255" lon="31.1706036609"><ele>50.85</ele><time>2026-09-01T04:12:26Z</time></trkpt><trkpt lat="59.5238028187" lon="31.1704924330"><ele>50.82</ele><time>2026-09-01T04:12:39Z</time></trkpt><trkpt lat="59.5237931795" lon="31.1704704724"><ele>49.79</ele><time>2026-09-01T04:12:49Z</time></trkpt><trkpt lat="59.5237896591" lon="31.1704703886"><ele>50.81</ele><time>2026-09-01T04:12:51Z</time></trkpt><trkpt lat="59.5237907488" lon="31.1704873201"><ele>51.89</ele><time>2026-09-01T04:13:04Z</time></trkpt><trkpt lat="59.5237974543" lon="31.1704784352"><ele>48.54</ele><time>2026-09-01T04:13:15Z</time></trkpt><trkpt lat="59.5237956941" lon="31.1704697181"><ele>48.46</ele><time>2026-09-01T04:13:16Z</time></trkpt><trkpt lat="59.5237941854" lon="31.1704701371"><ele>52.14</ele><time>2026-09-01T04:13:17Z</time></trkpt><trkpt lat="59.5237936825" lon="31.1704688799"><ele>51.58</ele><time>2026-09-01T04:13:18Z</time></trkpt><trkpt lat="59.5237865578" lon="31.1704908404"><ele>51.80</ele><time>2026-09-01T04:13:28Z</time></trkpt><trkpt lat="59.5237839594" lon="31.1704815365"><ele>51.40</ele><time>2026-09-01T04:13:51Z</time></trkpt><trkpt lat="59.5236935187" lon="31.1704934388"><ele>51.04</ele><time>2026-09-01T04:14:04Z</time></trkpt><trkpt lat="59.5235929359" lon="31.1705028266"><ele>51.43</ele><time>2026-09-01T04:14:19Z</time></trkpt><trkpt lat="59.5235308260" lon="31.1706042476"><ele>51.57</ele><time>2026-09-01T04:14:32Z</time></trkpt><trkpt lat="59.5234626811" lon="31.1706110369"><ele>51.55</ele><time>2026-09-01T04:14:39Z</time></trkpt><trkpt lat="59.5234264713" lon="31.1705923453"><ele>51.88</ele><time>2026-09-01T04:14:45Z</time></trkpt><trkpt lat="59.5233143214" lon="31.1705438979"><ele>51.84</ele><time>2026-09-01T04:15:00Z</time></trkpt><trkpt lat="59.5232490264" lon="31.1705814488"><ele>52.06</ele><time>2026-09-01T04:15:13Z</time></trkpt><trkpt lat="59.5231785346" lon="31.1705464963"><ele>51.01</ele><time>2026-09-01T04:15:32Z</time></trkpt><trkpt lat="59.5230595954" lon="31.1705214344"><ele>51.47</ele><time>2026-09-01T04:15:49Z</time></trkpt><trkpt lat="59.5230044425" lon="31.1704972945"><ele>52.34</ele><time>2026-09-01T04:15:58Z</time></trkpt><trkpt lat="59.5229511335" lon="31.1704370286"><ele>53.57</ele><time>2026-09-01T04:16:07Z</time></trkpt><trkpt lat="59.5229462720" lon="31.1704332568"><ele>52.73</ele><time>2026-09-01T04:16:09Z</time></trkpt><trkpt lat="59.5229599345" lon="31.1704114638"><ele>52.71</ele><time>2026-09-01T04:16:39Z</time></trkpt><trkpt lat="59.5229403209" lon="31.1704468355"><ele>52.57</ele><time>2026-09-01T04:17:36Z</time></trkpt><trkpt lat="59.5229069609" lon="31.1704332568"><ele>52.64</ele><time>2026-09-01T04:18:17Z</time></trkpt><trkpt lat="59.5229263231" lon="31.1704595760"><ele>53.04</ele><time>2026-09-01T04:18:37Z</time></trkpt><trkpt lat="59.5229159296" lon="31.1705270503"><ele>52.77</ele><time>2026-09-01T04:18:58Z</time></trkpt><trkpt lat="59.5229099784" lon="31.1705673672"><ele>52.52</ele><time>2026-09-01T04:19:03Z</time></trkpt><trkpt lat="59.5228483714" lon="31.1706407927"><ele>52.24</ele><time>2026-09-01T04:19:15Z</time></trkpt><trkpt lat="59.5228542387" lon="31.1706363503"><ele>52.16</ele><time>2026-09-01T04:19:36Z</time></trkpt><trkpt lat="59.5228426717" lon="31.1706480850"><ele>52.83</ele><time>2026-09-01T04:19:38Z</time></trkpt><trkpt lat="59.5228332840" lon="31.1708324868"><ele>52.00</ele><time>2026-09-01T04:19:54Z</time></trkpt><trkpt lat="59.5228323620" lon="31.1708359234"><ele>52.15</ele><time>2026-09-01T04:19:55Z</time></trkpt><trkpt lat="59.5228167716" lon="31.1709446367"><ele>52.05</ele><time>2026-09-01T04:20:04Z</time></trkpt><trkpt lat="59.5227604453" lon="31.1710175592"><ele>50.71</ele><time>2026-09-01T04:20:17Z</time></trkpt><trkpt lat="59.5226887800" lon="31.1711927410"><ele>51.82</ele><time>2026-09-01T04:20:31Z</time></trkpt><trkpt lat="59.5226052962" lon="31.1712540966"><ele>52.11</ele><time>2026-09-01T04:20:44Z</time></trkpt><trkpt lat="59.5225405879" lon="31.1714127660"><ele>52.04</ele><time>2026-09-01T04:20:59Z</time></trkpt><trkpt lat="59.5225230698" lon="31.1714068986"><ele>52.01</ele><time>2026-09-01T04:21:13Z</time></trkpt><trkpt lat="59.5224422682" lon="31.1715736985"><ele>51.87</ele><time>2026-09-01T04:21:26Z</time></trkpt><trkpt lat="59.5224014483" lon="31.1716600321"><ele>51.95</ele><time>2026-09-01T04:21:41Z</time></trkpt><trkpt lat="59.5223667473" lon="31.1717425939"><ele>52.16</ele><time>2026-09-01T04:22:07Z</time></trkpt><trkpt lat="59.5223613828" lon="31.1718383990"><ele>52.28</ele><time>2026-09-01T04:22:23Z</time></trkpt><trkpt lat="59.5223206468" lon="31.1720087193"><ele>52.72</ele><time>2026-09-01T04:22:39Z</time></trkpt><trkpt lat="59.5222727861" lon="31.1720659677"><ele>52.52</ele><time>2026-09-01T04:22:53Z</time></trkpt><trkpt lat="59.5222681761" lon="31.1720619444"><ele>52.20</ele><time>2026-09-01T04:22:57Z</time></trkpt><trkpt lat="59.5221964270" lon="31.1721579172"><ele>52.29</ele><time>2026-09-01T04:23:10Z</time></trkpt><trkpt lat="59.5221449621" lon="31.1721413210"><ele>52.25</ele><time>2026-09-01T04:23:21Z</time></trkpt><trkpt lat="59.5220647473" lon="31.1722123995"><ele>52.17</ele><time>2026-09-01T04:23:33Z</time></trkpt><trkpt lat="59.5220119413" lon="31.1723524611"><ele>52.09</ele><time>2026-09-01T04:23:50Z</time></trkpt><trkpt lat="59.5219537709" lon="31.1724801175"><ele>52.15</ele><time>2026-09-01T04:24:03Z</time></trkpt><trkpt lat="59.5218657609" lon="31.1725648586"><ele>52.62</ele><time>2026-09-01T04:24:19Z</time></trkpt><trkpt lat="59.5218021423" lon="31.1725726537"><ele>45.68</ele><time>2026-09-01T04:24:31Z</time></trkpt><trkpt lat="59.5217998791" lon="31.1725716479"><ele>45.68</ele><time>2026-09-01T04:24:32Z</time></trkpt><trkpt lat="59.5217924193" lon="31.1725760903"><ele>53.02</ele><time>2026-09-01T04:24:36Z</time></trkpt><trkpt lat="59.5217935927" lon="31.1725807842"><ele>52.53</ele><time>2026-09-01T04:24:37Z</time></trkpt><trkpt lat="59.5217567962" lon="31.1727186665"><ele>52.44</ele><time>2026-09-01T04:24:48Z</time></trkpt><trkpt lat="59.5216998830" lon="31.1728092749"><ele>52.38</ele><time>2026-09-01T04:24:58Z</time></trkpt><trkpt lat="59.5216810238" lon="31.1728081852"><ele>52.41</ele><time>2026-09-01T04:25:00Z</time></trkpt><trkpt lat="59.5216608234" lon="31.1728601530"><ele>52.48</ele><time>2026-09-01T04:25:04Z</time></trkpt><trkpt lat="59.5216462389" lon="31.1730487458"><ele>52.57</ele><time>2026-09-01T04:25:16Z</time></trkpt><trkpt lat="59.5216165669" lon="31.1731429584"><ele>47.49</ele><time>2026-09-01T04:25:29Z</time></trkpt><trkpt lat="59.5216168184" lon="31.1731490772"><ele>55.43</ele><time>2026-09-01T04:25:30Z</time></trkpt><trkpt lat="59.5216191653" lon="31.1731552798"><ele>52.34</ele><time>2026-09-01T04:25:31Z</time></trkpt><trkpt lat="59.5216029882" lon="31.1731377617"><ele>52.45</ele><time>2026-09-01T04:25:53Z</time></trkpt><trkpt lat="59.5216099452" lon="31.1731125321"><ele>52.70</ele><time>2026-09-01T04:26:28Z</time></trkpt><trkpt lat="59.5215969533" lon="31.1731322296"><ele>52.64</ele><time>2026-09-01T04:27:11Z</time></trkpt><trkpt lat="59.5215877332" lon="31.1731457245"><ele>52.59</ele><time>2026-09-01T04:27:41Z</time></trkpt><trkpt lat="59.5215990487" lon="31.1731524300"><ele>51.91</ele><time>2026-09-01T04:28:27Z</time></trkpt><trkpt lat="59.5215370227" lon="31.1732064094"><ele>52.42</ele><time>2026-09-01T04:28:41Z</time></trkpt><trkpt lat="59.5214988850" lon="31.1732478999"><ele>52.85</ele><time>2026-09-01T04:29:01Z</time></trkpt><trkpt lat="59.5214753319" lon="31.1734252609"><ele>52.48</ele><time>2026-09-01T04:29:17Z</time></trkpt><trkpt lat="59.5214616694" lon="31.1735847685"><ele>52.14</ele><time>2026-09-01T04:29:27Z</time></trkpt><trkpt lat="59.5214211848" lon="31.1737663206"><ele>52.45</ele><time>2026-09-01T04:29:40Z</time></trkpt><trkpt lat="59.5214115456" lon="31.1738016922"><ele>52.53</ele><time>2026-09-01T04:29:43Z</time></trkpt><trkpt lat="59.5213936921" lon="31.1739379819"><ele>52.59</ele><time>2026-09-01T04:29:54Z</time></trkpt><trkpt lat="59.5213800296" lon="31.1740635429"><ele>52.68</ele><time>2026-09-01T04:30:07Z</time></trkpt><trkpt lat="59.5213853940" lon="31.1743387207"><ele>52.40</ele><time>2026-09-01T04:30:24Z</time></trkpt><trkpt lat="59.5213942789" lon="31.1745641939"><ele>52.74</ele><time>2026-09-01T04:30:38Z</time></trkpt><trkpt lat="59.5214145631" lon="31.1747207679"><ele>52.64</ele><time>2026-09-01T04:30:50Z</time></trkpt><trkpt lat="59.5214078575" lon="31.1748227756"><ele>53.28</ele><time>2026-09-01T04:31:04Z</time></trkpt><trkpt lat="59.5213450771" lon="31.1749496777"><ele>53.82</ele><time>2026-09-01T04:31:20Z</time></trkpt><trkpt lat="59.5213397965" lon="31.1750578880"><ele>52.65</ele><time>2026-09-01T04:31:35Z</time></trkpt><trkpt lat="59.5212378725" lon="31.1752375960"><ele>53.36</ele><time>2026-09-01T04:31:52Z</time></trkpt><trkpt lat="59.5212020818" lon="31.1753753945"><ele>53.35</ele><time>2026-09-01T04:32:07Z</time></trkpt><trkpt lat="59.5211878326" lon="31.1754612252"><ele>53.06</ele><time>2026-09-01T04:32:29Z</time></trkpt><trkpt lat="59.5211525448" lon="31.1755120195"><ele>52.69</ele><time>2026-09-01T04:32:43Z</time></trkpt><trkpt lat="59.5211242978" lon="31.1756593734"><ele>52.68</ele><time>2026-09-01T04:32:55Z</time></trkpt><trkpt lat="59.5210994873" lon="31.1757743731"><ele>53.09</ele><time>2026-09-01T04:33:10Z</time></trkpt><trkpt lat="59.5210968889" lon="31.1757803243"><ele>48.52</ele><time>2026-09-01T04:33:14Z</time></trkpt><trkpt lat="59.5210973918" lon="31.1757821683"><ele>53.64</ele><time>2026-09-01T04:33:15Z</time></trkpt><trkpt lat="59.5210748445" lon="31.1758159474"><ele>49.59</ele><time>2026-09-01T04:33:23Z</time></trkpt><trkpt lat="59.5210720785" lon="31.1758235749"><ele>53.43</ele><time>2026-09-01T04:33:24Z</time></trkpt><trkpt lat="59.5210826397" lon="31.1760366429"><ele>53.17</ele><time>2026-09-01T04:33:38Z</time></trkpt><trkpt lat="59.5210048556" lon="31.1761264969"><ele>52.63</ele><time>2026-09-01T04:33:51Z</time></trkpt><trkpt lat="59.5209640358" lon="31.1761380639"><ele>46.58</ele><time>2026-09-01T04:33:57Z</time></trkpt><trkpt lat="59.5209595095" lon="31.1761379801"><ele>54.48</ele><time>2026-09-01T04:33:58Z</time></trkpt><trkpt lat="59.5209185220" lon="31.1761607789"><ele>52.94</ele><time>2026-09-01T04:34:03Z</time></trkpt><trkpt lat="59.5208365470" lon="31.1762162670"><ele>53.07</ele><time>2026-09-01T04:34:24Z</time></trkpt><trkpt lat="59.5207869262" lon="31.1762011796"><ele>52.29</ele><time>2026-09-01T04:34:30Z</time></trkpt><trkpt lat="59.5206959825" lon="31.1761791352"><ele>52.79</ele><time>2026-09-01T04:34:46Z</time></trkpt><trkpt lat="59.5206589345" lon="31.1762003414"><ele>48.83</ele><time>2026-09-01T04:34:55Z</time></trkpt><trkpt lat="59.5206543244" lon="31.1762007605"><ele>49.76</ele><time>2026-09-01T04:34:56Z</time></trkpt><trkpt lat="59.5206496306" lon="31.1762089748"><ele>52.97</ele><time>2026-09-01T04:34:59Z</time></trkpt><trkpt lat="59.5206493791" lon="31.1762105674"><ele>52.97</ele><time>2026-09-01T04:35:00Z</time></trkpt><trkpt lat="59.5206642989" lon="31.1762399878"><ele>52.86</ele><time>2026-09-01T04:35:23Z</time></trkpt><trkpt lat="59.5206590183" lon="31.1762720905"><ele>52.83</ele><time>2026-09-01T04:35:46Z</time></trkpt><trkpt lat="59.5206391532" lon="31.1762763653"><ele>52.66</ele><time>2026-09-01T04:36:16Z</time></trkpt><trkpt lat="59.5206383988" lon="31.1762713362"><ele>46.15</ele><time>2026-09-01T04:36:24Z</time></trkpt><trkpt lat="59.5206387341" lon="31.1762744375"><ele>46.15</ele><time>2026-09-01T04:36:25Z</time></trkpt><trkpt lat="59.5206459425" lon="31.1763024330"><ele>52.60</ele><time>2026-09-01T04:36:34Z</time></trkpt><trkpt lat="59.5206464455" lon="31.1763007566"><ele>52.72</ele><time>2026-09-01T04:36:35Z</time></trkpt><trkpt lat="59.5206626225" lon="31.1763043609"><ele>52.45</ele><time>2026-09-01T04:37:07Z</time></trkpt><trkpt lat="59.5206673164" lon="31.1763632856"><ele>52.42</ele><time>2026-09-01T04:37:14Z</time></trkpt><trkpt lat="59.5206343755" lon="31.1764748488"><ele>51.81</ele><time>2026-09-01T04:37:22Z</time></trkpt><trkpt lat="59.5206160191" lon="31.1766060255"><ele>51.81</ele><time>2026-09-01T04:37:33Z</time></trkpt><trkpt lat="59.5205917954" lon="31.1767406389"><ele>51.87</ele><time>2026-09-01T04:37:43Z</time></trkpt><trkpt lat="59.5204944815" lon="31.1768040899"><ele>51.86</ele><time>2026-09-01T04:37:55Z</time></trkpt><trkpt lat="59.5204549190" lon="31.1769882403"><ele>51.61</ele><time>2026-09-01T04:38:09Z</time></trkpt><trkpt lat="59.5203958265" lon="31.1771199200"><ele>51.59</ele><time>2026-09-01T04:38:20Z</time></trkpt><trkpt lat="59.5203593653" lon="31.1772622447"><ele>50.95</ele><time>2026-09-01T04:38:33Z</time></trkpt><trkpt lat="59.5202445332" lon="31.1773448903"><ele>50.73</ele><time>2026-09-01T04:38:46Z</time></trkpt><trkpt lat="59.5201401785" lon="31.1774338223"><ele>51.20</ele><time>2026-09-01T04:38:59Z</time></trkpt><trkpt lat="59.5201402623" lon="31.1775208265"><ele>51.22</ele><time>2026-09-01T04:39:07Z</time></trkpt><trkpt lat="59.5200445410" lon="31.1777239200"><ele>51.35</ele><time>2026-09-01T04:39:21Z</time></trkpt><trkpt lat="59.5200055651" lon="31.1777652428"><ele>51.26</ele><time>2026-09-01T04:39:27Z</time></trkpt><trkpt lat="59.5199751388" lon="31.1779519916"><ele>51.26</ele><time>2026-09-01T04:39:40Z</time></trkpt><trkpt lat="59.5199121907" lon="31.1780541670"><ele>50.61</ele><time>2026-09-01T04:39:53Z</time></trkpt><trkpt lat="59.5198823512" lon="31.1782593559"><ele>51.16</ele><time>2026-09-01T04:40:06Z</time></trkpt><trkpt lat="59.5198699459" lon="31.1783201247"><ele>51.10</ele><time>2026-09-01T04:40:10Z</time></trkpt><trkpt lat="59.5197867975" lon="31.1784399860"><ele>50.99</ele><time>2026-09-01T04:40:23Z</time></trkpt><trkpt lat="59.5197445527" lon="31.1785000842"><ele>51.35</ele><time>2026-09-01T04:40:35Z</time></trkpt><trkpt lat="59.5196924172" lon="31.1785498727"><ele>51.41</ele><time>2026-09-01T04:40:44Z</time></trkpt><trkpt lat="59.5196079277" lon="31.1784665566"><ele>51.53</ele><time>2026-09-01T04:40:55Z</time></trkpt><trkpt lat="59.5195849612" lon="31.1784061231"><ele>50.31</ele><time>2026-09-01T04:41:25Z</time></trkpt><trkpt lat="59.5196019765" lon="31.1784540676"><ele>50.14</ele><time>2026-09-01T04:42:27Z</time></trkpt><trkpt lat="59.5196203329" lon="31.1784697417"><ele>50.16</ele><time>2026-09-01T04:43:39Z</time></trkpt><trkpt lat="59.5196102746" lon="31.1784663890"><ele>50.26</ele><time>2026-09-01T04:45:06Z</time></trkpt><trkpt lat="59.5196189918" lon="31.1784782074"><ele>53.35</ele><time>2026-09-01T04:45:48Z</time></trkpt><trkpt lat="59.5196114480" lon="31.1784875952"><ele>52.07</ele><time>2026-09-01T04:45:49Z</time></trkpt><trkpt lat="59.5196075924" lon="31.1784928758"><ele>47.81</ele><time>2026-09-01T04:46:14Z</time></trkpt><trkpt lat="59.5196049940" lon="31.1784954742"><ele>49.30</ele><time>2026-09-01T04:46:15Z</time></trkpt><trkpt lat="59.5196031500" lon="31.1784964800"><ele>54.74</ele><time>2026-09-01T04:46:16Z</time></trkpt><trkpt lat="59.5196018927" lon="31.1784962285"><ele>52.72</ele><time>2026-09-01T04:46:17Z</time></trkpt><trkpt lat="59.5195994619" lon="31.1784870923"><ele>51.13</ele><time>2026-09-01T04:46:34Z</time></trkpt><trkpt lat="59.5195996296" lon="31.1785036884"><ele>51.27</ele><time>2026-09-01T04:47:14Z</time></trkpt><trkpt lat="59.5195863862" lon="31.1785903573"><ele>51.01</ele><time>2026-09-01T04:47:35Z</time></trkpt><trkpt lat="59.5195734780" lon="31.1788455863"><ele>50.76</ele><time>2026-09-01T04:47:48Z</time></trkpt><trkpt lat="59.5195034891" lon="31.1790052615"><ele>51.00</ele><time>2026-09-01T04:48:01Z</time></trkpt><trkpt lat="59.5194775891" lon="31.1790561397"><ele>51.19</ele><time>2026-09-01T04:48:16Z</time></trkpt><trkpt lat="59.5194714703" lon="31.1791181657"><ele>51.16</ele><time>2026-09-01T04:48:24Z</time></trkpt><trkpt lat="59.5194980409" lon="31.1792041641"><ele>51.04</ele><time>2026-09-01T04:48:29Z</time></trkpt><trkpt lat="59.5194758289" lon="31.1793629173"><ele>51.14</ele><time>2026-09-01T04:48:45Z</time></trkpt><trkpt lat="59.5194095280" lon="31.1795192398"><ele>50.57</ele><time>2026-09-01T04:49:02Z</time></trkpt><trkpt lat="59.5194109529" lon="31.1794671882"><ele>50.88</ele><time>2026-09-01T04:49:06Z</time></trkpt><trkpt lat="59.5193420537" lon="31.1796315573"><ele>50.94</ele><time>2026-09-01T04:49:20Z</time></trkpt><trkpt lat="59.5193244517" lon="31.1797626503"><ele>50.90</ele><time>2026-09-01T04:49:34Z</time></trkpt><trkpt lat="59.5193049219" lon="31.1799306236"><ele>51.02</ele><time>2026-09-01T04:49:45Z</time></trkpt><trkpt lat="59.5193127170" lon="31.1800661590"><ele>50.59</ele><time>2026-09-01T04:49:55Z</time></trkpt><trkpt lat="59.5193384495" lon="31.1802037060"><ele>50.65</ele><time>2026-09-01T04:50:06Z</time></trkpt><trkpt lat="59.5192744955" lon="31.1803289317"><ele>50.57</ele><time>2026-09-01T04:50:26Z</time></trkpt><trkpt lat="59.5192705560" lon="31.1803428456"><ele>51.63</ele><time>2026-09-01T04:50:28Z</time></trkpt><trkpt lat="59.5192550495" lon="31.1803913768"><ele>50.51</ele><time>2026-09-01T04:50:31Z</time></trkpt><trkpt lat="59.5192509424" lon="31.1806150898"><ele>50.56</ele><time>2026-09-01T04:50:43Z</time></trkpt><trkpt lat="59.5192367770" lon="31.1808332708"><ele>51.24</ele><time>2026-09-01T04:50:55Z</time></trkpt><trkpt lat="59.5192074403" lon="31.1810014956"><ele>51.74</ele><time>2026-09-01T04:51:05Z</time></trkpt><trkpt lat="59.5191532932" lon="31.1811744981"><ele>51.57</ele><time>2026-09-01T04:51:19Z</time></trkpt><trkpt lat="59.5191220287" lon="31.1813649349"><ele>51.42</ele><time>2026-09-01T04:51:32Z</time></trkpt><trkpt lat="59.5190913510" lon="31.1814085208"><ele>51.27</ele><time>2026-09-01T04:51:52Z</time></trkpt><trkpt lat="59.5190744195" lon="31.1814121250"><ele>51.24</ele><time>2026-09-01T04:52:33Z</time></trkpt><trkpt lat="59.5190397184" lon="31.1816636659"><ele>50.63</ele><time>2026-09-01T04:52:47Z</time></trkpt><trkpt lat="59.5190570690" lon="31.1819066573"><ele>50.98</ele><time>2026-09-01T04:53:00Z</time></trkpt><trkpt lat="59.5189452544" lon="31.1820273567"><ele>50.70</ele><time>2026-09-01T04:53:12Z</time></trkpt><trkpt lat="59.5189181808" lon="31.1820412707"><ele>50.98</ele><time>2026-09-01T04:53:14Z</time></trkpt><trkpt lat="59.5188760199" lon="31.1820806656"><ele>51.16</ele><time>2026-09-01T04:53:19Z</time></trkpt><trkpt lat="59.5188317634" lon="31.1822008621"><ele>50.33</ele><time>2026-09-01T04:53:27Z</time></trkpt><trkpt lat="59.5188088808" lon="31.1822899617"><ele>49.95</ele><time>2026-09-01T04:53:44Z</time></trkpt><trkpt lat="59.5187325217" lon="31.1823671591"><ele>50.37</ele><time>2026-09-01T04:53:57Z</time></trkpt><trkpt lat="59.5187038556" lon="31.1824546661"><ele>50.47</ele><time>2026-09-01T04:54:03Z</time></trkpt><trkpt lat="59.5186996646" lon="31.1824985873"><ele>50.50</ele><time>2026-09-01T04:54:05Z</time></trkpt><trkpt lat="59.5185958967" lon="31.1826561671"><ele>49.63</ele><time>2026-09-01T04:54:18Z</time></trkpt><trkpt lat="59.5185455214" lon="31.1827377230"><ele>48.89</ele><time>2026-09-01T04:54:34Z</time></trkpt><trkpt lat="59.5185057074" lon="31.1828552373"><ele>49.32</ele><time>2026-09-01T04:54:46Z</time></trkpt><trkpt lat="59.5185769536" lon="31.1828344502"><ele>49.14</ele><time>2026-09-01T04:55:03Z</time></trkpt><trkpt lat="59.5186188631" lon="31.1828671396"><ele>49.24</ele><time>2026-09-01T04:55:09Z</time></trkpt><trkpt lat="59.5186603535" lon="31.1829509586"><ele>49.14</ele><time>2026-09-01T04:55:17Z</time></trkpt><trkpt lat="59.5187092200" lon="31.1830963846"><ele>49.06</ele><time>2026-09-01T04:55:32Z</time></trkpt><trkpt lat="59.5187472738" lon="31.1831099633"><ele>49.27</ele><time>2026-09-01T04:55:48Z</time></trkpt><trkpt lat="59.5188315958" lon="31.1831020843"><ele>49.20</ele><time>2026-09-01T04:56:06Z</time></trkpt><trkpt lat="59.5188486949" lon="31.1831134837"><ele>49.03</ele><time>2026-09-01T04:56:09Z</time></trkpt><trkpt lat="59.5189289097" lon="31.1830507871"><ele>49.30</ele><time>2026-09-01T04:56:21Z</time></trkpt><trkpt lat="59.5189931989" lon="31.1831037607"><ele>49.28</ele><time>2026-09-01T04:56:44Z</time></trkpt><trkpt lat="59.5190248825" lon="31.1829701532"><ele>49.19</ele><time>2026-09-01T04:56:59Z</time></trkpt><trkpt lat="59.5190639421" lon="31.1829185206"><ele>48.06</ele><time>2026-09-01T04:57:04Z</time></trkpt><trkpt lat="59.5190967992" lon="31.1828671396"><ele>51.28</ele><time>2026-09-01T04:57:08Z</time></trkpt><trkpt lat="59.5190998167" lon="31.1828584224"><ele>50.93</ele><time>2026-09-01T04:57:09Z</time></trkpt><trkpt lat="59.5191129763" lon="31.1828827299"><ele>49.97</ele><time>2026-09-01T04:57:11Z</time></trkpt><trkpt lat="59.5191565622" lon="31.1828958895"><ele>49.57</ele><time>2026-09-01T04:57:23Z</time></trkpt><trkpt lat="59.5191647764" lon="31.1830869131"><ele>48.74</ele><time>2026-09-01T04:57:38Z</time></trkpt><trkpt lat="59.5191531256" lon="31.1833031662"><ele>48.25</ele><time>2026-09-01T04:57:54Z</time></trkpt><trkpt lat="59.5191624295" lon="31.1833302397"><ele>49.64</ele><time>2026-09-01T04:58:00Z</time></trkpt><trkpt lat="59.5191705599" lon="31.1833754182"><ele>43.21</ele><time>2026-09-01T04:58:04Z</time></trkpt><trkpt lat="59.5191720687" lon="31.1833753344"><ele>47.91</ele><time>2026-09-01T04:58:05Z</time></trkpt><trkpt lat="59.5191740803" lon="31.1833722331"><ele>49.70</ele><time>2026-09-01T04:58:07Z</time></trkpt><trkpt lat="59.5191733260" lon="31.1833683774"><ele>48.07</ele><time>2026-09-01T04:58:10Z</time></trkpt><trkpt lat="59.5191707276" lon="31.1833746638"><ele>51.88</ele><time>2026-09-01T04:58:12Z</time></trkpt><trkpt lat="59.5191739965" lon="31.1833651923"><ele>48.79</ele><time>2026-09-01T04:58:15Z</time></trkpt><trkpt lat="59.5191758405" lon="31.1833707243"><ele>51.06</ele><time>2026-09-01T04:58:21Z</time></trkpt><trkpt lat="59.5191705599" lon="31.1833821237"><ele>49.24</ele><time>2026-09-01T04:58:24Z</time></trkpt><trkpt lat="59.5191682968" lon="31.1833840515"><ele>52.86</ele><time>2026-09-01T04:58:28Z</time></trkpt><trkpt lat="59.5191683806" lon="31.1833838839"><ele>52.34</ele><time>2026-09-01T04:58:29Z</time></trkpt><trkpt lat="59.5191687997" lon="31.1833863985"><ele>49.93</ele><time>2026-09-01T04:58:32Z</time></trkpt><trkpt lat="59.5191594958" lon="31.1833904218"><ele>49.66</ele><time>2026-09-01T04:59:08Z</time></trkpt><trkpt lat="59.5191426482" lon="31.1833862308"><ele>49.53</ele><time>2026-09-01T04:59:37Z</time></trkpt><trkpt lat="59.5191724040" lon="31.1834624223"><ele>49.21</ele><time>2026-09-01T04:59:55Z</time></trkpt><trkpt lat="59.5191980526" lon="31.1836131290"><ele>49.74</ele><time>2026-09-01T05:00:09Z</time></trkpt><trkpt lat="59.5192523673" lon="31.1836307310"><ele>48.91</ele><time>2026-09-01T05:00:25Z</time></trkpt><trkpt lat="59.5191980526" lon="31.1837627459"><ele>48.95</ele><time>2026-09-01T05:00:37Z</time></trkpt><trkpt lat="59.5190908480" lon="31.1838591378"><ele>49.05</ele><time>2026-09-01T05:00:50Z</time></trkpt><trkpt lat="59.5190508664" lon="31.1839888897"><ele>49.07</ele><time>2026-09-01T05:01:03Z</time></trkpt><trkpt lat="59.5190299116" lon="31.1840729602"><ele>49.16</ele><time>2026-09-01T05:01:21Z</time></trkpt><trkpt lat="59.5190833043" lon="31.1840023845"><ele>48.65</ele><time>2026-09-01T05:01:41Z</time></trkpt><trkpt lat="59.5191157423" lon="31.1840067431"><ele>48.31</ele><time>2026-09-01T05:02:06Z</time></trkpt><trkpt lat="59.5191128924" lon="31.1839874648"><ele>48.56</ele><time>2026-09-01T05:02:23Z</time></trkpt><trkpt lat="59.5190920215" lon="31.1837628298"><ele>48.02</ele><time>2026-09-01T05:02:38Z</time></trkpt><trkpt lat="59.5190874953" lon="31.1837479938"><ele>49.28</ele><time>2026-09-01T05:02:40Z</time></trkpt><trkpt lat="59.5190883335" lon="31.1837271228"><ele>47.63</ele><time>2026-09-01T05:02:43Z</time></trkpt><trkpt lat="59.5190613437" lon="31.1836825311"><ele>49.32</ele><time>2026-09-01T05:02:47Z</time></trkpt><trkpt lat="59.5189623535" lon="31.1836141348"><ele>50.00</ele><time>2026-09-01T05:03:00Z</time></trkpt><trkpt lat="59.5189580787" lon="31.1836141348"><ele>48.62</ele><time>2026-09-01T05:03:03Z</time></trkpt><trkpt lat="59.5189250540" lon="31.1836129613"><ele>49.32</ele><time>2026-09-01T05:03:28Z</time></trkpt><trkpt lat="59.5188946277" lon="31.1836209241"><ele>49.55</ele><time>2026-09-01T05:03:41Z</time></trkpt><trkpt lat="59.5188755170" lon="31.1836108658"><ele>49.30</ele><time>2026-09-01T05:03:57Z</time></trkpt><trkpt lat="59.5188877545" lon="31.1836480815"><ele>48.57</ele><time>2026-09-01T05:04:12Z</time></trkpt><trkpt lat="59.5188599266" lon="31.1836877279"><ele>49.33</ele><time>2026-09-01T05:04:27Z</time></trkpt><trkpt lat="59.5188146643" lon="31.1837046593"><ele>49.31</ele><time>2026-09-01T05:04:32Z</time></trkpt><trkpt lat="59.5187481958" lon="31.1837531906"><ele>49.77</ele><time>2026-09-01T05:04:43Z</time></trkpt><trkpt lat="59.5187295880" lon="31.1838702019"><ele>49.12</ele><time>2026-09-01T05:04:56Z</time></trkpt><trkpt lat="59.5186733454" lon="31.1839651689"><ele>48.97</ele><time>2026-09-01T05:05:07Z</time></trkpt><trkpt lat="59.5186970662" lon="31.1840760615"><ele>48.64</ele><time>2026-09-01T05:05:23Z</time></trkpt><trkpt lat="59.5187127404" lon="31.1841305438"><ele>48.59</ele><time>2026-09-01T05:05:42Z</time></trkpt><trkpt lat="59.5187633671" lon="31.1841753870"><ele>48.34</ele><time>2026-09-01T05:05:58Z</time></trkpt><trkpt lat="59.5187623613" lon="31.1841863673"><ele>48.44</ele><time>2026-09-01T05:06:17Z</time></trkpt><trkpt lat="59.5187536441" lon="31.1841988564"><ele>48.56</ele><time>2026-09-01T05:06:30Z</time></trkpt><trkpt lat="59.5187617745" lon="31.1842129380"><ele>48.04</ele><time>2026-09-01T05:06:48Z</time></trkpt><trkpt lat="59.5187652949" lon="31.1842119321"><ele>48.50</ele><time>2026-09-01T05:07:07Z</time></trkpt><trkpt lat="59.5187709946" lon="31.1842825916"><ele>48.05</ele><time>2026-09-01T05:07:25Z</time></trkpt><trkpt lat="59.5187549852" lon="31.1843431927"><ele>48.33</ele><time>2026-09-01T05:07:46Z</time></trkpt><trkpt lat="59.5187743474" lon="31.1843246687"><ele>48.04</ele><time>2026-09-01T05:08:09Z</time></trkpt><trkpt lat="59.5188066177" lon="31.1843524966"><ele>48.34</ele><time>2026-09-01T05:08:35Z</time></trkpt><trkpt lat="59.5188411511" lon="31.1843740381"><ele>48.34</ele><time>2026-09-01T05:08:52Z</time></trkpt><trkpt lat="59.5188727509" lon="31.1843700986"><ele>48.39</ele><time>2026-09-01T05:09:15Z</time></trkpt><trkpt lat="59.5188821387" lon="31.1843796540"><ele>48.26</ele><time>2026-09-01T05:09:31Z</time></trkpt><trkpt lat="59.5188737568" lon="31.1843304522"><ele>48.13</ele><time>2026-09-01T05:09:46Z</time></trkpt><trkpt lat="59.5189166721" lon="31.1843763851"><ele>48.06</ele><time>2026-09-01T05:10:09Z</time></trkpt><trkpt lat="59.5190102980" lon="31.1843441986"><ele>48.47</ele><time>2026-09-01T05:10:24Z</time></trkpt><trkpt lat="59.5190597512" lon="31.1843381636"><ele>48.19</ele><time>2026-09-01T05:10:29Z</time></trkpt><trkpt lat="59.5191584900" lon="31.1843143590"><ele>48.29</ele><time>2026-09-01T05:10:42Z</time></trkpt><trkpt lat="59.5192387048" lon="31.1843996029"><ele>48.59</ele><time>2026-09-01T05:10:58Z</time></trkpt><trkpt lat="59.5192945283" lon="31.1845878605"><ele>48.89</ele><time>2026-09-01T05:11:12Z</time></trkpt><trkpt lat="59.5192225277" lon="31.1847202946"><ele>49.06</ele><time>2026-09-01T05:11:24Z</time></trkpt><trkpt lat="59.5192188397" lon="31.1847266648"><ele>49.14</ele><time>2026-09-01T05:11:25Z</time></trkpt><trkpt lat="59.5191370323" lon="31.1849299259"><ele>48.76</ele><time>2026-09-01T05:11:39Z</time></trkpt><trkpt lat="59.5190723240" lon="31.1850171816"><ele>47.88</ele><time>2026-09-01T05:11:50Z</time></trkpt><trkpt lat="59.5189531334" lon="31.1849843245"><ele>47.66</ele><time>2026-09-01T05:12:06Z</time></trkpt><trkpt lat="59.5189427398" lon="31.1849742662"><ele>47.98</ele><time>2026-09-01T05:12:07Z</time></trkpt><trkpt lat="59.5188313443" lon="31.1850449257"><ele>48.33</ele><time>2026-09-01T05:12:20Z</time></trkpt><trkpt lat="59.5187381376" lon="31.1851874180"><ele>48.13</ele><time>2026-09-01T05:12:33Z</time></trkpt><trkpt lat="59.5187241398" lon="31.1852460913"><ele>48.47</ele><time>2026-09-01T05:12:48Z</time></trkpt><trkpt lat="59.5187105611" lon="31.1852584966"><ele>48.50</ele><time>2026-09-01T05:13:23Z</time></trkpt><trkpt lat="59.5187055320" lon="31.1852791999"><ele>46.99</ele><time>2026-09-01T05:13:54Z</time></trkpt><trkpt lat="59.5187080465" lon="31.1852862407"><ele>50.19</ele><time>2026-09-01T05:13:56Z</time></trkpt><trkpt lat="59.5187083818" lon="31.1852881685"><ele>49.60</ele><time>2026-09-01T05:13:57Z</time></trkpt><trkpt lat="59.5187290851" lon="31.1852439959"><ele>48.57</ele><time>2026-09-01T05:14:36Z</time></trkpt><trkpt lat="59.5187312644" lon="31.1852378771"><ele>46.74</ele><time>2026-09-01T05:14:44Z</time></trkpt><trkpt lat="59.5187316835" lon="31.1852475163"><ele>50.44</ele><time>2026-09-01T05:14:46Z</time></trkpt><trkpt lat="59.5187315997" lon="31.1852555629"><ele>49.98</ele><time>2026-09-01T05:14:47Z</time></trkpt><trkpt lat="59.5187231340" lon="31.1853695568"><ele>48.46</ele><time>2026-09-01T05:15:00Z</time></trkpt><trkpt lat="59.5186983235" lon="31.1854193453"><ele>48.48</ele><time>2026-09-01T05:15:16Z</time></trkpt><trkpt lat="59.5186769497" lon="31.1854124721"><ele>48.11</ele><time>2026-09-01T05:15:24Z</time></trkpt><trkpt lat="59.5185500477" lon="31.1855239514"><ele>49.69</ele><time>2026-09-01T05:15:37Z</time></trkpt><trkpt lat="59.5184542425" lon="31.1855726503"><ele>51.12</ele><time>2026-09-01T05:15:50Z</time></trkpt><trkpt lat="59.5183726866" lon="31.1856396217"><ele>51.18</ele><time>2026-09-01T05:16:06Z</time></trkpt><trkpt lat="59.5183399972" lon="31.1857885681"><ele>51.25</ele><time>2026-09-01T05:16:16Z</time></trkpt><trkpt lat="59.5182943996" lon="31.1858129594"><ele>51.17</ele><time>2026-09-01T05:16:20Z</time></trkpt><trkpt lat="59.5182635542" lon="31.1858875584"><ele>51.14</ele><time>2026-09-01T05:16:25Z</time></trkpt><trkpt lat="59.5182376541" lon="31.1858816911"><ele>50.85</ele><time>2026-09-01T05:16:29Z</time></trkpt><trkpt lat="59.5181930624" lon="31.1860669311"><ele>51.23</ele><time>2026-09-01T05:16:41Z</time></trkpt><trkpt lat="59.5181326289" lon="31.1861290410"><ele>51.97</ele><time>2026-09-01T05:16:48Z</time></trkpt><trkpt lat="59.5180983469" lon="31.1861364171"><ele>51.24</ele><time>2026-09-01T05:16:51Z</time></trkpt><trkpt lat="59.5180634782" lon="31.1861529294"><ele>51.08</ele><time>2026-09-01T05:16:55Z</time></trkpt><trkpt lat="59.5180167072" lon="31.1861559469"><ele>50.97</ele><time>2026-09-01T05:17:00Z</time></trkpt><trkpt lat="59.5179093350" lon="31.1862018798"><ele>52.17</ele><time>2026-09-01T05:17:11Z</time></trkpt><trkpt lat="59.5178978518" lon="31.1862053163"><ele>51.16</ele><time>2026-09-01T05:17:12Z</time></trkpt><trkpt lat="59.5178697724" lon="31.1862278637"><ele>51.64</ele><time>2026-09-01T05:17:15Z</time></trkpt><trkpt lat="59.5178286172" lon="31.1862401851"><ele>51.80</ele><time>2026-09-01T05:17:19Z</time></trkpt><trkpt lat="59.5177033916" lon="31.1863044742"><ele>50.76</ele><time>2026-09-01T05:17:32Z</time></trkpt><trkpt lat="59.5176308881" lon="31.1863666680"><ele>50.63</ele><time>2026-09-01T05:17:44Z</time></trkpt><trkpt lat="59.5175766572" lon="31.1863930710"><ele>50.54</ele><time>2026-09-01T05:17:59Z</time></trkpt><trkpt lat="59.5174648426" lon="31.1863891315"><ele>49.81</ele><time>2026-09-01T05:18:12Z</time></trkpt><trkpt lat="59.5174472407" lon="31.1864019558"><ele>51.97</ele><time>2026-09-01T05:18:14Z</time></trkpt><trkpt lat="59.5173980389" lon="31.1864317954"><ele>48.23</ele><time>2026-09-01T05:18:19Z</time></trkpt><trkpt lat="59.5173877291" lon="31.1864304543"><ele>48.84</ele><time>2026-09-01T05:18:20Z</time></trkpt><trkpt lat="59.5173827000" lon="31.1864338070"><ele>52.07</ele><time>2026-09-01T05:18:21Z</time></trkpt><trkpt lat="59.5173560455" lon="31.1864028778"><ele>51.47</ele><time>2026-09-01T05:18:25Z</time></trkpt><trkpt lat="59.5173610747" lon="31.1864095833"><ele>50.89</ele><time>2026-09-01T05:18:51Z</time></trkpt><trkpt lat="59.5173538662" lon="31.1863993574"><ele>51.24</ele><time>2026-09-01T05:19:17Z</time></trkpt><trkpt lat="59.5172935165" lon="31.1864761356"><ele>50.15</ele><time>2026-09-01T05:19:24Z</time></trkpt><trkpt lat="59.5172323287" lon="31.1865507346"><ele>50.12</ele><time>2026-09-01T05:19:32Z</time></trkpt><trkpt lat="59.5172027405" lon="31.1865763832"><ele>50.15</ele><time>2026-09-01T05:19:35Z</time></trkpt><trkpt lat="59.5171706378" lon="31.1865896266"><ele>49.64</ele><time>2026-09-01T05:19:38Z</time></trkpt><trkpt lat="59.5170318335" lon="31.1866681650"><ele>49.10</ele><time>2026-09-01T05:19:50Z</time></trkpt><trkpt lat="59.5169541333" lon="31.1866913829"><ele>48.42</ele><time>2026-09-01T05:20:02Z</time></trkpt><trkpt lat="59.5168556459" lon="31.1867286824"><ele>47.59</ele><time>2026-09-01T05:20:15Z</time></trkpt><trkpt lat="59.5168237947" lon="31.1867320351"><ele>48.92</ele><time>2026-09-01T05:20:20Z</time></trkpt><trkpt lat="59.5167597570" lon="31.1868291814"><ele>49.48</ele><time>2026-09-01T05:20:32Z</time></trkpt><trkpt lat="59.5167297497" lon="31.1869794689"><ele>49.25</ele><time>2026-09-01T05:20:42Z</time></trkpt><trkpt lat="59.5167104714" lon="31.1871918663"><ele>48.89</ele><time>2026-09-01T05:20:53Z</time></trkpt><trkpt lat="59.5166276582" lon="31.1872679740"><ele>49.20</ele><time>2026-09-01T05:21:05Z</time></trkpt><trkpt lat="59.5165786240" lon="31.1873737536"><ele>49.31</ele><time>2026-09-01T05:21:13Z</time></trkpt><trkpt lat="59.5165528916" lon="31.1874765996"><ele>48.92</ele><time>2026-09-01T05:21:21Z</time></trkpt><trkpt lat="59.5165205374" lon="31.1876710597"><ele>48.27</ele><time>2026-09-01T05:21:33Z</time></trkpt><trkpt lat="59.5165217947" lon="31.1877455749"><ele>48.44</ele><time>2026-09-01T05:21:37Z</time></trkpt><trkpt lat="59.5164969843" lon="31.1879776698"><ele>47.48</ele><time>2026-09-01T05:21:52Z</time></trkpt><trkpt lat="59.5164593495" lon="31.1881648377"><ele>48.15</ele><time>2026-09-01T05:22:05Z</time></trkpt><trkpt lat="59.5164295938" lon="31.1883000378"><ele>47.47</ele><time>2026-09-01T05:22:17Z</time></trkpt><trkpt lat="59.5164047834" lon="31.1883038934"><ele>47.43</ele><time>2026-09-01T05:22:20Z</time></trkpt><trkpt lat="59.5163365547" lon="31.1884346511"><ele>47.38</ele><time>2026-09-01T05:22:31Z</time></trkpt><trkpt lat="59.5162536576" lon="31.1885712761"><ele>47.20</ele><time>2026-09-01T05:22:45Z</time></trkpt><trkpt lat="59.5161862671" lon="31.1886539217"><ele>46.93</ele><time>2026-09-01T05:22:57Z</time></trkpt><trkpt lat="59.5161139313" lon="31.1888151895"><ele>47.37</ele><time>2026-09-01T05:23:10Z</time></trkpt><trkpt lat="59.5160390809" lon="31.1889814865"><ele>46.11</ele><time>2026-09-01T05:23:22Z</time></trkpt><trkpt lat="59.5160285197" lon="31.1890275870"><ele>41.19</ele><time>2026-09-01T05:23:24Z</time></trkpt><trkpt lat="59.5160260890" lon="31.1890487932"><ele>41.21</ele><time>2026-09-01T05:23:25Z</time></trkpt><trkpt lat="59.5160219818" lon="31.1891177762"><ele>46.70</ele><time>2026-09-01T05:23:29Z</time></trkpt><trkpt lat="59.5160218980" lon="31.1891231406"><ele>46.08</ele><time>2026-09-01T05:23:30Z</time></trkpt><trkpt lat="59.5159794018" lon="31.1893227976"><ele>46.36</ele><time>2026-09-01T05:23:42Z</time></trkpt><trkpt lat="59.5159709360" lon="31.1894660443"><ele>46.89</ele><time>2026-09-01T05:24:00Z</time></trkpt><trkpt lat="59.5159647334" lon="31.1895277351"><ele>47.35</ele><time>2026-09-01T05:24:13Z</time></trkpt><trkpt lat="59.5159249194" lon="31.1895554792"><ele>47.25</ele><time>2026-09-01T05:24:39Z</time></trkpt><trkpt lat="59.5159198903" lon="31.1895345245"><ele>43.73</ele><time>2026-09-01T05:24:50Z</time></trkpt><trkpt lat="59.5159200579" lon="31.1895346921"><ele>44.06</ele><time>2026-09-01T05:24:51Z</time></trkpt><trkpt lat="59.5159198903" lon="31.1895350274"><ele>48.61</ele><time>2026-09-01T05:24:52Z</time></trkpt><trkpt lat="59.5159157831" lon="31.1895366199"><ele>47.55</ele><time>2026-09-01T05:24:56Z</time></trkpt><trkpt lat="59.5158962533" lon="31.1895215325"><ele>47.12</ele><time>2026-09-01T05:25:38Z</time></trkpt><trkpt lat="59.5158891287" lon="31.1895623524"><ele>46.99</ele><time>2026-09-01T05:25:46Z</time></trkpt><trkpt lat="59.5158425253" lon="31.1897068564"><ele>45.90</ele><time>2026-09-01T05:25:58Z</time></trkpt><trkpt lat="59.5157548506" lon="31.1897770967"><ele>46.37</ele><time>2026-09-01T05:26:11Z</time></trkpt><trkpt lat="59.5157472230" lon="31.1897613388"><ele>45.53</ele><time>2026-09-01T05:26:27Z</time></trkpt><trkpt lat="59.5157423615" lon="31.1897634342"><ele>45.97</ele><time>2026-09-01T05:26:45Z</time></trkpt><trkpt lat="59.5157218259" lon="31.1898091994"><ele>46.26</ele><time>2026-09-01T05:27:00Z</time></trkpt><trkpt lat="59.5156709477" lon="31.1898042541"><ele>46.20</ele><time>2026-09-01T05:27:15Z</time></trkpt><trkpt lat="59.5156490710" lon="31.1898337584"><ele>45.89</ele><time>2026-09-01T05:27:31Z</time></trkpt><trkpt lat="59.5155840274" lon="31.1899018195"><ele>46.22</ele><time>2026-09-01T05:27:46Z</time></trkpt><trkpt lat="59.5155420341" lon="31.1899423879"><ele>46.15</ele><time>2026-09-01T05:27:58Z</time></trkpt><trkpt lat="59.5154880546" lon="31.1899637617"><ele>45.75</ele><time>2026-09-01T05:28:09Z</time></trkpt><trkpt lat="59.5154429600" lon="31.1900372710"><ele>46.70</ele><time>2026-09-01T05:28:17Z</time></trkpt><trkpt lat="59.5153458137" lon="31.1901000515"><ele>46.31</ele><time>2026-09-01T05:28:31Z</time></trkpt><trkpt lat="59.5152074285" lon="31.1902098544"><ele>47.26</ele><time>2026-09-01T05:28:45Z</time></trkpt><trkpt lat="59.5151462406" lon="31.1903529335"><ele>47.65</ele><time>2026-09-01T05:28:57Z</time></trkpt><trkpt lat="59.5150636788" lon="31.1905064899"><ele>48.10</ele><time>2026-09-01T05:29:09Z</time></trkpt><trkpt lat="59.5150040835" lon="31.1906057317"><ele>47.53</ele><time>2026-09-01T05:29:21Z</time></trkpt><trkpt lat="59.5149411354" lon="31.1909350567"><ele>47.56</ele><time>2026-09-01T05:29:36Z</time></trkpt><trkpt lat="59.5148937777" lon="31.1910873558"><ele>47.44</ele><time>2026-09-01T05:29:49Z</time></trkpt><trkpt lat="59.5148904249" lon="31.1910938937"><ele>44.95</ele><time>2026-09-01T05:29:51Z</time></trkpt><trkpt lat="59.5148727391" lon="31.1911898665"><ele>46.66</ele><time>2026-09-01T05:29:58Z</time></trkpt><trkpt lat="59.5148381218" lon="31.1913826503"><ele>46.79</ele><time>2026-09-01T05:30:10Z</time></trkpt><trkpt lat="59.5148281474" lon="31.1914130766"><ele>46.28</ele><time>2026-09-01T05:30:14Z</time></trkpt><trkpt lat="59.5148415584" lon="31.1916329339"><ele>46.07</ele><time>2026-09-01T05:30:28Z</time></trkpt><trkpt lat="59.5147757605" lon="31.1918473430"><ele>46.02</ele><time>2026-09-01T05:30:41Z</time></trkpt><trkpt lat="59.5146862417" lon="31.1918988917"><ele>46.07</ele><time>2026-09-01T05:30:58Z</time></trkpt><trkpt lat="59.5146065298" lon="31.1919333413"><ele>46.72</ele><time>2026-09-01T05:31:12Z</time></trkpt><trkpt lat="59.5145474374" lon="31.1920925975"><ele>46.50</ele><time>2026-09-01T05:31:24Z</time></trkpt><trkpt lat="59.5145446714" lon="31.1921256222"><ele>46.51</ele><time>2026-09-01T05:31:27Z</time></trkpt><trkpt lat="59.5145388879" lon="31.1922453996"><ele>47.09</ele><time>2026-09-01T05:31:34Z</time></trkpt><trkpt lat="59.5145512931" lon="31.1924278736"><ele>46.74</ele><time>2026-09-01T05:31:47Z</time></trkpt><trkpt lat="59.5145579986" lon="31.1924665980"><ele>42.68</ele><time>2026-09-01T05:31:56Z</time></trkpt><trkpt lat="59.5145649556" lon="31.1924705375"><ele>47.14</ele><time>2026-09-01T05:31:57Z</time></trkpt><trkpt lat="59.5145605970" lon="31.1924819369"><ele>51.32</ele><time>2026-09-01T05:32:03Z</time></trkpt><trkpt lat="59.5145592559" lon="31.1924805958"><ele>49.04</ele><time>2026-09-01T05:32:04Z</time></trkpt><trkpt lat="59.5145364571" lon="31.1924708728"><ele>47.05</ele><time>2026-09-01T05:32:19Z</time></trkpt><trkpt lat="59.5145334397" lon="31.1924803443"><ele>47.08</ele><time>2026-09-01T05:32:48Z</time></trkpt><trkpt lat="59.5145191904" lon="31.1924821883"><ele>47.39</ele><time>2026-09-01T05:33:17Z</time></trkpt><trkpt lat="59.5145448390" lon="31.1924859602"><ele>47.22</ele><time>2026-09-01T05:33:36Z</time></trkpt><trkpt lat="59.5144743472" lon="31.1926978547"><ele>47.41</ele><time>2026-09-01T05:33:52Z</time></trkpt><trkpt lat="59.5143745188" lon="31.1926668417"><ele>46.85</ele><time>2026-09-01T05:34:03Z</time></trkpt><trkpt lat="59.5143328607" lon="31.1926644947"><ele>46.80</ele><time>2026-09-01T05:34:06Z</time></trkpt><trkpt lat="59.5142312720" lon="31.1928092502"><ele>47.44</ele><time>2026-09-01T05:34:21Z</time></trkpt><trkpt lat="59.5141273364" lon="31.1928683426"><ele>47.99</ele><time>2026-09-01T05:34:34Z</time></trkpt><trkpt lat="59.5141110756" lon="31.1928543448"><ele>48.05</ele><time>2026-09-01T05:34:36Z</time></trkpt><trkpt lat="59.5140358899" lon="31.1929333862"><ele>47.58</ele><time>2026-09-01T05:34:47Z</time></trkpt><trkpt lat="59.5139649790" lon="31.1930768006"><ele>47.70</ele><time>2026-09-01T05:34:59Z</time></trkpt><trkpt lat="59.5138678327" lon="31.1931735277"><ele>48.02</ele><time>2026-09-01T05:35:13Z</time></trkpt><trkpt lat="59.5138559304" lon="31.1932605319"><ele>48.41</ele><time>2026-09-01T05:35:21Z</time></trkpt><trkpt lat="59.5138211455" lon="31.1934081372"><ele>48.33</ele><time>2026-09-01T05:35:33Z</time></trkpt><trkpt lat="59.5137813315" lon="31.1936255638"><ele>48.44</ele><time>2026-09-01T05:35:45Z</time></trkpt><trkpt lat="59.5138006937" lon="31.1938351952"><ele>47.63</ele><time>2026-09-01T05:35:57Z</time></trkpt><trkpt lat="59.5138356462" lon="31.1939376220"><ele>47.08</ele><time>2026-09-01T05:36:11Z</time></trkpt><trkpt lat="59.5137880370" lon="31.1940236203"><ele>47.41</ele><time>2026-09-01T05:36:42Z</time></trkpt><trkpt lat="59.5137417689" lon="31.1941828765"><ele>47.63</ele><time>2026-09-01T05:36:50Z</time></trkpt><trkpt lat="59.5137832593" lon="31.1943898257"><ele>47.87</ele><time>2026-09-01T05:37:03Z</time></trkpt><trkpt lat="59.5138246659" lon="31.1946047377"><ele>47.34</ele><time>2026-09-01T05:37:18Z</time></trkpt><trkpt lat="59.5138424356" lon="31.1947536841"><ele>47.30</ele><time>2026-09-01T05:37:44Z</time></trkpt><trkpt lat="59.5138282701" lon="31.1950005312"><ele>47.86</ele><time>2026-09-01T05:37:56Z</time></trkpt><trkpt lat="59.5138468780" lon="31.1951655708"><ele>47.63</ele><time>2026-09-01T05:38:08Z</time></trkpt><trkpt lat="59.5138621330" lon="31.1953442730"><ele>47.42</ele><time>2026-09-01T05:38:23Z</time></trkpt><trkpt lat="59.5138581935" lon="31.1953889485"><ele>47.34</ele><time>2026-09-01T05:38:27Z</time></trkpt><trkpt lat="59.5138442796" lon="31.1954832450"><ele>48.79</ele><time>2026-09-01T05:38:32Z</time></trkpt><trkpt lat="59.5138207264" lon="31.1955519766"><ele>46.25</ele><time>2026-09-01T05:38:36Z</time></trkpt><trkpt lat="59.5137125999" lon="31.1955112405"><ele>47.84</ele><time>2026-09-01T05:38:50Z</time></trkpt><trkpt lat="59.5137046371" lon="31.1955406610"><ele>48.26</ele><time>2026-09-01T05:38:58Z</time></trkpt><trkpt lat="59.5136827603" lon="31.1955135874"><ele>48.31</ele><time>2026-09-01T05:39:23Z</time></trkpt><trkpt lat="59.5137153659" lon="31.1955406610"><ele>47.85</ele><time>2026-09-01T05:39:53Z</time></trkpt><trkpt lat="59.5137008652" lon="31.1955531500"><ele>42.51</ele><time>2026-09-01T05:40:29Z</time></trkpt><trkpt lat="59.5136968419" lon="31.1955538206"><ele>49.02</ele><time>2026-09-01T05:40:30Z</time></trkpt><trkpt lat="59.5136537589" lon="31.1955704167"><ele>49.41</ele><time>2026-09-01T05:40:44Z</time></trkpt><trkpt lat="59.5136639848" lon="31.1956643779"><ele>46.20</ele><time>2026-09-01T05:40:49Z</time></trkpt><trkpt lat="59.5136618894" lon="31.1957213748"><ele>47.50</ele><time>2026-09-01T05:40:52Z</time></trkpt><trkpt lat="59.5136598777" lon="31.1957478616"><ele>51.09</ele><time>2026-09-01T05:40:54Z</time></trkpt><trkpt lat="59.5136553515" lon="31.1957592610"><ele>49.43</ele><time>2026-09-01T05:40:55Z</time></trkpt><trkpt lat="59.5136494841" lon="31.1957851611"><ele>47.93</ele><time>2026-09-01T05:40:57Z</time></trkpt><trkpt lat="59.5136324689" lon="31.1959168408"><ele>47.11</ele><time>2026-09-01T05:41:06Z</time></trkpt><trkpt lat="59.5136360731" lon="31.1959215347"><ele>48.36</ele><time>2026-09-01T05:41:08Z</time></trkpt><trkpt lat="59.5136219915" lon="31.1960623506"><ele>47.48</ele><time>2026-09-01T05:41:16Z</time></trkpt><trkpt lat="59.5136222430" lon="31.1961840559"><ele>47.56</ele><time>2026-09-01T05:41:22Z</time></trkpt><trkpt lat="59.5136165433" lon="31.1962807830"><ele>47.51</ele><time>2026-09-01T05:41:27Z</time></trkpt><trkpt lat="59.5136121847" lon="31.1963233631"><ele>47.40</ele><time>2026-09-01T05:41:29Z</time></trkpt><trkpt lat="59.5136343967" lon="31.1964879837"><ele>47.85</ele><time>2026-09-01T05:41:38Z</time></trkpt><trkpt lat="59.5136080775" lon="31.1966082640"><ele>48.38</ele><time>2026-09-01T05:41:50Z</time></trkpt><trkpt lat="59.5136436168" lon="31.1966633331"><ele>48.46</ele><time>2026-09-01T05:42:02Z</time></trkpt><trkpt lat="59.5137888752" lon="31.1966593936"><ele>48.90</ele><time>2026-09-01T05:42:15Z</time></trkpt><trkpt lat="59.5138358977" lon="31.1966594774"><ele>48.53</ele><time>2026-09-01T05:42:19Z</time></trkpt><trkpt lat="59.5138720237" lon="31.1966568790"><ele>48.05</ele><time>2026-09-01T05:42:23Z</time></trkpt><trkpt lat="59.5139887836" lon="31.1967084277"><ele>48.44</ele><time>2026-09-01T05:42:33Z</time></trkpt><trkpt lat="59.5140174497" lon="31.1966972798"><ele>47.93</ele><time>2026-09-01T05:42:35Z</time></trkpt><trkpt lat="59.5140878577" lon="31.1967748124"><ele>47.97</ele><time>2026-09-01T05:42:43Z</time></trkpt><trkpt lat="59.5140999276" lon="31.1968370900"><ele>48.13</ele><time>2026-09-01T05:42:46Z</time></trkpt><trkpt lat="59.5141782984" lon="31.1970383395"><ele>48.01</ele><time>2026-09-01T05:42:56Z</time></trkpt><trkpt lat="59.5142472815" lon="31.1972679198"><ele>48.19</ele><time>2026-09-01T05:43:09Z</time></trkpt><trkpt lat="59.5142525621" lon="31.1972821690"><ele>48.33</ele><time>2026-09-01T05:43:10Z</time></trkpt><trkpt lat="59.5142719243" lon="31.1973327957"><ele>47.95</ele><time>2026-09-01T05:43:13Z</time></trkpt><trkpt lat="59.5142973214" lon="31.1973842606"><ele>48.03</ele><time>2026-09-01T05:43:16Z</time></trkpt><trkpt lat="59.5143353753" lon="31.1974725220"><ele>47.91</ele><time>2026-09-01T05:43:22Z</time></trkpt><trkpt lat="59.5143851638" lon="31.1976686586"><ele>47.68</ele><time>2026-09-01T05:43:34Z</time></trkpt><trkpt lat="59.5144322701" lon="31.1978200357"><ele>48.13</ele><time>2026-09-01T05:43:42Z</time></trkpt><trkpt lat="59.5144477766" lon="31.1978550721"><ele>48.66</ele><time>2026-09-01T05:43:44Z</time></trkpt><trkpt lat="59.5144745987" lon="31.1979450937"><ele>48.11</ele><time>2026-09-01T05:43:50Z</time></trkpt><trkpt lat="59.5144659653" lon="31.1979962233"><ele>48.26</ele><time>2026-09-01T05:43:54Z</time></trkpt><trkpt lat="59.5144865848" lon="31.1980442517"><ele>48.24</ele><time>2026-09-01T05:43:57Z</time></trkpt><trkpt lat="59.5145307574" lon="31.1981519591"><ele>47.68</ele><time>2026-09-01T05:44:04Z</time></trkpt><trkpt lat="59.5146220364" lon="31.1982987262"><ele>47.54</ele><time>2026-09-01T05:44:16Z</time></trkpt><trkpt lat="59.5147373714" lon="31.1984852236"><ele>47.25</ele><time>2026-09-01T05:44:31Z</time></trkpt><trkpt lat="59.5147637744" lon="31.1984834634"><ele>46.06</ele><time>2026-09-01T05:44:44Z</time></trkpt><trkpt lat="59.5148224477" lon="31.1985678691"><ele>47.21</ele><time>2026-09-01T05:45:01Z</time></trkpt><trkpt lat="59.5148693863" lon="31.1985531170"><ele>46.82</ele><time>2026-09-01T05:45:12Z</time></trkpt><trkpt lat="59.5149154868" lon="31.1986670271"><ele>47.33</ele><time>2026-09-01T05:45:24Z</time></trkpt><trkpt lat="59.5149711426" lon="31.1987367645"><ele>47.04</ele><time>2026-09-01T05:45:32Z</time></trkpt><trkpt lat="59.5150657743" lon="31.1988279596"><ele>46.74</ele><time>2026-09-01T05:45:47Z</time></trkpt><trkpt lat="59.5151536167" lon="31.1989312246"><ele>47.01</ele><time>2026-09-01T05:46:06Z</time></trkpt><trkpt lat="59.5152706280" lon="31.1990089249"><ele>47.05</ele><time>2026-09-01T05:46:20Z</time></trkpt><trkpt lat="59.5152764954" lon="31.1990120262"><ele>46.85</ele><time>2026-09-01T05:46:21Z</time></trkpt><trkpt lat="59.5153106935" lon="31.1990177259"><ele>46.80</ele><time>2026-09-01T05:46:25Z</time></trkpt><trkpt lat="59.5153517649" lon="31.1990582943"><ele>47.44</ele><time>2026-09-01T05:46:30Z</time></trkpt><trkpt lat="59.5153889805" lon="31.1991338152"><ele>47.67</ele><time>2026-09-01T05:46:36Z</time></trkpt><trkpt lat="59.5154776610" lon="31.1992421933"><ele>47.47</ele><time>2026-09-01T05:46:48Z</time></trkpt><trkpt lat="59.5155096799" lon="31.1992809176"><ele>47.43</ele><time>2026-09-01T05:46:51Z</time></trkpt><trkpt lat="59.5155396871" lon="31.1993446201"><ele>47.50</ele><time>2026-09-01T05:46:55Z</time></trkpt><trkpt lat="59.5155934989" lon="31.1994236615"><ele>47.85</ele><time>2026-09-01T05:47:01Z</time></trkpt><trkpt lat="59.5156253502" lon="31.1994779762"><ele>48.12</ele><time>2026-09-01T05:47:05Z</time></trkpt><trkpt lat="59.5156983566" lon="31.1996394955"><ele>48.16</ele><time>2026-09-01T05:47:17Z</time></trkpt><trkpt lat="59.5157157909" lon="31.1996697541"><ele>48.10</ele><time>2026-09-01T05:47:19Z</time></trkpt><trkpt lat="59.5158448722" lon="31.1998713389"><ele>48.14</ele><time>2026-09-01T05:47:33Z</time></trkpt><trkpt lat="59.5158868656" lon="31.2000016775"><ele>47.85</ele><time>2026-09-01T05:47:40Z</time></trkpt><trkpt lat="59.5159622189" lon="31.2002159189"><ele>48.38</ele><time>2026-09-01T05:47:53Z</time></trkpt><trkpt lat="59.5159722771" lon="31.2002587505"><ele>48.64</ele><time>2026-09-01T05:47:55Z</time></trkpt><trkpt lat="59.5160316210" lon="31.2004287355"><ele>49.11</ele><time>2026-09-01T05:48:04Z</time></trkpt><trkpt lat="59.5160698425" lon="31.2005198468"><ele>49.20</ele><time>2026-09-01T05:48:10Z</time></trkpt><trkpt lat="59.5160925575" lon="31.2005716469"><ele>49.54</ele><time>2026-09-01T05:48:13Z</time></trkpt><trkpt lat="59.5161724370" lon="31.2008138839"><ele>49.87</ele><time>2026-09-01T05:48:26Z</time></trkpt><trkpt lat="59.5162230637" lon="31.2009082641"><ele>50.26</ele><time>2026-09-01T05:48:32Z</time></trkpt><trkpt lat="59.5162558369" lon="31.2009986211"><ele>50.03</ele><time>2026-09-01T05:48:37Z</time></trkpt><trkpt lat="59.5162943099" lon="31.2010862119"><ele>49.59</ele><time>2026-09-01T05:48:42Z</time></trkpt><trkpt lat="59.5163633768" lon="31.2012442946"><ele>49.54</ele><time>2026-09-01T05:48:51Z</time></trkpt><trkpt lat="59.5164126623" lon="31.2013424467"><ele>49.71</ele><time>2026-09-01T05:48:57Z</time></trkpt><trkpt lat="59.5165105630" lon="31.2015608791"><ele>49.64</ele><time>2026-09-01T05:49:12Z</time></trkpt><trkpt lat="59.5166185219" lon="31.2016474642"><ele>49.21</ele><time>2026-09-01T05:49:22Z</time></trkpt><trkpt lat="59.5166391414" lon="31.2016858533"><ele>50.68</ele><time>2026-09-01T05:49:34Z</time></trkpt><trkpt lat="59.5166999940" lon="31.2017457839"><ele>48.09</ele><time>2026-09-01T05:49:40Z</time></trkpt><trkpt lat="59.5167194400" lon="31.2017867714"><ele>47.46</ele><time>2026-09-01T05:49:42Z</time></trkpt><trkpt lat="59.5167946257" lon="31.2019616179"><ele>46.85</ele><time>2026-09-01T05:49:51Z</time></trkpt><trkpt lat="59.5168349426" lon="31.2021987420"><ele>47.92</ele><time>2026-09-01T05:50:02Z</time></trkpt><trkpt lat="59.5168132335" lon="31.2023198605"><ele>47.90</ele><time>2026-09-01T05:50:08Z</time></trkpt><trkpt lat="59.5167918596" lon="31.2024258915"><ele>48.19</ele><time>2026-09-01T05:50:13Z</time></trkpt><trkpt lat="59.5166895166" lon="31.2027952820"><ele>47.82</ele><time>2026-09-01T05:50:32Z</time></trkpt><trkpt lat="59.5166639518" lon="31.2031354196"><ele>47.68</ele><time>2026-09-01T05:50:45Z</time></trkpt><trkpt lat="59.5166620240" lon="31.2031573802"><ele>47.59</ele><time>2026-09-01T05:50:46Z</time></trkpt><trkpt lat="59.5166476909" lon="31.2032745592"><ele>47.37</ele><time>2026-09-01T05:50:51Z</time></trkpt><trkpt lat="59.5166477747" lon="31.2034260202"><ele>46.95</ele><time>2026-09-01T05:50:57Z</time></trkpt><trkpt lat="59.5166616887" lon="31.2035694346"><ele>47.52</ele><time>2026-09-01T05:51:03Z</time></trkpt><trkpt lat="59.5166586712" lon="31.2036857754"><ele>46.94</ele><time>2026-09-01T05:51:08Z</time></trkpt><trkpt lat="59.5166556537" lon="31.2038320396"><ele>46.57</ele><time>2026-09-01T05:51:15Z</time></trkpt><trkpt lat="59.5166802965" lon="31.2039600313"><ele>46.88</ele><time>2026-09-01T05:51:26Z</time></trkpt><trkpt lat="59.5167113934" lon="31.2040960696"><ele>46.71</ele><time>2026-09-01T05:51:37Z</time></trkpt><trkpt lat="59.5167256426" lon="31.2042022683"><ele>46.52</ele><time>2026-09-01T05:51:50Z</time></trkpt><trkpt lat="59.5167532191" lon="31.2042951398"><ele>46.40</ele><time>2026-09-01T05:51:59Z</time></trkpt><trkpt lat="59.5167915244" lon="31.2043630332"><ele>46.69</ele><time>2026-09-01T05:52:05Z</time></trkpt><trkpt lat="59.5168217830" lon="31.2043846585"><ele>46.38</ele><time>2026-09-01T05:52:08Z</time></trkpt><trkpt lat="59.5168592501" lon="31.2043911964"><ele>46.61</ele><time>2026-09-01T05:52:23Z</time></trkpt><trkpt lat="59.5168647822" lon="31.2044078764"><ele>46.64</ele><time>2026-09-01T05:52:26Z</time></trkpt><trkpt lat="59.5169341005" lon="31.2045540567"><ele>46.82</ele><time>2026-09-01T05:52:39Z</time></trkpt><trkpt lat="59.5170136448" lon="31.2046478502"><ele>46.58</ele><time>2026-09-01T05:52:49Z</time></trkpt><trkpt lat="59.5170886628" lon="31.2047740817"><ele>47.00</ele><time>2026-09-01T05:53:00Z</time></trkpt><trkpt lat="59.5171327516" lon="31.2047989760"><ele>47.12</ele><time>2026-09-01T05:53:05Z</time></trkpt><trkpt lat="59.5171794388" lon="31.2048456632"><ele>46.72</ele><time>2026-09-01T05:53:16Z</time></trkpt><trkpt lat="59.5172209293" lon="31.2048088666"><ele>46.72</ele><time>2026-09-01T05:53:23Z</time></trkpt><trkpt lat="59.5172413811" lon="31.2048693839"><ele>46.57</ele><time>2026-09-01T05:53:27Z</time></trkpt><trkpt lat="59.5172749925" lon="31.2049962021"><ele>46.69</ele><time>2026-09-01T05:53:38Z</time></trkpt><trkpt lat="59.5172864757" lon="31.2050600722"><ele>47.00</ele><time>2026-09-01T05:53:43Z</time></trkpt><trkpt lat="59.5173567999" lon="31.2051909976"><ele>46.57</ele><time>2026-09-01T05:53:56Z</time></trkpt><trkpt lat="59.5174014755" lon="31.2052175682"><ele>46.60</ele><time>2026-09-01T05:54:10Z</time></trkpt><trkpt lat="59.5174168982" lon="31.2052121200"><ele>46.44</ele><time>2026-09-01T05:54:29Z</time></trkpt><trkpt lat="59.5174460672" lon="31.2052443903"><ele>46.53</ele><time>2026-09-01T05:54:37Z</time></trkpt><trkpt lat="59.5174851269" lon="31.2052885629"><ele>46.67</ele><time>2026-09-01T05:54:51Z</time></trkpt><trkpt lat="59.5174901560" lon="31.2052884791"><ele>46.59</ele><time>2026-09-01T05:54:52Z</time></trkpt><trkpt lat="59.5175330713" lon="31.2053323165"><ele>46.81</ele><time>2026-09-01T05:54:56Z</time></trkpt><trkpt lat="59.5176154654" lon="31.2053919956"><ele>46.94</ele><time>2026-09-01T05:55:05Z</time></trkpt><trkpt lat="59.5176486578" lon="31.2054276187"><ele>47.13</ele><time>2026-09-01T05:55:09Z</time></trkpt><trkpt lat="59.5177467261" lon="31.2055769842"><ele>47.15</ele><time>2026-09-01T05:55:23Z</time></trkpt><trkpt lat="59.5178289525" lon="31.2057017908"><ele>47.29</ele><time>2026-09-01T05:55:36Z</time></trkpt><trkpt lat="59.5178582892" lon="31.2057750486"><ele>47.40</ele><time>2026-09-01T05:55:40Z</time></trkpt><trkpt lat="59.5178687666" lon="31.2057935726"><ele>47.24</ele><time>2026-09-01T05:55:42Z</time></trkpt><trkpt lat="59.5179414377" lon="31.2059045490"><ele>47.28</ele><time>2026-09-01T05:55:54Z</time></trkpt><trkpt lat="59.5180288609" lon="31.2059315387"><ele>47.51</ele><time>2026-09-01T05:56:07Z</time></trkpt><trkpt lat="59.5180723630" lon="31.2059117574"><ele>47.11</ele><time>2026-09-01T05:56:18Z</time></trkpt><trkpt lat="59.5181311201" lon="31.2059286889"><ele>47.03</ele><time>2026-09-01T05:56:26Z</time></trkpt><trkpt lat="59.5182646438" lon="31.2058793195"><ele>46.94</ele><time>2026-09-01T05:56:38Z</time></trkpt><trkpt lat="59.5183390751" lon="31.2057746295"><ele>47.18</ele><time>2026-09-01T05:56:49Z</time></trkpt><trkpt lat="59.5184447709" lon="31.2056924868"><ele>46.32</ele><time>2026-09-01T05:57:05Z</time></trkpt><trkpt lat="59.5184694976" lon="31.2056701910"><ele>45.87</ele><time>2026-09-01T05:57:10Z</time></trkpt><trkpt lat="59.5185364690" lon="31.2056268565"><ele>45.90</ele><time>2026-09-01T05:57:16Z</time></trkpt><trkpt lat="59.5185831562" lon="31.2055673450"><ele>45.54</ele><time>2026-09-01T05:57:21Z</time></trkpt><trkpt lat="59.5186932944" lon="31.2054609787"><ele>45.41</ele><time>2026-09-01T05:57:33Z</time></trkpt><trkpt lat="59.5187069569" lon="31.2053443864"><ele>45.28</ele><time>2026-09-01T05:57:43Z</time></trkpt><trkpt lat="59.5187213738" lon="31.2053384352"><ele>45.19</ele><time>2026-09-01T05:57:46Z</time></trkpt><trkpt lat="59.5187753532" lon="31.2052956875"><ele>43.65</ele><time>2026-09-01T05:57:54Z</time></trkpt><trkpt lat="59.5187792089" lon="31.2052835338"><ele>44.65</ele><time>2026-09-01T05:57:56Z</time></trkpt><trkpt lat="59.5187855791" lon="31.2052882276"><ele>46.59</ele><time>2026-09-01T05:57:58Z</time></trkpt><trkpt lat="59.5188577473" lon="31.2052275427"><ele>45.89</ele><time>2026-09-01T05:58:12Z</time></trkpt><trkpt lat="59.5189357828" lon="31.2051586434"><ele>45.71</ele><time>2026-09-01T05:58:20Z</time></trkpt><trkpt lat="59.5190350246" lon="31.2050153967"><ele>46.96</ele><time>2026-09-01T05:58:35Z</time></trkpt><trkpt lat="59.5190990623" lon="31.2049526162"><ele>48.07</ele><time>2026-09-01T05:58:48Z</time></trkpt><trkpt lat="59.5191288181" lon="31.2049100362"><ele>48.49</ele><time>2026-09-01T05:58:54Z</time></trkpt><trkpt lat="59.5191888325" lon="31.2048581522"><ele>48.79</ele><time>2026-09-01T05:58:58Z</time></trkpt><trkpt lat="59.5192321669" lon="31.2048588227"><ele>49.20</ele><time>2026-09-01T05:59:02Z</time></trkpt><trkpt lat="59.5194430556" lon="31.2050297298"><ele>47.98</ele><time>2026-09-01T05:59:17Z</time></trkpt><trkpt lat="59.5195048302" lon="31.2051869743"><ele>47.41</ele><time>2026-09-01T05:59:26Z</time></trkpt><trkpt lat="59.5195597317" lon="31.2052742299"><ele>47.50</ele><time>2026-09-01T05:59:32Z</time></trkpt><trkpt lat="59.5195767470" lon="31.2052943464"><ele>47.52</ele><time>2026-09-01T05:59:34Z</time></trkpt><trkpt lat="59.5196591411" lon="31.2053695321"><ele>47.55</ele><time>2026-09-01T05:59:48Z</time></trkpt><trkpt lat="59.5196985360" lon="31.2054654211"><ele>47.06</ele><time>2026-09-01T05:59:55Z</time></trkpt><trkpt lat="59.5197438821" lon="31.2055599689"><ele>46.88</ele><time>2026-09-01T06:00:03Z</time></trkpt><trkpt lat="59.5197902340" lon="31.2057107594"><ele>46.90</ele><time>2026-09-01T06:00:18Z</time></trkpt><trkpt lat="59.5198108535" lon="31.2056914810"><ele>47.31</ele><time>2026-09-01T06:00:24Z</time></trkpt><trkpt lat="59.5198274497" lon="31.2057080772"><ele>47.21</ele><time>2026-09-01T06:00:26Z</time></trkpt><trkpt lat="59.5198102668" lon="31.2057655770"><ele>46.95</ele><time>2026-09-01T06:00:38Z</time></trkpt><trkpt lat="59.5198378433" lon="31.2060014438"><ele>47.15</ele><time>2026-09-01T06:00:51Z</time></trkpt><trkpt lat="59.5198316406" lon="31.2060774677"><ele>47.08</ele><time>2026-09-01T06:00:58Z</time></trkpt><trkpt lat="59.5198272821" lon="31.2061403319"><ele>47.04</ele><time>2026-09-01T06:01:02Z</time></trkpt><trkpt lat="59.5198246837" lon="31.2062788848"><ele>47.09</ele><time>2026-09-01T06:01:10Z</time></trkpt><trkpt lat="59.5198377594" lon="31.2063063774"><ele>47.06</ele><time>2026-09-01T06:01:12Z</time></trkpt><trkpt lat="59.5198144577" lon="31.2063600216"><ele>46.90</ele><time>2026-09-01T06:01:18Z</time></trkpt><trkpt lat="59.5198039804" lon="31.2064036075"><ele>47.03</ele><time>2026-09-01T06:01:21Z</time></trkpt><trkpt lat="59.5197834447" lon="31.2065409869"><ele>47.04</ele><time>2026-09-01T06:01:28Z</time></trkpt><trkpt lat="59.5197836962" lon="31.2065955531"><ele>47.00</ele><time>2026-09-01T06:01:30Z</time></trkpt><trkpt lat="59.5197898988" lon="31.2068524584"><ele>46.63</ele><time>2026-09-01T06:01:41Z</time></trkpt><trkpt lat="59.5198014658" lon="31.2069260515"><ele>47.35</ele><time>2026-09-01T06:01:45Z</time></trkpt><trkpt lat="59.5198393520" lon="31.2072052527"><ele>47.37</ele><time>2026-09-01T06:01:58Z</time></trkpt><trkpt lat="59.5198324788" lon="31.2073029857"><ele>47.56</ele><time>2026-09-01T06:02:03Z</time></trkpt><trkpt lat="59.5198305510" lon="31.2073488347"><ele>47.11</ele><time>2026-09-01T06:02:05Z</time></trkpt><trkpt lat="59.5198285393" lon="31.2074175663"><ele>47.07</ele><time>2026-09-01T06:02:08Z</time></trkpt><trkpt lat="59.5198232587" lon="31.2074835319"><ele>46.91</ele><time>2026-09-01T06:02:11Z</time></trkpt><trkpt lat="59.5198215824" lon="31.2078492343"><ele>46.56</ele><time>2026-09-01T06:02:26Z</time></trkpt><trkpt lat="59.5198200736" lon="31.2078715302"><ele>46.46</ele><time>2026-09-01T06:02:27Z</time></trkpt><trkpt lat="59.5198390167" lon="31.2080749590"><ele>46.48</ele><time>2026-09-01T06:02:37Z</time></trkpt><trkpt lat="59.5198670961" lon="31.2081504799"><ele>46.11</ele><time>2026-09-01T06:02:44Z</time></trkpt><trkpt lat="59.5198671799" lon="31.2081832532"><ele>46.26</ele><time>2026-09-01T06:02:46Z</time></trkpt><trkpt lat="59.5198206604" lon="31.2082794774"><ele>45.66</ele><time>2026-09-01T06:03:00Z</time></trkpt><trkpt lat="59.5197927486" lon="31.2084365543"><ele>46.21</ele><time>2026-09-01T06:03:10Z</time></trkpt><trkpt lat="59.5197966881" lon="31.2086722534"><ele>46.10</ele><time>2026-09-01T06:03:22Z</time></trkpt><trkpt lat="59.5198024716" lon="31.2087169290"><ele>46.39</ele><time>2026-09-01T06:03:25Z</time></trkpt><trkpt lat="59.5198074169" lon="31.2088129018"><ele>45.58</ele><time>2026-09-01T06:03:29Z</time></trkpt><trkpt lat="59.5198380947" lon="31.2089621834"><ele>47.05</ele><time>2026-09-01T06:03:36Z</time></trkpt><trkpt lat="59.5198536012" lon="31.2090465892"><ele>46.87</ele><time>2026-09-01T06:03:41Z</time></trkpt><trkpt lat="59.5199044794" lon="31.2091595773"><ele>46.50</ele><time>2026-09-01T06:03:49Z</time></trkpt><trkpt lat="59.5199679304" lon="31.2093776744"><ele>46.22</ele><time>2026-09-01T06:04:00Z</time></trkpt><trkpt lat="59.5199761447" lon="31.2094078492"><ele>46.36</ele><time>2026-09-01T06:04:02Z</time></trkpt><trkpt lat="59.5200100914" lon="31.2094770838"><ele>46.09</ele><time>2026-09-01T06:04:06Z</time></trkpt><trkpt lat="59.5200326387" lon="31.2095783371"><ele>45.75</ele><time>2026-09-01T06:04:10Z</time></trkpt><trkpt lat="59.5200395957" lon="31.2096195761"><ele>45.65</ele><time>2026-09-01T06:04:12Z</time></trkpt><trkpt lat="59.5200380869" lon="31.2097119447"><ele>45.68</ele><time>2026-09-01T06:04:16Z</time></trkpt><trkpt lat="59.5200398471" lon="31.2097557820"><ele>45.79</ele><time>2026-09-01T06:04:19Z</time></trkpt><trkpt lat="59.5200529229" lon="31.2099161278"><ele>46.07</ele><time>2026-09-01T06:04:28Z</time></trkpt><trkpt lat="59.5200744644" lon="31.2099796627"><ele>46.15</ele><time>2026-09-01T06:04:31Z</time></trkpt><trkpt lat="59.5200850256" lon="31.2100132741"><ele>46.21</ele><time>2026-09-01T06:04:33Z</time></trkpt><trkpt lat="59.5201090816" lon="31.2101673335"><ele>45.86</ele><time>2026-09-01T06:04:48Z</time></trkpt><trkpt lat="59.5201110933" lon="31.2101912219"><ele>45.74</ele><time>2026-09-01T06:04:53Z</time></trkpt><trkpt lat="59.5201162901" lon="31.2102555949"><ele>45.94</ele><time>2026-09-01T06:04:56Z</time></trkpt><trkpt lat="59.5201955829" lon="31.2104202993"><ele>46.34</ele><time>2026-09-01T06:05:05Z</time></trkpt><trkpt lat="59.5202403422" lon="31.2105111592"><ele>46.16</ele><time>2026-09-01T06:05:12Z</time></trkpt><trkpt lat="59.5203212276" lon="31.2105833273"><ele>46.28</ele><time>2026-09-01T06:05:19Z</time></trkpt><trkpt lat="59.5203493908" lon="31.2105848361"><ele>45.82</ele><time>2026-09-01T06:05:21Z</time></trkpt><trkpt lat="59.5205003489" lon="31.2106601894"><ele>45.81</ele><time>2026-09-01T06:05:34Z</time></trkpt><trkpt lat="59.5205362234" lon="31.2106798869"><ele>45.73</ele><time>2026-09-01T06:05:38Z</time></trkpt><trkpt lat="59.5205831621" lon="31.2106756959"><ele>45.61</ele><time>2026-09-01T06:05:42Z</time></trkpt><trkpt lat="59.5207090583" lon="31.2106233928"><ele>46.74</ele><time>2026-09-01T06:05:55Z</time></trkpt><trkpt lat="59.5207178593" lon="31.2106201239"><ele>45.94</ele><time>2026-09-01T06:05:56Z</time></trkpt><trkpt lat="59.5207889378" lon="31.2105643004"><ele>46.16</ele><time>2026-09-01T06:06:10Z</time></trkpt><trkpt lat="59.5208082162" lon="31.2104836665"><ele>45.18</ele><time>2026-09-01T06:06:22Z</time></trkpt><trkpt lat="59.5208438393" lon="31.2104680762"><ele>46.58</ele><time>2026-09-01T06:06:26Z</time></trkpt><trkpt lat="59.5209052786" lon="31.2104315311"><ele>45.97</ele><time>2026-09-01T06:06:39Z</time></trkpt><trkpt lat="59.5209769439" lon="31.2104358897"><ele>46.00</ele><time>2026-09-01T06:06:48Z</time></trkpt><trkpt lat="59.5211038459" lon="31.2105009332"><ele>46.14</ele><time>2026-09-01T06:07:01Z</time></trkpt><trkpt lat="59.5211197715" lon="31.2105558347"><ele>45.57</ele><time>2026-09-01T06:07:05Z</time></trkpt><trkpt lat="59.5211742539" lon="31.2106502149"><ele>45.50</ele><time>2026-09-01T06:07:15Z</time></trkpt><trkpt lat="59.5211925264" lon="31.2106793839"><ele>45.88</ele><time>2026-09-01T06:07:18Z</time></trkpt><trkpt lat="59.5212983899" lon="31.2107734289"><ele>46.80</ele><time>2026-09-01T06:07:30Z</time></trkpt><trkpt lat="59.5213137288" lon="31.2107902765"><ele>46.82</ele><time>2026-09-01T06:07:32Z</time></trkpt><trkpt lat="59.5213488489" lon="31.2108327728"><ele>46.94</ele><time>2026-09-01T06:07:36Z</time></trkpt><trkpt lat="59.5214917604" lon="31.2108994927"><ele>47.60</ele><time>2026-09-01T06:07:50Z</time></trkpt><trkpt lat="59.5215176605" lon="31.2109334394"><ele>47.41</ele><time>2026-09-01T06:07:57Z</time></trkpt><trkpt lat="59.5215566363" lon="31.2109676376"><ele>47.19</ele><time>2026-09-01T06:08:03Z</time></trkpt><trkpt lat="59.5215756632" lon="31.2110489421"><ele>47.33</ele><time>2026-09-01T06:08:08Z</time></trkpt><trkpt lat="59.5216186624" lon="31.2112264708"><ele>47.37</ele><time>2026-09-01T06:08:26Z</time></trkpt><trkpt lat="59.5216554590" lon="31.2111535482"><ele>47.58</ele><time>2026-09-01T06:09:06Z</time></trkpt><trkpt lat="59.5216899924" lon="31.2109690625"><ele>47.16</ele><time>2026-09-01T06:09:21Z</time></trkpt><trkpt lat="59.5217193291" lon="31.2108684797"><ele>46.91</ele><time>2026-09-01T06:09:51Z</time></trkpt><trkpt lat="59.5216931775" lon="31.2109203637"><ele>46.68</ele><time>2026-09-01T06:10:35Z</time></trkpt><trkpt lat="59.5217278786" lon="31.2109130714"><ele>46.43</ele><time>2026-09-01T06:11:21Z</time></trkpt><trkpt lat="59.5217577182" lon="31.2109265663"><ele>46.54</ele><time>2026-09-01T06:11:23Z</time></trkpt><trkpt lat="59.5217955206" lon="31.2109397259"><ele>47.12</ele><time>2026-09-01T06:11:25Z</time></trkpt><trkpt lat="59.5219760668" lon="31.2109124847"><ele>46.98</ele><time>2026-09-01T06:11:36Z</time></trkpt><trkpt lat="59.5220659208" lon="31.2109042704"><ele>47.15</ele><time>2026-09-01T06:11:43Z</time></trkpt><trkpt lat="59.5222727861" lon="31.2108550686"><ele>46.65</ele><time>2026-09-01T06:11:59Z</time></trkpt><trkpt lat="59.5224182960" lon="31.2108554877"><ele>46.57</ele><time>2026-09-01T06:12:11Z</time></trkpt><trkpt lat="59.5225173701" lon="31.2109088805"><ele>46.13</ele><time>2026-09-01T06:12:21Z</time></trkpt><trkpt lat="59.5225716848" lon="31.2109827250"><ele>46.61</ele><time>2026-09-01T06:12:29Z</time></trkpt><trkpt lat="59.5227224752" lon="31.2111065257"><ele>46.55</ele><time>2026-09-01T06:12:42Z</time></trkpt><trkpt lat="59.5229230542" lon="31.2112244591"><ele>45.52</ele><time>2026-09-01T06:13:00Z</time></trkpt><trkpt lat="59.5230084658" lon="31.2111954577"><ele>45.42</ele><time>2026-09-01T06:13:11Z</time></trkpt><trkpt lat="59.5232209470" lon="31.2111362815"><ele>45.28</ele><time>2026-09-01T06:13:27Z</time></trkpt><trkpt lat="59.5232461765" lon="31.2111388799"><ele>45.23</ele><time>2026-09-01T06:13:29Z</time></trkpt><trkpt lat="59.5233803708" lon="31.2112187594"><ele>44.65</ele><time>2026-09-01T06:13:40Z</time></trkpt><trkpt lat="59.5234356914" lon="31.2112748343"><ele>44.59</ele><time>2026-09-01T06:13:46Z</time></trkpt><trkpt lat="59.5235056803" lon="31.2113838829"><ele>44.75</ele><time>2026-09-01T06:13:53Z</time></trkpt><trkpt lat="59.5235626772" lon="31.2114201766"><ele>44.86</ele><time>2026-09-01T06:13:59Z</time></trkpt><trkpt lat="59.5236302353" lon="31.2114849687"><ele>44.61</ele><time>2026-09-01T06:14:06Z</time></trkpt><trkpt lat="59.5236824546" lon="31.2116847932"><ele>45.61</ele><time>2026-09-01T06:14:20Z</time></trkpt><trkpt lat="59.5236913394" lon="31.2117648404"><ele>45.39</ele><time>2026-09-01T06:14:24Z</time></trkpt><trkpt lat="59.5237232745" lon="31.2118635792"><ele>45.36</ele><time>2026-09-01T06:14:29Z</time></trkpt><trkpt lat="59.5237628371" lon="31.2121905573"><ele>45.25</ele><time>2026-09-01T06:14:43Z</time></trkpt><trkpt lat="59.5238343347" lon="31.2124733627"><ele>44.61</ele><time>2026-09-01T06:14:55Z</time></trkpt><trkpt lat="59.5239249431" lon="31.2127899472"><ele>44.34</ele><time>2026-09-01T06:15:09Z</time></trkpt><trkpt lat="59.5239469875" lon="31.2128321920"><ele>43.84</ele><time>2026-09-01T06:15:11Z</time></trkpt><trkpt lat="59.5239766594" lon="31.2128698267"><ele>43.68</ele><time>2026-09-01T06:15:14Z</time></trkpt><trkpt lat="59.5240639988" lon="31.2128998339"><ele>43.92</ele><time>2026-09-01T06:15:26Z</time></trkpt><trkpt lat="59.5240745600" lon="31.2128960621"><ele>43.81</ele><time>2026-09-01T06:15:27Z</time></trkpt><trkpt lat="59.5241323952" lon="31.2128673960"><ele>43.63</ele><time>2026-09-01T06:15:34Z</time></trkpt><trkpt lat="59.5242030546" lon="31.2128596846"><ele>44.05</ele><time>2026-09-01T06:15:42Z</time></trkpt><trkpt lat="59.5242731273" lon="31.2128397357"><ele>44.25</ele><time>2026-09-01T06:15:48Z</time></trkpt><trkpt lat="59.5243717823" lon="31.2127761170"><ele>43.94</ele><time>2026-09-01T06:16:00Z</time></trkpt><trkpt lat="59.5244140271" lon="31.2127855886"><ele>44.00</ele><time>2026-09-01T06:16:13Z</time></trkpt><trkpt lat="59.5245268475" lon="31.2126056291"><ele>44.51</ele><time>2026-09-01T06:16:27Z</time></trkpt><trkpt lat="59.5246382430" lon="31.2124591973"><ele>44.81</ele><time>2026-09-01T06:16:39Z</time></trkpt><trkpt lat="59.5247470401" lon="31.2122286949"><ele>45.01</ele><time>2026-09-01T06:16:54Z</time></trkpt><trkpt lat="59.5247778017" lon="31.2121758051"><ele>44.96</ele><time>2026-09-01T06:17:06Z</time></trkpt><trkpt lat="59.5247971639" lon="31.2121817563"><ele>44.52</ele><time>2026-09-01T06:17:13Z</time></trkpt><trkpt lat="59.5248931367" lon="31.2122247554"><ele>45.03</ele><time>2026-09-01T06:17:19Z</time></trkpt><trkpt lat="59.5250895247" lon="31.2123748753"><ele>44.76</ele><time>2026-09-01T06:17:33Z</time></trkpt><trkpt lat="59.5252319332" lon="31.2125233188"><ele>44.69</ele><time>2026-09-01T06:17:45Z</time></trkpt><trkpt lat="59.5252815541" lon="31.2126625422"><ele>45.88</ele><time>2026-09-01T06:17:54Z</time></trkpt><trkpt lat="59.5252986532" lon="31.2126912083"><ele>45.25</ele><time>2026-09-01T06:17:56Z</time></trkpt><trkpt lat="59.5253224578" lon="31.2127330340"><ele>45.37</ele><time>2026-09-01T06:17:59Z</time></trkpt><trkpt lat="59.5253822207" lon="31.2127857562"><ele>45.36</ele><time>2026-09-01T06:18:07Z</time></trkpt><trkpt lat="59.5254059415" lon="31.2128459383"><ele>45.09</ele><time>2026-09-01T06:18:10Z</time></trkpt><trkpt lat="59.5254914369" lon="31.2130795419"><ele>45.15</ele><time>2026-09-01T06:18:24Z</time></trkpt><trkpt lat="59.5255514514" lon="31.2131925300"><ele>44.78</ele><time>2026-09-01T06:18:34Z</time></trkpt><trkpt lat="59.5256195124" lon="31.2133496907"><ele>45.37</ele><time>2026-09-01T06:18:46Z</time></trkpt><trkpt lat="59.5256333426" lon="31.2133671250"><ele>45.44</ele><time>2026-09-01T06:18:50Z</time></trkpt><trkpt lat="59.5256612543" lon="31.2134644389"><ele>45.45</ele><time>2026-09-01T06:18:55Z</time></trkpt><trkpt lat="59.5257215202" lon="31.2136517745"><ele>45.48</ele><time>2026-09-01T06:19:06Z</time></trkpt><trkpt lat="59.5257968735" lon="31.2137877289"><ele>45.41</ele><time>2026-09-01T06:19:18Z</time></trkpt><trkpt lat="59.5258330833" lon="31.2138586398"><ele>45.50</ele><time>2026-09-01T06:19:23Z</time></trkpt><trkpt lat="59.5258631743" lon="31.2138866354"><ele>45.56</ele><time>2026-09-01T06:19:26Z</time></trkpt><trkpt lat="59.5258762501" lon="31.2139048241"><ele>45.79</ele><time>2026-09-01T06:19:28Z</time></trkpt><trkpt lat="59.5259250328" lon="31.2139881402"><ele>45.76</ele><time>2026-09-01T06:19:34Z</time></trkpt><trkpt lat="59.5259778388" lon="31.2141853664"><ele>45.71</ele><time>2026-09-01T06:19:45Z</time></trkpt><trkpt lat="59.5259987935" lon="31.2142486498"><ele>45.65</ele><time>2026-09-01T06:19:50Z</time></trkpt><trkpt lat="59.5260453969" lon="31.2143770605"><ele>45.46</ele><time>2026-09-01T06:19:58Z</time></trkpt><trkpt lat="59.5260565449" lon="31.2144281901"><ele>45.23</ele><time>2026-09-01T06:20:02Z</time></trkpt><trkpt lat="59.5261088479" lon="31.2145416811"><ele>45.75</ele><time>2026-09-01T06:20:13Z</time></trkpt><trkpt lat="59.5261978637" lon="31.2147970777"><ele>44.42</ele><time>2026-09-01T06:20:28Z</time></trkpt><trkpt lat="59.5262391865" lon="31.2150347885"><ele>44.64</ele><time>2026-09-01T06:20:40Z</time></trkpt><trkpt lat="59.5262440480" lon="31.2151435856"><ele>44.87</ele><time>2026-09-01T06:20:52Z</time></trkpt><trkpt lat="59.5262610633" lon="31.2151785381"><ele>44.68</ele><time>2026-09-01T06:20:55Z</time></trkpt><trkpt lat="59.5262901485" lon="31.2152957171"><ele>44.56</ele><time>2026-09-01T06:21:07Z</time></trkpt><trkpt lat="59.5262915734" lon="31.2153248861"><ele>44.62</ele><time>2026-09-01T06:21:09Z</time></trkpt><trkpt lat="59.5263054874" lon="31.2154066935"><ele>44.39</ele><time>2026-09-01T06:21:13Z</time></trkpt><trkpt lat="59.5263111871" lon="31.2154314201"><ele>44.41</ele><time>2026-09-01T06:21:15Z</time></trkpt><trkpt lat="59.5263533480" lon="31.2156368606"><ele>44.19</ele><time>2026-09-01T06:21:26Z</time></trkpt><trkpt lat="59.5263531804" lon="31.2157391198"><ele>44.33</ele><time>2026-09-01T06:21:32Z</time></trkpt><trkpt lat="59.5263694413" lon="31.2158086896"><ele>43.97</ele><time>2026-09-01T06:21:35Z</time></trkpt><trkpt lat="59.5263984427" lon="31.2158949394"><ele>44.70</ele><time>2026-09-01T06:21:42Z</time></trkpt><trkpt lat="59.5263949223" lon="31.2160988711"><ele>44.61</ele><time>2026-09-01T06:21:53Z</time></trkpt><trkpt lat="59.5263892226" lon="31.2161881384"><ele>44.51</ele><time>2026-09-01T06:21:59Z</time></trkpt><trkpt lat="59.5263822656" lon="31.2162189838"><ele>44.73</ele><time>2026-09-01T06:22:01Z</time></trkpt><trkpt lat="59.5263679326" lon="31.2165192235"><ele>44.95</ele><time>2026-09-01T06:22:15Z</time></trkpt><trkpt lat="59.5263806731" lon="31.2168207206"><ele>44.72</ele><time>2026-09-01T06:22:28Z</time></trkpt><trkpt lat="59.5263803378" lon="31.2169202976"><ele>44.44</ele><time>2026-09-01T06:22:32Z</time></trkpt><trkpt lat="59.5263988618" lon="31.2169890292"><ele>44.32</ele><time>2026-09-01T06:22:37Z</time></trkpt><trkpt lat="59.5263864566" lon="31.2170531508"><ele>44.09</ele><time>2026-09-01T06:22:41Z</time></trkpt><trkpt lat="59.5264626481" lon="31.2172576692"><ele>44.42</ele><time>2026-09-01T06:22:53Z</time></trkpt><trkpt lat="59.5264753886" lon="31.2172795460"><ele>44.22</ele><time>2026-09-01T06:22:55Z</time></trkpt><trkpt lat="59.5264841896" lon="31.2173053622"><ele>44.41</ele><time>2026-09-01T06:22:57Z</time></trkpt><trkpt lat="59.5265869517" lon="31.2175820488"><ele>44.46</ele><time>2026-09-01T06:23:13Z</time></trkpt><trkpt lat="59.5266400930" lon="31.2178290635"><ele>44.25</ele><time>2026-09-01T06:23:27Z</time></trkpt><trkpt lat="59.5266560186" lon="31.2178689614"><ele>43.86</ele><time>2026-09-01T06:23:29Z</time></trkpt><trkpt lat="59.5266807452" lon="31.2179101165"><ele>43.99</ele><time>2026-09-01T06:23:32Z</time></trkpt><trkpt lat="59.5267906319" lon="31.2182068359"><ele>43.41</ele><time>2026-09-01T06:23:49Z</time></trkpt><trkpt lat="59.5269058831" lon="31.2184179761"><ele>43.90</ele><time>2026-09-01T06:24:01Z</time></trkpt><trkpt lat="59.5269304421" lon="31.2184205744"><ele>43.95</ele><time>2026-09-01T06:24:05Z</time></trkpt><trkpt lat="59.5269802306" lon="31.2184215803"><ele>44.16</ele><time>2026-09-01T06:24:12Z</time></trkpt><trkpt lat="59.5269957371" lon="31.2184538506"><ele>44.08</ele><time>2026-09-01T06:24:14Z</time></trkpt><trkpt lat="59.5270108245" lon="31.2184867915"><ele>44.25</ele><time>2026-09-01T06:24:16Z</time></trkpt><trkpt lat="59.5270362217" lon="31.2185276952"><ele>43.94</ele><time>2026-09-01T06:24:19Z</time></trkpt><trkpt lat="59.5271290932" lon="31.2186932378"><ele>44.37</ele><time>2026-09-01T06:24:29Z</time></trkpt><trkpt lat="59.5271425880" lon="31.2187186349"><ele>44.64</ele><time>2026-09-01T06:24:31Z</time></trkpt><trkpt lat="59.5271875989" lon="31.2188522425"><ele>45.10</ele><time>2026-09-01T06:24:40Z</time></trkpt><trkpt lat="59.5272624493" lon="31.2190593593"><ele>45.71</ele><time>2026-09-01T06:24:54Z</time></trkpt><trkpt lat="59.5272812247" lon="31.2191304378"><ele>45.92</ele><time>2026-09-01T06:24:58Z</time></trkpt><trkpt lat="59.5273056161" lon="31.2192983273"><ele>45.95</ele><time>2026-09-01T06:25:07Z</time></trkpt><trkpt lat="59.5273085497" lon="31.2193390634"><ele>45.49</ele><time>2026-09-01T06:25:10Z</time></trkpt><trkpt lat="59.5273362938" lon="31.2195864972"><ele>46.50</ele><time>2026-09-01T06:25:23Z</time></trkpt><trkpt lat="59.5273569971" lon="31.2198341824"><ele>46.55</ele><time>2026-09-01T06:25:39Z</time></trkpt><trkpt lat="59.5274103899" lon="31.2200391199"><ele>46.11</ele><time>2026-09-01T06:25:54Z</time></trkpt><trkpt lat="59.5274114795" lon="31.2200777605"><ele>45.94</ele><time>2026-09-01T06:25:56Z</time></trkpt><trkpt lat="59.5274306741" lon="31.2202132959"><ele>45.34</ele><time>2026-09-01T06:26:03Z</time></trkpt><trkpt lat="59.5274238847" lon="31.2204004638"><ele>45.35</ele><time>2026-09-01T06:26:15Z</time></trkpt><trkpt lat="59.5274281595" lon="31.2204116117"><ele>45.15</ele><time>2026-09-01T06:26:16Z</time></trkpt><trkpt lat="59.5274471864" lon="31.2204463966"><ele>45.10</ele><time>2026-09-01T06:26:19Z</time></trkpt><trkpt lat="59.5274671353" lon="31.2205204926"><ele>45.09</ele><time>2026-09-01T06:26:23Z</time></trkpt><trkpt lat="59.5274797920" lon="31.2205876317"><ele>44.80</ele><time>2026-09-01T06:26:31Z</time></trkpt><trkpt lat="59.5274943765" lon="31.2206047308"><ele>44.21</ele><time>2026-09-01T06:26:33Z</time></trkpt><trkpt lat="59.5275517926" lon="31.2207867019"><ele>44.48</ele><time>2026-09-01T06:26:44Z</time></trkpt><trkpt lat="59.5275535528" lon="31.2208072376"><ele>44.41</ele><time>2026-09-01T06:26:45Z</time></trkpt><trkpt lat="59.5275684725" lon="31.2210948206"><ele>44.36</ele><time>2026-09-01T06:26:59Z</time></trkpt><trkpt lat="59.5275687240" lon="31.2211662345"><ele>44.51</ele><time>2026-09-01T06:27:08Z</time></trkpt><trkpt lat="59.5275705680" lon="31.2213221379"><ele>43.97</ele><time>2026-09-01T06:27:15Z</time></trkpt><trkpt lat="59.5275928639" lon="31.2216784526"><ele>44.64</ele><time>2026-09-01T06:27:29Z</time></trkpt><trkpt lat="59.5275970548" lon="31.2220206857"><ele>44.04</ele><time>2026-09-01T06:27:45Z</time></trkpt><trkpt lat="59.5276106335" lon="31.2223714683"><ele>43.73</ele><time>2026-09-01T06:27:59Z</time></trkpt><trkpt lat="59.5276370365" lon="31.2225669343"><ele>43.09</ele><time>2026-09-01T06:28:07Z</time></trkpt><trkpt lat="59.5276582427" lon="31.2226437964"><ele>43.01</ele><time>2026-09-01T06:28:11Z</time></trkpt><trkpt lat="59.5276690554" lon="31.2226794194"><ele>42.89</ele><time>2026-09-01T06:28:13Z</time></trkpt><trkpt lat="59.5277341828" lon="31.2229201477"><ele>41.96</ele><time>2026-09-01T06:28:27Z</time></trkpt><trkpt lat="59.5277607534" lon="31.2231851835"><ele>41.44</ele><time>2026-09-01T06:28:42Z</time></trkpt><trkpt lat="59.5277742483" lon="31.2232563458"><ele>41.40</ele><time>2026-09-01T06:28:54Z</time></trkpt><trkpt lat="59.5277757570" lon="31.2233351357"><ele>41.02</ele><time>2026-09-01T06:29:08Z</time></trkpt><trkpt lat="59.5277793612" lon="31.2233527377"><ele>41.01</ele><time>2026-09-01T06:29:10Z</time></trkpt><trkpt lat="59.5277863182" lon="31.2235327810"><ele>40.98</ele><time>2026-09-01T06:29:19Z</time></trkpt><trkpt lat="59.5277828816" lon="31.2235712539"><ele>40.87</ele><time>2026-09-01T06:29:21Z</time></trkpt><trkpt lat="59.5277845580" lon="31.2236114871"><ele>41.00</ele><time>2026-09-01T06:29:23Z</time></trkpt><trkpt lat="59.5277766790" lon="31.2237566616"><ele>40.91</ele><time>2026-09-01T06:29:30Z</time></trkpt><trkpt lat="59.5277706441" lon="31.2240277324"><ele>41.06</ele><time>2026-09-01T06:29:44Z</time></trkpt><trkpt lat="59.5278004836" lon="31.2242134754"><ele>40.83</ele><time>2026-09-01T06:29:55Z</time></trkpt><trkpt lat="59.5278391242" lon="31.2242833804"><ele>41.05</ele><time>2026-09-01T06:30:01Z</time></trkpt><trkpt lat="59.5279390365" lon="31.2244494259"><ele>40.47</ele><time>2026-09-01T06:30:15Z</time></trkpt><trkpt lat="59.5280408766" lon="31.2244967837"><ele>40.25</ele><time>2026-09-01T06:30:29Z</time></trkpt><trkpt lat="59.5280948561" lon="31.2245215941"><ele>40.47</ele><time>2026-09-01T06:30:36Z</time></trkpt><trkpt lat="59.5281242765" lon="31.2245017290"><ele>39.97</ele><time>2026-09-01T06:30:39Z</time></trkpt><trkpt lat="59.5282725524" lon="31.2246071734"><ele>40.92</ele><time>2026-09-01T06:30:53Z</time></trkpt><trkpt lat="59.5284068305" lon="31.2246749830"><ele>41.29</ele><time>2026-09-01T06:31:07Z</time></trkpt><trkpt lat="59.5285523403" lon="31.2246124540"><ele>41.22</ele><time>2026-09-01T06:31:23Z</time></trkpt><trkpt lat="59.5286854450" lon="31.2245279644"><ele>41.18</ele><time>2026-09-01T06:31:35Z</time></trkpt><trkpt lat="59.5287845191" lon="31.2244881503"><ele>41.33</ele><time>2026-09-01T06:31:45Z</time></trkpt><trkpt lat="59.5289282687" lon="31.2244336680"><ele>41.69</ele><time>2026-09-01T06:31:58Z</time></trkpt><trkpt lat="59.5289632212" lon="31.2244055886"><ele>41.70</ele><time>2026-09-01T06:32:01Z</time></trkpt><trkpt lat="59.5290879440" lon="31.2244168203"><ele>41.49</ele><time>2026-09-01T06:32:13Z</time></trkpt><trkpt lat="59.5291984174" lon="31.2244328298"><ele>41.17</ele><time>2026-09-01T06:32:22Z</time></trkpt><trkpt lat="59.5293082204" lon="31.2244831212"><ele>40.90</ele><time>2026-09-01T06:32:37Z</time></trkpt><trkpt lat="59.5294048637" lon="31.2245268747"><ele>41.17</ele><time>2026-09-01T06:32:47Z</time></trkpt><trkpt lat="59.5295090508" lon="31.2246195786"><ele>40.60</ele><time>2026-09-01T06:33:04Z</time></trkpt><trkpt lat="59.5295440871" lon="31.2246494181"><ele>40.86</ele><time>2026-09-01T06:33:12Z</time></trkpt><trkpt lat="59.5295884274" lon="31.2246874720"><ele>40.79</ele><time>2026-09-01T06:33:16Z</time></trkpt><trkpt lat="59.5297535509" lon="31.2248877995"><ele>40.98</ele><time>2026-09-01T06:33:32Z</time></trkpt><trkpt lat="59.5299065206" lon="31.2250268552"><ele>40.85</ele><time>2026-09-01T06:33:46Z</time></trkpt><trkpt lat="59.5300096180" lon="31.2251521647"><ele>41.27</ele><time>2026-09-01T06:33:57Z</time></trkpt><trkpt lat="59.5300602447" lon="31.2252095807"><ele>41.20</ele><time>2026-09-01T06:34:03Z</time></trkpt><trkpt lat="59.5300966222" lon="31.2252507359"><ele>41.10</ele><time>2026-09-01T06:34:07Z</time></trkpt><trkpt lat="59.5302135497" lon="31.2254349701"><ele>41.59</ele><time>2026-09-01T06:34:21Z</time></trkpt><trkpt lat="59.5302927587" lon="31.2255954836"><ele>41.31</ele><time>2026-09-01T06:34:33Z</time></trkpt><trkpt lat="59.5303116180" lon="31.2256108224"><ele>41.15</ele><time>2026-09-01T06:34:35Z</time></trkpt><trkpt lat="59.5303915814" lon="31.2257383950"><ele>41.02</ele><time>2026-09-01T06:34:44Z</time></trkpt><trkpt lat="59.5304168947" lon="31.2257916201"><ele>40.81</ele><time>2026-09-01T06:34:47Z</time></trkpt><trkpt lat="59.5305357501" lon="31.2260256428"><ele>41.21</ele><time>2026-09-01T06:35:01Z</time></trkpt><trkpt lat="59.5306484867" lon="31.2262387946"><ele>41.22</ele><time>2026-09-01T06:35:15Z</time></trkpt><trkpt lat="59.5307133626" lon="31.2263177522"><ele>41.22</ele><time>2026-09-01T06:35:23Z</time></trkpt><trkpt lat="59.5307412744" lon="31.2263757549"><ele>41.49</ele><time>2026-09-01T06:35:28Z</time></trkpt><trkpt lat="59.5307723712" lon="31.2264303211"><ele>41.44</ele><time>2026-09-01T06:35:32Z</time></trkpt><trkpt lat="59.5309193898" lon="31.2265773397"><ele>40.99</ele><time>2026-09-01T06:35:49Z</time></trkpt><trkpt lat="59.5309247542" lon="31.2265975401"><ele>41.83</ele><time>2026-09-01T06:35:53Z</time></trkpt><trkpt lat="59.5309781469" lon="31.2266844604"><ele>41.87</ele><time>2026-09-01T06:36:01Z</time></trkpt><trkpt lat="59.5309987664" lon="31.2267182395"><ele>41.42</ele><time>2026-09-01T06:36:04Z</time></trkpt><trkpt lat="59.5311291888" lon="31.2269296311"><ele>41.07</ele><time>2026-09-01T06:36:18Z</time></trkpt><trkpt lat="59.5311848447" lon="31.2270105164"><ele>40.97</ele><time>2026-09-01T06:36:24Z</time></trkpt><trkpt lat="59.5313056279" lon="31.2272231653"><ele>40.94</ele><time>2026-09-01T06:36:38Z</time></trkpt><trkpt lat="59.5313566737" lon="31.2273015361"><ele>40.80</ele><time>2026-09-01T06:36:45Z</time></trkpt><trkpt lat="59.5313970745" lon="31.2273956649"><ele>41.24</ele><time>2026-09-01T06:36:52Z</time></trkpt><trkpt lat="59.5314091444" lon="31.2274336349"><ele>40.73</ele><time>2026-09-01T06:36:55Z</time></trkpt><trkpt lat="59.5315007586" lon="31.2276753690"><ele>41.89</ele><time>2026-09-01T06:37:09Z</time></trkpt><trkpt lat="59.5315648802" lon="31.2278632913"><ele>41.58</ele><time>2026-09-01T06:37:20Z</time></trkpt><trkpt lat="59.5315843262" lon="31.2279086374"><ele>41.58</ele><time>2026-09-01T06:37:23Z</time></trkpt><trkpt lat="59.5316090528" lon="31.2279834878"><ele>41.07</ele><time>2026-09-01T06:37:27Z</time></trkpt><trkpt lat="59.5316059515" lon="31.2279042788"><ele>41.86</ele><time>2026-09-01T06:37:39Z</time></trkpt><trkpt lat="59.5315701608" lon="31.2278032769"><ele>41.79</ele><time>2026-09-01T06:37:44Z</time></trkpt><trkpt lat="59.5315657184" lon="31.2277963199"><ele>41.73</ele><time>2026-09-01T06:38:00Z</time></trkpt><trkpt lat="59.5315715857" lon="31.2278151792"><ele>41.54</ele><time>2026-09-01T06:38:01Z</time></trkpt><trkpt lat="59.5315842424" lon="31.2278842460"><ele>41.81</ele><time>2026-09-01T06:38:04Z</time></trkpt><trkpt lat="59.5316181891" lon="31.2279812247"><ele>41.92</ele><time>2026-09-01T06:38:08Z</time></trkpt><trkpt lat="59.5317041874" lon="31.2282440811"><ele>41.83</ele><time>2026-09-01T06:38:21Z</time></trkpt><trkpt lat="59.5318353642" lon="31.2284173351"><ele>42.22</ele><time>2026-09-01T06:38:35Z</time></trkpt><trkpt lat="59.5318688918" lon="31.2286507711"><ele>42.12</ele><time>2026-09-01T06:38:47Z</time></trkpt><trkpt lat="59.5318762679" lon="31.2287012301"><ele>42.04</ele><time>2026-09-01T06:38:50Z</time></trkpt><trkpt lat="59.5319162495" lon="31.2289195787"><ele>42.10</ele><time>2026-09-01T06:39:02Z</time></trkpt><trkpt lat="59.5319104660" lon="31.2289635837"><ele>42.11</ele><time>2026-09-01T06:39:04Z</time></trkpt><trkpt lat="59.5318907686" lon="31.2291510869"><ele>42.68</ele><time>2026-09-01T06:39:21Z</time></trkpt><trkpt lat="59.5319033414" lon="31.2291475665"><ele>42.50</ele><time>2026-09-01T06:39:47Z</time></trkpt><trkpt lat="59.5319055207" lon="31.2291460577"><ele>42.35</ele><time>2026-09-01T06:40:05Z</time></trkpt><trkpt lat="59.5318489429" lon="31.2291596364"><ele>42.18</ele><time>2026-09-01T06:40:27Z</time></trkpt><trkpt lat="59.5318333525" lon="31.2291382626"><ele>41.90</ele><time>2026-09-01T06:41:20Z</time></trkpt><trkpt lat="59.5318238810" lon="31.2291114405"><ele>42.05</ele><time>2026-09-01T06:42:02Z</time></trkpt><trkpt lat="59.5318143256" lon="31.2290810980"><ele>37.78</ele><time>2026-09-01T06:42:18Z</time></trkpt><trkpt lat="59.5318168402" lon="31.2290819362"><ele>42.47</ele><time>2026-09-01T06:42:19Z</time></trkpt><trkpt lat="59.5318383817" lon="31.2290757336"><ele>42.46</ele><time>2026-09-01T06:42:44Z</time></trkpt></trkseg></trk></gpx>